GFSCGP_850_spd_000.txt.gz
Wind_Speed
6 4 7 7 6 3 1 2 2 3 4 6 2 3 9 11 11 10 8 7 9 13 9 9 12 12 11 9 11 11 9 11 11 7 6 7 8 9 8 9 17 20 21 26
4 8 4 4 4 2 2 2 1 2 1 5 1 6 8 11 13 12 13 13 11 11 9 8 6 7 8 7 9 11 11 12 13 8 11 11 9 8 12 13 21 24 29 29
5 6 2 2 6 5 1 2 4 4 4 3 4 7 6 7 11 13 14 15 15 14 13 12 11 10 8 8 8 7 9 9 7 4 6 7 9 11 11 18 21 27 28 29
8 3 2 2 5 7 1 3 8 7 6 4 3 4 6 4 8 9 10 12 12 11 10 8 7 6 5 5 5 4 1 2 5 11 13 19 13 15 21 20 19 28 30 31
4 5 5 6 4 6 5 8 5 4 6 4 2 6 9 3 7 7 10 11 11 9 9 8 7 7 7 6 6 6 7 9 15 18 23 19 19 16 15 18 22 23 22 28
6 3 4 5 3 2 6 3 1 1 2 4 2 5 7 2 4 7 10 11 9 7 6 8 8 8 9 8 7 10 10 13 18 21 26 24 21 21 22 22 24 23 25 25
3 5 2 7 3 4 8 2 2 2 4 1 1 6 7 5 7 7 6 9 9 8 7 6 6 5 5 6 11 15 22 14 25 34 32 30 27 20 21 23 24 28 26 25
2 4 8 9 5 6 7 6 3 3 2 4 3 2 6 7 7 7 7 7 7 8 8 6 4 5 6 11 17 21 18 13 21 23 19 20 18 19 22 24 28 30 28 26
2 3 3 6 6 5 3 4 2 2 1 3 1 4 7 7 6 5 5 3 4 4 4 5 7 8 8 8 11 18 22 23 21 19 16 20 20 23 29 33 31 24 24 19
2 2 2 1 3 8 4 3 2 2 3 4 3 6 6 9 4 3 2 1 3 1 3 8 11 11 11 12 15 21 22 15 14 14 16 18 24 26 28 24 22 20 16 14
4 3 2 3 2 2 3 2 2 1 2 3 4 4 5 3 2 3 9 8 7 5 10 14 17 17 16 13 11 12 13 13 12 14 18 20 20 18 19 19 17 15 14 13
4 1 2 1 2 3 2 1 1 2 2 2 4 6 4 1 2 5 13 6 7 9 14 16 17 16 14 9 10 11 11 12 16 21 20 18 17 16 17 18 16 14 13 12
1 0 2 3 4 3 4 2 2 1 1 8 4 4 3 2 12 11 10 8 7 12 17 18 18 16 13 12 12 17 19 19 20 23 17 15 15 18 17 17 17 15 16 17
1 2 4 4 6 4 6 6 6 8 5 8 12 18 16 12 13 14 7 5 10 17 17 17 16 14 12 20 21 18 16 19 26 23 16 16 16 15 18 19 17 17 16 16
2 3 3 7 10 13 11 13 12 14 14 10 14 14 14 13 13 12 5 14 20 18 17 18 17 15 20 16 14 13 15 22 25 15 17 12 10 11 14 16 15 16 17 17
2 1 3 4 8 10 12 14 14 13 12 13 14 15 6 9 8 7 15 20 19 15 16 18 18 15 15 15 18 14 16 18 17 14 10 8 11 13 14 15 17 18 18 17
1 1 1 4 9 13 6 3 4 4 4 8 10 8 8 7 11 16 21 19 11 15 18 20 16 18 18 20 17 18 19 14 11 12 8 10 12 14 15 17 18 18 18 18
4 3 1 3 5 3 3 5 9 13 13 8 9 3 6 11 20 24 7 7 12 19 18 18 18 21 23 21 20 20 18 14 13 13 12 12 13 14 16 18 18 18 19 20
2 3 2 2 4 14 12 4 2 2 11 3 3 8 17 24 23 11 8 16 20 15 17 21 22 25 26 22 21 20 18 16 15 16 16 12 13 14 16 17 18 20 21 20
5 4 2 3 4 4 3 3 4 4 8 3 10 20 22 24 12 4 21 18 15 17 18 22 24 25 23 21 20 20 20 19 18 15 14 13 13 14 16 17 20 21 22 21
2 2 4 6 6 7 6 5 1 3 3 14 12 8 10 6 7 19 14 14 16 19 20 22 24 25 24 24 22 20 18 15 12 12 14 15 13 14 15 18 21 23 24 21
3 2 4 3 4 6 2 2 2 5 12 6 7 7 10 11 12 12 14 17 19 20 23 25 27 28 26 24 20 19 16 13 13 15 17 14 13 13 16 20 22 23 23 20
5 6 4 7 6 6 11 11 7 7 6 7 3 6 9 8 12 14 16 19 21 23 25 27 27 28 27 25 22 19 17 14 14 17 16 13 13 14 17 21 23 22 19 18
5 8 4 6 11 14 14 10 5 5 7 4 6 5 6 11 13 17 20 23 24 25 26 26 27 28 28 25 20 16 15 15 16 17 15 13 13 16 17 19 18 17 16 16
10 8 10 11 15 15 7 2 5 9 8 5 5 7 9 11 16 20 23 24 24 25 25 25 26 28 29 25 20 15 17 13 16 15 12 12 12 14 16 16 14 14 12 16
16 14 5 4 6 9 8 10 11 11 7 5 6 8 10 15 20 22 24 25 25 26 26 27 27 28 27 22 18 16 13 17 18 16 11 11 15 12 12 12 13 16 19 18

GFSCGP_850_spd_003.txt.gz
Wind_Speed
5 10 7 10 7 7 5 5 5 6 4 6 3 3 5 5 7 6 4 3 5 11 12 10 8 6 5 6 7 11 11 10 6 6 6 7 8 9 8 9 10 11 11 17
9 8 5 3 4 4 4 5 1 2 2 6 4 8 6 8 8 9 8 8 9 9 8 6 6 5 3 4 6 8 5 4 4 4 4 5 6 6 9 8 13 13 16 22
9 8 1 3 4 8 4 8 7 10 3 9 7 9 12 8 12 13 13 13 13 12 11 11 12 11 10 8 7 7 6 5 4 4 2 5 7 9 12 15 16 18 22 23
7 4 3 3 4 9 6 5 8 8 7 8 10 3 8 12 9 10 10 11 11 10 9 9 10 10 10 11 11 9 7 5 6 3 5 10 10 12 14 17 20 24 21 21
5 3 2 3 5 6 6 8 7 8 9 8 9 9 10 9 8 9 9 8 8 8 8 8 9 9 9 9 9 7 4 5 6 6 8 12 16 21 30 30 22 21 19 19
8 3 5 6 4 3 8 7 6 6 4 5 3 6 10 6 7 7 7 6 5 6 7 7 7 7 6 6 5 6 5 5 8 11 15 25 42 34 18 19 19 18 20 20
7 5 4 7 7 5 9 6 3 3 4 2 4 7 9 8 6 7 3 4 5 6 4 3 3 2 2 3 5 8 10 12 14 17 19 16 13 15 17 19 19 22 22 22
3 7 7 7 6 7 6 7 3 4 3 5 9 4 7 10 9 5 4 3 3 5 5 4 2 3 6 8 11 13 13 15 16 14 14 15 16 17 17 18 20 21 21 23
3 4 5 5 6 7 4 4 3 2 1 3 4 5 9 9 8 4 3 4 2 2 2 2 4 6 12 13 14 14 14 15 14 14 16 15 15 16 17 17 18 21 23 24
3 2 2 4 4 5 9 3 3 2 3 4 3 10 8 8 4 5 3 2 4 5 5 7 12 14 16 18 18 14 14 15 15 16 14 13 16 18 18 19 22 24 24 24
7 3 5 3 3 8 1 2 3 4 4 4 5 3 8 5 3 5 9 10 11 9 10 15 16 16 17 19 18 16 17 13 13 14 15 18 16 17 18 20 21 20 21 21
6 2 2 5 3 3 4 4 3 2 2 2 3 6 6 5 3 6 9 10 8 12 13 16 18 16 19 19 21 19 13 14 16 13 15 17 17 18 19 19 20 19 18 18
6 1 3 5 6 4 4 2 1 2 1 8 5 4 7 9 12 10 11 10 10 8 15 18 19 24 27 21 15 17 19 17 13 13 15 17 17 18 16 17 18 18 18 20
3 1 3 5 8 5 6 7 7 8 6 9 10 14 12 9 10 14 14 7 12 15 17 19 20 24 21 19 20 18 18 17 17 16 16 18 17 14 15 16 17 18 19 21
3 2 5 9 11 9 10 12 12 13 13 11 13 15 14 11 11 13 9 12 17 19 19 18 24 23 20 18 18 19 17 19 19 19 19 19 15 14 16 17 18 19 20 20
2 1 4 4 6 7 12 14 16 12 8 13 12 14 10 9 10 13 19 22 20 17 17 21 25 23 21 20 21 22 19 20 21 20 21 19 17 16 17 17 18 20 20 20
2 1 3 4 10 11 6 3 3 5 8 7 10 10 10 11 17 17 18 17 15 16 21 26 20 20 22 22 24 24 23 23 20 22 22 20 18 17 17 17 19 20 21 21
4 1 2 3 6 2 5 7 13 9 9 10 8 9 10 14 17 16 7 12 17 21 20 19 21 22 24 26 26 26 25 27 25 24 23 21 17 19 17 18 20 21 22 22
1 3 2 2 5 14 12 4 5 7 12 12 6 10 14 21 19 8 7 18 18 16 18 20 22 24 26 27 28 28 28 29 27 25 22 18 20 18 18 19 21 22 23 23
4 2 3 3 3 4 3 2 4 6 9 8 6 12 13 16 11 11 20 19 17 18 20 22 23 26 28 29 29 30 30 29 27 21 20 19 17 18 17 19 22 22 23 23
2 2 5 6 5 8 8 3 5 4 3 7 11 7 13 10 14 18 17 17 18 20 22 24 26 28 29 30 30 30 31 29 24 16 15 17 18 17 18 20 21 23 23 22
6 6 4 3 4 6 3 4 2 10 15 6 6 8 10 13 16 14 15 17 20 23 26 27 29 29 30 30 30 31 33 29 20 13 15 17 18 16 18 20 21 22 23 19
4 6 4 8 6 10 8 10 14 9 7 7 8 12 12 14 15 15 17 20 23 26 28 29 29 30 30 30 30 32 29 22 14 15 16 17 16 17 18 19 21 21 18 17
7 14 6 7 7 17 11 17 2 2 5 8 11 11 12 14 14 17 21 23 26 28 30 29 30 30 31 30 30 27 23 16 19 18 17 17 16 16 16 17 18 16 16 16
10 10 10 14 19 19 17 3 2 9 11 8 9 11 12 13 17 22 25 27 28 30 29 30 29 30 30 30 29 25 21 18 17 16 15 15 13 13 16 15 14 15 14 20
15 14 10 11 10 5 10 13 15 14 9 7 8 11 11 17 23 26 28 28 29 30 31 31 32 32 30 28 27 23 17 14 14 14 13 12 13 12 12 12 12 16 19 21

GFSCGP_850_spd_006.txt.gz
Wind_Speed
7 8 7 12 9 7 9 7 8 13 6 3 9 8 10 7 4 4 3 7 5 9 14 19 13 5 3 2 2 8 7 11 5 3 6 7 5 5 6 4 8 11 14 18
5 7 8 6 8 6 6 6 6 5 6 5 8 9 11 7 10 14 9 9 14 17 17 14 9 6 7 9 9 4 6 7 4 6 3 4 6 6 6 6 10 11 17 23
13 10 5 5 6 9 4 7 9 8 9 8 10 6 14 11 11 12 16 19 17 16 15 14 13 13 12 12 11 9 8 8 8 8 3 2 3 4 9 16 24 21 26 38
8 4 4 2 6 9 3 6 5 8 7 7 12 3 13 14 11 13 15 17 14 12 13 14 14 12 12 11 10 9 9 7 3 1 12 16 15 16 22 31 31 28 19 19
5 5 5 4 6 6 6 5 6 8 9 10 10 6 13 16 13 13 13 12 11 12 13 12 11 11 11 9 8 7 4 3 5 12 14 12 12 19 20 17 16 16 13 16
7 3 7 6 4 2 7 10 9 8 9 3 11 2 6 2 12 12 11 9 9 9 7 8 9 8 8 6 5 4 5 7 13 12 9 19 20 17 13 15 13 14 19 24
8 7 5 8 10 5 9 9 3 2 3 2 5 2 10 11 12 13 10 11 8 5 5 5 7 6 3 5 8 10 12 14 14 18 17 11 12 13 13 14 16 21 26 18
7 6 5 7 7 7 5 6 2 4 5 4 1 3 8 14 13 12 11 7 5 6 4 5 4 4 4 6 10 14 14 15 16 16 15 14 12 12 14 16 21 20 17 22
4 7 6 7 5 8 7 6 3 1 3 1 5 13 14 11 8 10 6 1 3 3 5 1 5 1 5 9 13 15 16 14 16 14 12 13 13 14 20 21 16 18 16 16
4 4 4 3 3 4 6 2 2 3 2 3 8 5 7 4 6 4 6 6 5 2 1 6 12 14 14 15 16 16 15 15 17 16 16 19 22 18 14 16 17 18 22 26
6 4 4 5 8 8 1 2 2 4 1 2 3 2 4 7 4 5 6 7 7 7 7 7 14 16 17 21 21 20 20 14 14 18 23 20 16 15 16 16 19 22 27 29
4 2 2 8 5 3 3 5 3 0 2 0 1 5 7 9 15 9 9 8 12 11 13 16 17 16 20 22 20 15 17 20 23 23 15 17 17 18 17 18 22 22 21 19
5 1 2 8 5 4 2 4 1 6 2 4 2 3 4 19 10 12 9 9 13 11 12 13 16 18 22 23 23 27 22 17 21 19 17 17 20 19 16 18 19 17 20 21
4 2 2 2 5 6 7 8 8 8 4 5 7 14 13 9 5 5 10 12 13 15 13 14 17 20 21 24 21 20 22 23 26 27 17 15 22 18 17 17 18 20 21 22
3 1 5 7 8 7 9 11 11 12 11 8 10 13 8 8 10 19 16 16 13 12 15 17 20 23 22 21 21 23 23 26 27 23 22 28 24 20 15 16 17 19 21 21
4 2 3 2 3 9 12 14 14 15 14 9 12 13 6 16 15 15 13 14 14 16 18 20 22 20 20 21 23 26 28 29 20 22 28 26 26 20 15 15 16 17 21 20
2 1 2 2 9 9 2 3 3 5 7 9 5 9 12 9 11 15 10 11 14 17 20 20 19 19 21 22 26 28 30 32 32 30 28 23 23 21 14 15 16 17 21 23
5 2 2 2 5 2 4 13 11 9 7 7 9 6 7 11 16 17 8 11 15 16 16 17 20 22 21 26 26 29 31 33 36 35 27 26 23 16 14 14 17 17 21 23
4 3 2 0 3 9 10 5 5 5 10 11 5 8 12 17 14 6 12 13 14 16 18 21 23 23 27 26 28 31 34 34 35 38 26 28 17 15 19 11 18 18 24 23
4 5 1 2 2 3 1 7 6 9 8 8 9 11 11 16 6 8 21 19 18 19 21 23 25 26 26 26 30 31 32 33 36 31 33 20 12 16 14 14 15 19 20 20
3 2 4 4 4 6 9 4 4 3 2 8 4 10 11 8 6 14 17 15 18 20 23 26 26 27 25 28 29 29 30 32 27 24 20 16 16 16 15 15 19 18 21 23
7 6 4 4 4 6 2 1 2 7 14 5 4 6 7 10 12 15 14 17 19 22 25 26 29 26 28 29 29 27 27 29 26 28 21 23 20 16 15 17 16 20 21 19
4 6 4 9 5 10 4 7 11 11 9 3 8 7 9 9 12 14 16 18 22 24 26 29 27 29 32 28 27 26 26 25 24 23 23 19 18 16 15 19 20 19 17 21
4 10 3 4 8 12 10 13 6 3 1 5 5 8 10 11 11 14 18 22 24 25 28 26 31 32 28 28 28 25 25 24 23 20 20 20 17 17 16 14 17 16 19 25
6 5 6 7 14 15 4 5 6 3 7 7 5 7 8 10 13 18 22 24 26 27 26 30 29 29 29 31 28 26 26 25 16 17 17 15 15 15 17 13 16 16 20 22
9 9 7 8 8 3 2 3 4 6 5 5 4 6 8 12 17 20 22 25 26 27 30 29 29 30 30 29 29 30 21 16 20 23 16 15 16 14 15 11 14 16 19 20

GFSCGP_850_spd_009.txt.gz
Wind_Speed
12 6 3 3 3 4 5 5 10 5 5 2 2 5 8 25 24 27 28 33 31 32 25 21 20 16 11 12 17 20 18 11 16 16 14 11 12 6 6 5 8 12 15 20
5 5 3 5 5 6 5 7 6 4 3 3 2 2 8 16 16 28 28 34 32 29 25 22 20 24 27 24 21 22 22 17 12 11 11 9 6 4 9 12 12 15 24 24
8 1 4 3 9 9 10 6 5 4 7 5 2 2 8 9 24 31 33 29 26 23 21 16 15 16 18 17 14 12 10 8 5 2 2 5 8 9 13 16 21 26 21 19
6 1 4 8 8 7 5 6 5 6 4 2 4 1 4 12 13 20 29 33 31 28 22 16 12 10 11 14 11 8 8 8 5 8 13 13 12 16 17 19 15 11 19 17
3 8 9 9 4 5 2 0 3 3 4 3 7 5 2 13 12 9 19 22 22 21 19 16 10 8 8 7 8 9 10 16 18 19 13 14 12 14 9 10 13 14 14 15
4 11 5 5 4 2 5 4 5 3 2 2 6 5 2 4 9 6 19 20 15 13 9 7 6 6 8 12 12 10 7 8 12 16 11 13 9 8 11 15 17 18 20 25
5 5 3 6 4 2 6 6 3 3 4 3 6 7 2 7 7 11 16 21 17 16 13 14 11 6 4 7 8 7 11 15 16 12 12 13 15 15 16 15 18 23 27 21
5 3 6 8 5 2 5 4 4 2 1 4 8 5 1 9 21 20 16 12 12 9 8 6 6 7 6 7 6 7 11 14 10 12 16 16 16 15 15 17 27 18 19 19
4 3 3 5 3 3 5 5 2 5 1 3 2 4 4 8 8 16 10 9 18 17 12 8 12 8 4 6 10 11 11 12 13 14 15 15 15 19 24 20 15 18 19 18
5 4 3 3 1 6 6 2 5 4 2 2 3 3 3 3 4 5 7 11 7 14 15 10 8 5 7 10 14 17 18 17 14 16 19 24 26 19 10 14 17 18 22 25
5 4 3 2 5 4 4 3 4 2 4 3 1 3 3 10 7 7 16 23 23 19 14 10 9 12 13 16 19 21 23 23 25 27 30 30 26 20 19 24 26 27 29 28
3 4 3 3 2 2 1 4 5 4 3 1 4 4 4 8 15 15 17 16 14 14 12 11 11 12 17 22 26 28 20 21 26 27 32 28 25 23 27 32 26 24 22 17
3 2 3 4 4 5 2 4 5 6 3 3 4 5 3 13 9 2 9 15 13 11 11 10 14 22 21 24 26 20 21 26 26 29 28 29 26 23 31 30 19 17 16 20
3 3 5 5 2 1 2 4 2 6 3 4 6 6 7 7 6 13 15 13 13 12 10 15 20 19 21 18 18 19 20 24 27 32 33 36 36 26 25 15 13 13 17 19
3 3 4 4 5 4 3 4 5 5 6 6 8 7 9 8 9 10 10 11 12 11 14 15 21 18 18 16 16 20 24 23 28 29 32 36 31 25 19 29 15 16 20 15
4 1 2 2 6 8 4 7 7 7 7 6 3 4 13 15 12 8 12 14 14 14 16 19 16 17 18 18 22 23 20 22 29 34 37 37 27 26 30 27 16 13 14 13
3 4 3 2 4 5 4 4 3 1 1 1 2 1 12 11 14 15 14 12 11 14 17 15 17 18 16 20 16 18 23 29 34 31 32 27 34 37 31 16 15 20 19 13
4 3 3 2 3 2 4 4 1 5 5 6 9 11 15 14 16 14 8 9 10 12 14 16 16 16 18 17 19 23 29 34 34 31 30 33 32 35 22 14 14 17 13 15
5 4 3 3 1 6 6 2 3 4 4 7 7 9 10 8 7 12 8 11 7 9 12 14 17 17 18 21 24 30 33 33 27 26 29 34 29 25 20 19 13 10 15 14
6 6 4 2 4 6 6 4 7 4 3 5 9 7 6 4 2 4 12 9 7 11 13 16 19 19 21 23 28 32 31 26 23 26 29 31 28 24 22 18 12 13 10 16
3 3 5 3 2 7 8 5 6 4 6 4 5 3 2 1 3 9 9 5 11 13 15 17 18 19 20 26 33 28 26 22 24 27 31 27 23 19 18 14 14 14 18 19
7 6 4 3 2 7 11 6 7 5 6 9 7 5 1 4 7 7 7 11 14 15 16 18 20 20 25 28 23 23 22 23 25 28 28 24 21 17 16 16 17 16 17 18
2 7 6 9 7 9 16 12 14 11 4 9 5 2 3 4 6 5 10 12 12 16 19 17 20 26 24 21 25 24 24 26 28 33 27 21 20 13 14 13 13 16 19 21
3 14 3 4 7 10 11 9 10 8 11 10 6 2 6 7 5 9 9 12 13 16 17 22 24 24 24 26 25 24 27 32 37 29 24 22 18 15 15 16 20 17 18 21
6 3 1 3 3 2 8 11 15 12 6 6 4 3 5 1 4 8 9 13 16 19 23 25 26 27 31 29 32 34 32 29 28 24 24 19 16 17 16 14 13 15 19 22
7 5 3 5 5 5 10 11 9 7 5 4 5 6 1 4 6 9 13 16 21 24 26 28 28 30 29 31 35 33 22 22 24 25 21 18 17 15 13 10 14 17 18 18

GFSCGP_850_spd_012.txt.gz
Wind_Speed
7 6 4 2 3 3 5 3 7 3 2 4 6 7 6 12 25 26 31 33 39 36 29 24 23 20 21 22 14 13 16 15 17 11 16 12 9 4 1 3 5 10 20 17
6 2 2 3 6 7 4 8 5 5 7 5 8 8 6 14 12 26 32 34 39 37 34 30 27 25 22 21 18 9 13 13 13 10 4 5 1 1 4 9 15 18 23 28
6 3 3 6 7 8 5 6 3 2 3 6 13 6 7 8 21 26 28 33 33 32 31 28 26 22 18 16 15 12 9 6 3 3 2 3 8 12 13 17 21 23 22 21
6 7 7 6 4 1 3 3 4 3 3 5 2 4 5 5 11 17 23 31 32 31 26 24 22 19 17 14 10 9 9 6 1 5 11 15 16 16 18 20 18 16 20 16
3 5 6 6 0 1 4 1 1 1 3 3 3 6 5 5 8 8 15 27 26 23 22 19 15 14 14 11 9 8 8 9 9 12 15 15 17 19 18 16 17 14 14 17
5 3 3 2 3 1 2 1 6 4 3 3 5 5 4 3 7 5 12 24 22 19 16 13 12 11 11 10 8 7 7 10 12 13 13 14 16 15 13 12 13 16 20 23
5 4 5 5 4 6 8 5 3 4 4 4 4 7 1 2 5 14 17 19 18 16 13 9 7 6 6 6 5 4 6 9 10 12 13 13 12 11 13 14 18 22 26 27
4 4 4 6 2 1 4 4 4 4 2 3 6 3 0 4 23 22 18 17 15 14 13 12 11 10 9 9 7 7 9 11 14 13 10 10 13 20 25 25 32 32 23 20
4 1 2 1 2 2 3 4 4 6 3 3 1 3 2 3 7 15 7 12 17 17 20 23 15 7 3 4 8 11 13 14 15 16 18 22 28 29 31 29 29 26 24 23
3 4 1 2 5 8 6 2 4 4 2 2 3 3 4 5 5 9 11 12 15 20 18 15 11 9 9 11 12 14 16 14 15 17 23 25 31 31 35 32 28 27 28 27
2 4 4 4 3 0 5 3 5 4 3 4 2 4 3 8 8 10 14 22 21 18 17 14 11 10 10 13 16 15 12 15 19 22 25 28 30 33 34 31 28 32 30 27
2 5 3 1 3 1 2 3 4 4 2 2 4 4 3 6 19 25 22 19 18 13 12 9 9 10 14 15 15 13 15 17 18 19 22 25 28 30 33 28 28 23 20 13
3 2 3 6 6 5 4 2 5 6 3 3 5 5 6 3 5 15 21 20 20 13 7 7 11 14 15 10 10 13 14 17 19 23 25 23 26 28 29 29 27 24 18 25
2 3 5 6 4 3 2 2 3 5 3 3 6 5 6 7 10 16 19 18 12 7 6 11 15 10 8 8 13 14 15 19 22 24 27 33 36 33 23 27 30 28 34 18
3 3 1 2 4 1 1 1 2 5 4 5 6 7 8 8 10 16 20 14 6 4 8 11 8 7 7 10 11 16 16 17 22 27 32 32 34 31 32 32 30 23 15 12
4 0 2 1 5 6 3 5 6 5 4 5 2 3 5 12 14 16 13 10 6 3 6 4 5 7 4 9 12 13 18 22 26 30 31 32 32 31 35 32 26 16 15 10
3 4 3 3 4 5 5 5 3 2 2 3 5 5 9 6 14 15 11 7 3 2 2 4 6 4 9 10 14 18 22 26 25 25 30 31 28 33 37 29 24 21 17 12
4 4 3 2 3 1 5 4 5 7 3 8 10 6 9 14 14 12 6 2 2 1 3 6 5 10 10 14 17 19 24 23 25 27 29 29 31 33 30 23 23 23 7 10
5 5 3 3 3 5 4 5 5 6 4 6 10 10 10 17 14 8 2 1 3 2 7 6 10 10 13 14 18 25 27 23 27 26 26 27 28 31 25 15 14 13 10 11
6 6 4 3 4 6 5 3 10 7 4 14 14 14 11 16 3 4 3 3 3 5 5 6 7 13 16 20 24 24 22 23 19 26 26 28 27 24 19 15 10 10 11 13
3 3 5 3 2 8 7 6 7 5 7 19 17 15 13 6 7 3 3 4 2 5 4 7 12 13 18 21 20 21 23 24 25 23 25 29 23 18 16 14 12 14 11 9
7 6 4 3 2 8 14 7 7 6 14 17 15 14 12 8 6 6 3 2 2 2 8 11 13 17 20 19 21 25 25 23 24 27 30 23 20 19 12 12 12 10 9 11
2 7 6 10 7 6 22 11 18 13 16 18 19 15 10 8 7 5 4 4 4 7 10 14 19 22 24 22 25 25 25 27 33 29 24 22 21 19 13 12 12 14 13 14
4 9 3 3 6 16 15 17 12 17 15 17 16 13 7 6 7 7 6 3 7 11 16 20 24 26 25 25 24 26 29 31 27 22 22 22 21 14 14 14 13 11 12 16
6 8 5 4 4 3 7 14 16 14 13 15 10 4 7 9 9 6 3 6 10 15 19 22 24 23 24 24 25 29 32 30 19 18 20 21 17 15 14 12 10 11 15 17
7 7 4 7 8 9 10 17 19 17 16 12 9 14 12 9 6 2 5 11 16 19 22 22 22 24 23 25 28 29 27 26 22 23 20 15 15 13 12 11 12 13 15 14

GFSCGP_850_spd_015.txt.gz
Wind_Speed
5 6 4 2 2 5 2 3 3 2 2 7 5 9 10 14 22 23 22 21 20 15 12 13 12 13 20 25 26 16 10 15 8 6 9 7 3 1 3 3 5 13 23 25
6 4 2 7 5 7 6 6 2 3 8 10 10 12 9 16 13 20 24 27 30 28 23 18 15 12 13 13 8 5 10 5 4 6 6 5 4 4 9 14 16 18 21 25
6 2 5 7 7 8 4 2 2 5 6 5 10 9 8 9 18 21 24 27 29 29 26 22 18 13 11 12 10 10 9 4 1 4 4 6 9 10 16 21 23 25 23 20
6 6 5 6 5 3 3 2 3 4 6 4 3 2 4 3 6 9 16 26 25 24 24 21 20 20 18 16 13 9 7 5 5 5 8 12 11 16 18 20 20 19 20 19
2 2 6 6 1 2 3 1 2 2 4 4 4 5 3 5 2 4 11 21 24 24 21 21 21 18 16 14 10 7 4 2 1 7 12 14 13 16 16 13 13 15 16 18
3 1 3 1 1 1 1 4 6 4 3 3 4 5 5 6 5 4 7 18 24 24 20 22 18 16 14 11 8 7 2 3 7 11 12 13 14 13 10 11 15 21 28 32
5 4 5 3 2 3 5 5 2 3 3 4 5 3 5 4 14 10 16 22 22 23 23 21 18 13 11 9 7 5 1 6 10 10 10 10 11 14 18 20 22 24 27 26
4 3 4 5 2 2 3 4 4 5 3 3 4 1 4 4 21 26 24 24 22 19 17 18 16 12 10 10 6 3 6 9 11 11 12 14 17 21 22 23 26 28 29 29
4 1 3 1 2 3 1 4 3 6 3 3 2 2 5 3 7 18 22 18 16 16 16 16 15 11 8 5 4 8 11 11 10 12 15 18 22 23 22 23 27 29 29 24
5 4 1 4 3 5 5 4 3 4 3 2 2 4 4 8 7 3 11 22 22 23 21 17 13 9 4 3 8 11 10 11 13 15 18 18 19 21 22 25 28 29 25 21
3 3 4 2 3 1 4 2 6 5 3 4 2 5 5 8 8 8 15 25 26 22 18 15 10 3 4 8 9 7 6 7 12 14 17 21 20 19 24 26 28 23 18 21
1 5 3 1 5 3 1 3 4 4 3 1 3 5 2 7 15 23 26 28 25 21 16 11 5 1 5 6 3 4 8 12 13 17 22 21 23 28 28 26 23 22 26 28
1 2 3 6 6 5 1 3 5 5 3 4 5 5 2 7 10 11 20 21 23 17 12 7 2 1 1 1 3 6 10 13 16 17 20 26 31 27 24 24 30 29 27 27
3 3 5 6 4 3 3 3 3 4 3 3 5 3 5 6 7 15 20 22 17 12 7 2 3 1 2 3 6 8 12 12 15 21 27 31 28 27 26 28 33 29 24 23
4 3 2 3 4 2 0 4 6 6 5 5 5 7 7 10 9 21 24 18 13 9 5 2 2 2 3 6 8 12 11 16 21 26 29 27 27 28 29 31 33 24 19 19
4 1 1 1 5 6 3 5 6 5 4 7 6 7 4 14 19 20 22 18 13 7 3 2 4 7 8 9 11 11 16 20 24 28 26 25 27 28 28 31 29 21 19 21
3 4 3 3 4 4 6 8 8 5 4 6 6 8 10 6 16 24 20 15 10 6 4 4 7 8 9 9 10 14 18 23 22 23 22 22 22 27 28 32 22 19 15 12
5 4 2 2 3 2 6 3 5 5 3 3 2 6 13 15 19 17 14 11 9 8 6 7 8 8 8 9 11 16 21 22 21 22 19 22 26 28 30 26 17 15 14 14
3 5 3 4 3 5 4 5 6 7 7 6 7 7 11 12 10 10 14 11 9 9 8 8 7 6 8 9 15 20 21 19 20 21 24 25 25 30 26 21 18 16 13 13
5 6 4 3 4 6 6 3 7 6 5 16 17 15 15 17 4 5 20 14 11 10 8 8 7 7 9 13 18 19 20 22 24 24 23 25 29 23 21 20 16 14 14 12
2 3 5 2 4 8 7 6 7 5 7 21 25 26 24 9 14 5 16 13 12 10 10 8 7 8 13 18 20 21 22 23 23 23 26 25 20 20 20 17 13 14 12 11
7 6 4 3 1 8 12 5 8 6 7 23 25 28 31 27 12 10 12 14 12 11 8 6 8 14 18 20 21 22 22 22 24 27 26 21 20 20 21 15 14 11 10 11
3 7 5 10 6 4 19 9 21 10 9 23 24 26 24 19 14 13 14 13 12 9 6 9 14 18 19 20 21 22 22 25 28 27 21 19 19 20 16 14 14 12 10 11
4 7 3 2 5 15 15 27 16 19 20 18 23 22 21 17 14 14 15 14 9 6 8 13 17 19 21 21 21 21 24 25 25 26 15 17 20 17 15 14 13 11 11 11
4 8 4 5 10 12 16 20 26 26 20 16 18 20 18 15 15 18 16 10 6 7 11 16 19 20 21 20 21 24 25 24 24 21 18 21 21 14 12 11 9 11 13 14
9 7 4 7 15 11 12 14 17 20 23 22 22 20 18 17 20 16 9 4 7 10 14 17 18 20 20 21 24 25 25 23 22 22 20 17 16 12 9 10 11 13 15 15

GFSCGP_850_spd_018.txt.gz
Wind_Speed
6 7 2 2 2 3 4 4 3 1 4 8 5 6 9 15 15 12 12 11 9 8 6 8 9 11 14 16 20 19 15 12 7 6 9 13 3 9 6 4 9 16 19 18
7 3 2 3 4 6 5 8 4 3 6 8 9 10 8 15 8 10 14 15 15 16 14 13 12 8 7 7 8 6 7 7 7 7 2 5 5 6 9 13 16 18 19 20
7 1 0 2 5 8 5 6 1 4 5 5 5 6 7 7 14 17 19 22 24 25 24 23 19 17 18 18 18 18 15 12 10 9 7 7 9 9 13 17 20 21 20 20
6 3 3 6 6 4 3 3 5 5 4 3 3 2 3 2 5 5 13 19 21 20 21 21 23 23 20 18 16 15 12 9 7 5 5 8 11 13 16 18 18 17 17 20
1 2 6 7 2 3 2 5 5 3 4 4 4 5 3 6 2 4 7 14 18 20 22 24 25 19 18 15 12 10 7 3 0 3 6 9 11 12 14 13 15 18 21 22
3 2 4 1 3 3 3 5 8 5 3 2 1 4 4 6 7 5 10 14 18 20 22 20 20 20 18 15 10 8 5 1 2 5 6 9 10 10 11 14 15 18 21 24
6 4 5 3 3 3 6 6 3 3 3 4 3 2 5 10 7 11 17 20 19 19 20 20 19 16 14 12 9 6 3 2 3 4 8 10 12 14 16 16 18 22 24 25
4 4 4 5 2 4 3 5 5 5 3 3 3 4 4 4 17 26 23 21 20 21 20 17 15 14 12 11 10 6 1 5 7 8 10 12 13 14 14 15 18 22 25 26
4 1 3 2 2 3 2 3 3 6 2 3 2 4 3 5 6 16 19 19 21 21 19 19 18 17 15 12 6 2 5 5 7 9 11 12 16 17 16 18 22 25 28 27
5 4 3 2 2 7 2 5 3 3 3 3 3 4 4 6 8 6 11 21 22 21 23 22 20 16 10 5 3 6 13 9 12 14 15 18 21 18 19 25 29 27 24 24
3 4 4 1 4 2 3 2 6 5 3 4 1 5 5 13 12 11 19 26 28 28 27 23 18 12 7 2 6 14 11 9 12 15 16 17 18 23 28 25 22 22 25 22
1 5 2 2 2 2 2 3 4 4 3 1 3 5 3 8 12 20 24 29 29 28 24 19 14 9 6 9 11 7 6 8 11 14 15 17 22 25 20 20 25 25 29 23
4 2 3 6 5 4 2 3 4 5 3 4 4 5 2 5 11 16 24 28 28 23 19 15 10 8 6 5 6 5 7 10 13 13 16 21 24 21 21 24 27 30 30 23
4 3 5 6 4 2 3 4 4 5 3 3 6 4 4 6 8 13 20 23 25 21 17 12 10 9 8 7 7 8 9 11 11 16 20 23 22 21 24 25 26 31 27 21
3 4 2 1 3 2 2 4 6 7 5 6 5 7 7 12 12 22 25 25 23 20 15 11 9 7 6 9 11 9 10 11 15 19 23 21 20 20 22 24 27 31 23 20
3 2 2 1 3 5 4 6 6 5 4 7 5 11 8 7 18 19 27 29 24 19 14 10 9 8 11 10 10 10 11 14 19 22 21 21 21 19 23 25 31 26 20 20
3 5 3 4 3 5 6 9 11 6 5 7 7 9 6 5 15 25 29 27 23 18 13 12 10 10 9 9 10 11 13 18 21 21 20 20 19 22 24 28 25 22 20 18
5 4 3 2 3 2 6 2 3 8 4 8 3 4 8 7 14 21 25 26 21 16 13 12 10 9 10 10 11 13 16 20 21 19 21 19 20 23 28 26 22 21 20 20
4 4 3 4 3 6 5 5 7 8 8 9 7 4 7 7 10 13 22 20 17 14 12 10 9 11 10 10 11 15 19 22 21 21 20 19 22 27 26 22 22 21 16 16
5 6 4 2 3 6 6 3 4 4 5 10 15 12 14 14 3 8 24 22 17 13 13 11 12 12 10 10 14 19 22 22 20 19 20 23 25 25 22 21 22 15 14 17
3 3 5 3 3 8 8 4 4 5 7 8 20 22 22 7 17 8 11 21 19 15 14 13 12 10 9 13 17 20 20 19 19 21 24 27 24 21 20 21 18 15 16 16
7 6 4 3 2 8 8 4 7 6 5 13 21 23 29 26 20 12 10 19 18 16 13 12 9 8 12 16 18 19 19 21 22 25 27 27 21 18 19 19 16 15 14 13
2 6 4 9 6 4 18 8 19 5 8 15 19 17 27 27 19 15 14 15 16 14 12 9 7 10 15 17 19 21 21 23 24 25 25 24 16 19 21 17 16 15 14 14
4 6 3 2 4 12 19 23 31 19 23 22 19 22 23 28 22 19 18 19 14 11 7 6 11 15 17 18 19 20 22 24 25 24 24 21 18 20 21 16 14 14 13 15
4 7 4 5 12 18 22 23 21 24 29 31 25 21 24 22 21 20 20 11 14 9 5 10 14 16 17 19 20 22 24 26 24 21 21 20 19 18 18 13 11 10 12 15
10 7 4 6 21 13 18 22 20 18 19 21 22 20 19 18 18 16 10 11 7 4 9 12 14 16 19 21 23 24 26 23 21 21 19 20 18 14 14 12 11 12 14 16

GFSCGP_850_spd_021.txt.gz
Wind_Speed
2 3 4 3 2 3 5 4 5 3 1 7 6 6 9 7 9 7 8 10 10 9 9 10 8 8 10 8 12 16 15 11 10 3 6 10 5 3 0 2 6 9 14 16
4 3 2 5 6 6 4 7 4 5 3 5 5 9 8 9 3 3 7 9 10 12 11 10 9 8 7 9 10 12 4 11 13 11 10 4 5 3 3 6 10 15 17 16
4 1 2 5 4 10 3 5 4 4 6 6 4 4 4 5 6 5 7 11 14 18 21 19 18 17 18 16 15 17 16 15 13 10 8 4 2 5 8 11 13 15 14 14
4 2 4 3 4 2 4 1 7 11 3 3 2 3 1 2 4 5 9 14 18 23 23 24 25 24 24 21 20 20 18 17 14 9 5 2 5 8 11 12 12 12 14 16
1 2 3 5 1 1 3 3 5 3 4 3 1 1 2 5 6 9 11 11 14 21 24 26 25 23 22 21 20 18 15 12 8 4 3 6 8 8 9 10 12 13 15 18
3 1 3 2 2 4 9 5 6 3 2 1 1 3 5 9 13 13 11 11 17 23 24 24 22 21 21 19 17 15 11 8 5 4 5 7 7 9 10 11 13 15 20 22
4 3 2 1 3 2 3 4 1 0 0 4 1 3 5 12 10 19 20 19 21 24 24 23 21 20 19 17 15 14 10 7 2 3 5 7 9 12 14 14 15 18 21 25
3 0 3 5 2 3 3 2 4 4 3 1 1 5 2 3 14 22 21 20 23 24 22 20 19 18 17 17 15 12 8 2 1 4 7 9 12 13 11 13 16 20 26 27
3 1 2 3 1 0 3 2 2 6 1 1 2 3 5 1 7 15 19 21 22 24 24 21 18 17 18 17 14 8 4 4 5 9 8 8 10 11 13 18 24 26 24 24
5 3 1 1 1 7 1 7 2 2 3 3 2 5 6 5 12 13 17 22 23 25 24 21 19 20 19 15 10 4 4 7 11 5 6 8 10 15 21 25 23 21 23 26
3 3 2 1 1 4 3 2 5 4 1 3 2 4 4 10 15 18 23 24 27 28 25 23 23 21 16 11 6 3 4 8 6 4 7 9 14 20 24 20 18 21 25 27
1 4 3 1 1 1 1 3 4 3 4 1 0 5 1 5 12 16 20 22 24 26 25 25 23 18 13 10 4 2 7 5 7 6 9 13 18 22 21 19 19 22 27 28
5 1 3 2 2 1 2 3 4 5 2 5 4 4 1 3 7 15 18 19 23 25 26 26 21 16 13 8 3 4 9 9 6 9 12 16 21 21 18 16 19 25 29 28
3 3 4 6 3 1 4 4 5 3 3 4 6 5 4 5 7 12 18 21 23 26 28 25 20 16 12 8 6 10 9 7 10 11 16 20 19 18 18 19 23 27 29 25
2 4 2 1 1 2 2 4 9 8 4 6 3 8 7 10 12 17 14 18 23 27 27 24 20 15 10 8 9 12 11 11 10 15 19 20 19 21 20 21 26 28 25 22
2 4 2 4 0 2 3 6 8 8 4 11 6 15 10 7 9 13 20 23 27 29 27 23 17 14 12 8 11 13 13 10 14 17 21 19 20 20 20 24 26 25 22 21
2 5 3 3 3 2 5 10 12 6 6 9 11 10 5 5 11 18 23 28 30 31 28 23 18 16 9 11 12 13 11 13 16 20 21 20 20 19 21 24 25 22 21 20
4 4 2 1 2 2 4 2 3 12 8 14 6 4 6 5 8 11 18 29 32 30 26 21 18 15 12 13 12 12 12 14 18 21 21 20 19 20 23 25 22 21 21 17
3 4 3 3 3 6 5 4 6 7 6 11 15 7 4 4 2 9 14 20 26 27 23 18 16 13 13 12 12 11 12 17 20 21 20 19 20 22 24 24 21 20 19 12
5 5 3 3 3 5 5 1 4 4 4 2 11 8 9 10 2 5 14 21 24 23 20 19 16 14 13 12 11 11 15 18 19 19 19 20 22 25 25 21 20 20 16 15
2 2 3 2 3 7 6 1 4 2 5 3 10 14 17 7 12 6 6 21 23 21 18 16 14 12 11 9 10 14 16 17 18 18 20 22 23 25 20 18 20 17 15 14
5 6 3 3 1 6 6 5 4 4 5 7 12 17 23 15 13 14 9 18 23 20 19 17 11 10 10 9 13 15 15 16 17 20 21 23 24 23 18 17 20 19 16 14
3 4 3 8 5 4 12 10 10 12 10 9 13 17 20 19 21 17 16 20 22 22 20 12 12 10 8 11 13 14 14 17 19 21 23 24 24 21 17 19 19 18 15 15
3 6 3 1 3 11 19 20 25 27 27 26 24 20 19 23 22 18 18 20 22 19 13 13 10 8 9 11 13 15 17 19 21 24 24 22 22 21 19 19 17 15 14 13
3 7 4 4 12 15 14 16 14 14 17 21 23 22 24 20 20 23 23 25 17 11 13 9 8 8 10 11 13 15 18 21 23 23 21 20 20 20 20 15 14 14 13 13
9 6 4 5 18 9 15 17 20 20 18 15 17 19 18 15 19 23 27 21 14 14 10 7 8 10 10 12 13 16 20 21 21 20 18 19 17 19 18 15 15 14 15 15

GFSCGP_850_spd_024.txt.gz
Wind_Speed
6 5 8 6 8 3 3 6 11 8 5 4 6 7 4 6 10 11 13 13 13 11 9 11 12 13 13 14 15 13 14 14 5 9 10 10 13 9 5 4 3 7 10 12
6 0 4 3 4 5 6 9 8 5 4 4 7 5 4 4 6 8 11 13 12 10 9 10 10 12 12 14 16 12 11 10 13 15 14 11 9 7 6 7 9 9 10 11
3 7 2 5 8 9 5 5 10 7 7 2 9 7 7 4 5 6 7 8 9 10 11 12 13 13 13 15 15 14 15 15 16 14 11 8 8 4 4 4 7 11 11 11
3 2 8 8 6 3 6 1 9 13 12 7 8 6 8 6 6 7 9 11 11 13 14 15 16 16 15 14 15 16 17 16 16 13 9 8 6 5 4 4 4 5 13 14
3 3 6 5 2 2 4 6 8 5 4 5 10 8 9 8 9 11 14 16 17 16 17 17 16 15 15 16 17 17 17 15 15 12 9 7 4 2 1 3 6 8 10 13
4 2 2 4 5 1 11 8 5 2 3 6 3 6 6 8 13 15 18 17 18 19 18 17 16 16 17 16 17 18 16 15 12 10 7 4 2 2 2 4 7 10 12 15
6 4 4 3 9 5 5 9 3 4 4 7 2 6 12 1 5 18 21 21 21 20 20 18 18 17 17 17 16 15 14 13 10 6 3 2 3 5 5 7 9 12 15 18
9 6 4 1 3 3 7 6 4 5 4 3 3 6 0 2 7 16 22 22 23 22 20 20 19 18 17 17 16 14 13 11 8 3 3 7 8 4 6 8 11 13 14 14
5 4 4 2 2 2 6 6 2 2 1 3 5 4 8 4 9 17 23 24 25 24 22 20 19 17 17 17 16 14 12 8 4 5 3 4 6 6 7 11 11 11 12 14
4 4 3 5 2 7 3 8 3 3 3 4 3 6 3 8 13 15 21 26 26 24 22 21 19 18 17 16 15 13 9 4 1 4 5 5 5 8 13 10 10 10 12 16
5 3 5 3 6 5 4 4 1 0 2 2 3 0 3 0 10 16 23 27 27 25 24 21 19 18 18 17 15 12 7 3 0 6 7 5 4 9 11 10 11 11 14 17
2 1 4 6 3 2 2 5 7 4 4 1 2 3 3 1 4 14 20 24 25 24 23 22 21 20 20 19 16 12 9 4 6 9 6 4 10 9 11 12 12 13 15 18
6 4 4 5 4 5 7 8 5 4 1 6 3 2 3 3 5 11 16 20 22 23 23 23 23 23 21 19 17 14 7 6 9 8 7 7 10 12 13 13 13 14 17 19
4 3 6 7 1 1 6 11 11 10 4 4 9 9 7 7 7 9 15 20 23 24 25 25 25 24 22 19 19 13 9 9 12 9 8 11 13 14 14 14 15 15 18 19
3 5 4 2 1 3 4 7 13 16 13 7 9 11 10 6 8 10 11 17 21 23 25 27 26 24 22 20 20 11 13 14 12 11 11 13 14 15 15 14 14 16 18 16
2 3 2 3 2 3 7 10 12 15 16 14 19 19 15 11 9 10 13 17 21 23 24 26 26 24 22 20 18 12 13 14 13 13 12 15 20 15 13 13 15 17 17 16
3 5 3 2 2 3 6 15 17 12 12 14 14 16 7 5 9 11 12 17 20 22 25 27 27 24 21 20 14 12 14 14 15 12 16 17 16 14 13 14 16 17 16 16
5 5 1 0 1 3 1 1 3 12 16 15 18 16 10 8 3 7 9 14 18 21 23 25 23 21 19 16 12 15 14 15 13 16 17 14 12 13 14 15 16 16 16 16
1 4 3 2 4 7 12 3 3 5 6 5 12 12 9 6 4 13 11 13 15 18 20 21 20 18 17 15 14 16 13 11 15 15 13 13 15 15 15 16 16 15 15 14
4 3 2 3 3 4 3 4 2 3 5 6 4 5 7 8 4 5 3 10 11 13 16 19 19 21 18 13 15 11 11 13 13 15 15 16 15 15 16 16 15 13 13 13
2 0 4 4 4 6 1 3 4 3 3 6 5 5 10 7 9 5 6 9 12 15 20 22 23 20 18 17 10 14 12 12 14 16 16 15 14 15 16 15 12 13 13 13
5 6 3 3 3 5 6 6 3 4 6 7 9 8 12 12 7 7 7 12 16 18 17 18 22 21 18 12 14 9 9 13 14 16 16 15 14 15 14 13 13 13 13 12
3 4 1 6 2 3 9 7 5 6 11 14 12 12 12 15 14 11 10 11 13 17 18 18 10 10 8 9 10 9 11 12 15 17 17 14 14 14 13 14 15 14 13 13
4 5 3 2 2 8 9 12 13 12 14 15 16 16 15 17 16 13 11 14 17 18 18 23 18 10 7 11 11 10 12 14 16 18 15 14 14 15 15 15 13 11 12 12
2 8 4 5 12 10 9 8 7 10 12 14 14 13 12 13 14 12 11 13 14 15 13 10 10 7 8 8 8 12 13 15 17 16 15 14 13 14 15 14 13 11 13 13
5 1 3 4 9 6 10 10 16 14 13 12 12 11 10 8 5 7 11 13 20 17 14 8 3 7 9 10 10 12 14 16 16 16 14 12 14 14 16 14 14 16 15 17

GFSCGP_850_spd_027.txt.gz
Wind_Speed
8 8 11 11 9 5 10 3 7 13 4 9 9 10 10 12 15 17 19 19 18 16 14 12 13 14 15 17 18 23 20 15 17 15 9 11 10 10 7 5 7 4 4 4
7 11 9 5 5 12 8 5 11 8 9 6 9 9 8 9 14 17 18 18 18 18 13 13 13 14 16 18 20 16 15 14 10 8 11 12 12 8 8 6 4 3 5 7
7 6 5 8 7 12 7 9 7 10 11 13 9 14 13 10 10 11 15 17 18 19 16 15 15 16 16 18 17 14 13 11 12 14 14 13 11 9 6 3 1 5 6 4
10 12 12 10 7 5 6 0 7 5 12 14 17 11 11 15 14 14 17 16 15 15 16 16 16 16 16 16 15 14 15 15 16 15 11 11 7 8 7 3 4 3 6 5
9 7 11 11 3 5 10 4 7 8 14 8 20 9 12 18 14 15 16 17 15 17 18 18 19 17 15 18 17 16 17 16 14 11 11 9 6 3 3 1 3 6 7 9
13 1 5 7 2 2 5 5 5 8 10 8 15 11 7 14 13 14 15 16 19 20 20 20 20 19 18 17 18 18 17 15 14 13 11 11 9 6 4 3 7 8 9 10
8 6 3 4 7 4 8 8 7 6 5 9 3 6 11 6 3 13 17 20 20 21 22 22 21 20 20 20 19 18 17 16 14 12 10 9 6 4 6 4 6 7 9 11
12 9 11 6 6 4 8 10 6 6 7 9 7 7 1 9 4 7 20 21 21 23 22 20 20 19 19 19 18 18 17 16 14 12 11 7 4 3 2 5 6 7 8 8
11 6 7 0 2 5 5 8 6 5 1 6 11 15 10 5 5 10 19 21 23 23 23 21 21 19 19 19 20 19 18 16 14 13 8 6 5 5 5 6 7 7 7 9
1 2 3 4 4 5 8 3 4 6 4 8 5 6 3 6 7 10 16 21 23 24 23 22 22 20 20 20 20 20 19 18 15 10 6 4 4 6 6 7 8 8 8 10
3 7 7 5 10 10 7 9 7 5 3 4 4 1 8 3 6 10 15 21 22 24 24 23 23 21 21 21 21 21 20 18 14 11 6 9 6 8 7 9 9 10 11 12
4 4 6 12 5 5 9 8 10 6 6 3 4 5 3 4 3 10 13 18 22 25 25 25 23 23 23 23 22 22 21 18 15 8 8 4 10 9 10 11 12 13 13 14
6 7 8 6 7 8 8 10 8 5 2 9 3 3 6 6 3 6 11 16 21 24 25 25 25 25 25 25 25 23 21 19 12 9 4 12 12 10 11 13 14 14 15 16
0 12 10 9 5 2 7 12 11 11 7 9 11 11 7 9 7 7 9 13 19 23 25 26 26 26 25 25 26 23 22 16 10 5 10 14 13 12 13 14 15 15 15 16
4 9 13 14 5 6 8 8 12 17 16 12 12 14 10 9 7 9 9 12 17 19 22 25 26 26 26 26 26 24 22 15 10 12 14 15 14 13 13 14 15 14 15 16
5 6 3 6 7 7 10 12 14 14 16 17 18 17 15 9 12 7 11 10 14 17 21 23 26 27 27 27 26 25 21 15 10 14 16 13 13 13 13 14 14 15 16 16
5 4 3 4 3 5 6 17 18 17 16 12 15 16 14 8 7 9 10 10 12 14 18 22 25 27 27 26 24 25 21 13 14 15 14 12 12 13 13 12 14 16 17 17
5 7 1 0 1 1 2 2 4 6 12 14 13 14 13 12 7 10 9 9 10 13 16 19 22 23 24 23 23 22 16 14 15 14 12 11 11 12 12 13 15 16 17 17
4 4 2 2 6 9 12 5 1 2 5 8 7 9 11 7 7 16 12 6 8 12 15 16 18 20 20 21 21 19 16 15 12 12 10 10 10 11 12 15 16 16 17 16
3 1 4 3 3 4 4 4 2 1 5 7 9 10 9 3 6 6 1 4 7 9 11 13 15 17 18 19 18 17 15 13 11 9 9 9 12 13 14 15 16 16 15 15
2 1 6 5 3 6 3 3 2 4 3 9 10 11 9 7 8 9 10 11 10 10 10 11 13 16 17 16 14 10 7 5 6 8 12 15 13 13 14 14 14 15 15 16
6 7 3 3 3 5 7 7 2 5 8 10 11 12 11 13 16 15 14 12 10 9 7 8 9 10 13 13 14 7 2 5 9 14 18 12 12 13 14 14 15 15 16 17
4 5 2 6 2 4 6 5 5 6 8 10 12 14 14 16 17 18 16 13 9 6 7 7 12 13 12 9 4 3 2 11 13 15 12 12 13 13 14 15 16 17 16 17
4 3 3 1 2 3 5 7 5 6 9 12 14 15 16 17 16 16 14 7 3 5 8 10 12 11 8 5 6 2 8 13 12 12 13 13 13 13 14 15 15 17 17 16
3 7 5 5 10 7 6 4 5 12 13 12 12 12 12 12 14 13 5 3 8 11 12 11 9 7 6 2 3 7 11 11 11 12 13 14 14 13 15 15 16 16 17 17
5 2 3 3 6 5 9 13 9 9 8 8 8 8 8 10 6 4 9 10 11 11 12 10 8 5 2 4 9 11 11 11 12 14 14 15 17 17 15 17 19 17 20 19

GFSCGP_850_spd_030.txt.gz
Wind_Speed
11 8 8 15 8 10 13 9 17 16 11 8 12 15 14 17 16 19 21 21 20 18 16 16 16 16 18 21 19 18 23 21 24 22 18 11 6 5 6 5 6 5 3 3
8 8 5 16 11 12 15 12 4 7 6 4 10 8 13 14 18 21 21 23 24 21 21 17 16 17 15 22 22 18 22 15 18 15 9 5 7 8 8 9 6 6 4 4
4 10 10 19 10 14 15 2 5 8 9 10 7 13 14 12 12 17 22 22 23 24 22 18 18 18 20 20 19 16 18 11 12 11 13 13 11 15 13 4 3 6 4 4
12 13 12 8 12 10 8 13 8 9 11 7 7 7 7 9 11 14 22 24 25 25 23 19 19 23 19 18 16 17 15 14 14 16 15 16 13 12 10 11 13 3 10 11
8 11 14 17 5 9 3 13 13 10 7 4 10 5 11 18 10 16 16 16 19 20 20 22 25 24 20 18 20 18 18 17 19 18 17 15 14 18 15 12 7 4 7 5
8 10 14 4 13 9 9 10 10 8 5 2 15 9 8 13 18 8 17 19 18 16 17 19 22 15 20 21 20 20 20 21 18 16 16 17 15 12 10 8 5 3 10 9
9 14 9 13 10 5 8 8 3 7 5 4 12 7 2 20 11 17 29 20 16 19 20 21 23 26 22 24 21 24 23 19 19 19 20 21 20 17 13 8 3 10 10 12
2 11 9 10 9 3 13 8 2 5 5 8 3 5 4 11 10 19 22 20 20 20 21 22 22 21 24 26 25 24 23 22 21 19 17 17 16 12 3 8 10 14 12 15
3 5 16 3 1 3 6 2 2 4 6 2 6 16 6 6 7 13 19 18 20 21 22 22 22 23 23 24 24 24 24 22 21 20 19 18 14 12 12 12 17 11 12 11
6 8 21 6 4 4 5 7 4 1 2 4 8 10 7 7 6 5 14 17 18 22 24 23 23 23 23 23 23 24 24 23 22 22 22 18 13 10 10 10 7 12 13 12
10 21 8 6 7 8 5 6 6 7 5 1 4 3 6 7 6 6 9 20 22 24 25 25 24 24 22 22 23 25 25 24 27 24 22 17 13 11 8 4 10 12 14 15
6 3 5 10 0 5 8 9 11 3 6 2 1 6 4 4 5 6 8 13 22 24 25 26 25 24 23 22 24 24 25 25 25 21 20 16 13 9 8 10 11 13 16 16
1 2 5 11 6 7 8 10 10 6 3 4 3 3 5 4 2 2 6 10 14 21 23 25 27 27 24 24 26 26 26 25 22 22 19 15 10 10 14 11 14 16 15 16
5 6 9 7 9 6 12 11 11 10 3 4 8 12 7 10 9 7 10 7 9 18 20 23 26 29 28 26 27 26 28 25 26 20 17 11 12 14 13 14 17 16 16 17
2 9 11 14 16 1 10 8 8 12 11 10 10 13 11 10 9 13 3 5 9 12 16 21 21 24 27 27 26 26 29 27 25 20 14 15 11 15 17 16 15 15 17 18
5 5 4 8 9 10 12 13 12 14 13 12 15 13 10 10 6 9 11 9 8 8 15 13 17 17 20 25 27 27 27 25 24 19 16 18 17 16 14 13 16 17 16 16
7 2 2 2 6 7 6 10 16 15 14 11 11 9 8 11 11 10 6 8 7 8 11 12 12 16 20 23 24 27 25 24 22 16 17 12 15 16 12 13 11 14 17 18
4 5 2 0 2 1 8 4 5 5 7 9 9 10 13 15 14 10 10 8 7 9 7 10 13 15 16 17 19 23 19 21 18 14 14 13 10 8 13 14 16 14 16 18
2 4 2 2 4 7 11 1 2 2 3 11 10 10 11 11 12 8 7 5 5 8 12 13 12 11 11 12 14 16 19 14 12 10 13 10 10 11 13 16 12 16 18 18
2 3 3 3 2 4 0 5 3 2 2 9 9 8 10 13 4 4 11 9 9 12 12 11 10 10 9 12 14 14 12 12 13 10 4 7 12 13 18 13 18 19 18 17
2 0 4 3 2 6 2 5 1 2 3 4 6 9 10 6 11 11 10 13 13 13 11 7 3 1 6 7 10 14 15 9 2 3 1 7 14 16 14 17 17 17 16 17
6 6 3 2 2 6 6 6 1 4 5 9 8 10 10 10 13 15 15 16 8 10 3 6 7 9 10 15 13 11 11 7 5 2 10 12 15 17 14 17 17 17 19 17
4 5 3 7 4 5 6 5 3 4 4 6 9 11 13 14 14 15 15 14 4 4 8 7 11 13 11 11 9 8 5 3 5 6 11 15 15 14 14 16 18 21 17 22
5 4 2 2 3 5 5 3 1 7 9 10 11 12 12 12 12 14 13 7 8 10 14 12 10 7 3 4 2 4 4 0 6 10 15 14 13 14 18 19 14 16 19 24
0 9 6 5 7 5 10 13 10 9 8 8 10 10 12 11 11 8 12 14 15 14 12 7 4 6 6 4 1 1 2 8 13 12 12 13 16 17 17 17 14 17 19 20
8 2 3 1 9 3 11 11 9 11 11 11 10 11 13 14 15 11 14 9 6 5 2 1 2 2 2 0 2 7 10 11 12 13 14 15 16 17 16 15 20 24 22 21

GFSCGP_850_spd_033.txt.gz
Wind_Speed
3 3 3 3 5 5 5 4 6 10 7 10 11 6 9 17 23 24 28 30 28 27 25 23 25 28 29 28 26 26 25 25 25 30 28 19 11 10 10 10 11 9 8 7
6 5 3 6 7 12 15 7 9 13 6 4 8 10 10 10 13 28 30 31 29 25 28 25 27 30 33 32 31 27 24 26 26 33 26 19 13 12 13 11 10 10 9 9
4 8 8 3 9 15 6 4 11 2 0 2 3 3 4 5 19 27 33 34 34 34 33 31 22 27 35 34 30 24 19 19 26 28 20 14 11 16 15 12 12 12 10 6
2 7 7 6 13 11 5 10 8 3 1 3 3 1 4 6 2 2 21 31 35 36 34 34 27 25 28 30 25 20 15 17 20 23 20 22 21 21 16 12 12 11 5 6
5 3 5 4 9 3 8 7 5 5 3 2 1 5 5 2 5 7 8 18 34 38 39 32 32 28 24 22 21 16 16 19 22 23 25 25 20 20 18 18 15 6 4 5
8 7 4 4 8 9 13 3 3 3 2 2 6 4 3 4 17 6 21 16 11 30 34 31 31 31 28 22 17 21 21 21 22 22 24 27 25 26 24 24 16 11 13 12
4 8 6 4 4 8 4 2 3 5 5 5 9 2 9 15 9 14 18 25 13 26 26 29 32 31 28 24 24 26 23 25 28 29 25 27 25 27 26 21 18 13 13 17
5 2 1 3 9 5 2 4 5 4 2 4 11 6 5 16 23 29 30 21 17 17 19 21 27 24 20 24 25 25 29 30 32 31 28 27 24 23 22 21 16 13 14 17
3 1 4 8 9 2 4 5 7 6 3 3 5 6 5 8 8 10 15 17 20 19 21 22 22 20 20 25 25 27 28 30 29 30 30 30 27 24 21 18 16 15 18 17
5 3 1 21 15 9 4 3 4 3 3 4 3 1 1 5 6 7 12 23 23 24 26 27 23 22 23 27 28 30 26 27 28 28 29 28 24 21 17 17 17 16 15 13
6 4 4 4 5 8 2 2 2 3 5 4 1 4 1 5 8 10 15 29 32 32 31 29 27 25 26 26 25 24 25 26 27 27 27 25 20 17 17 17 13 7 10 19
9 5 4 12 16 6 4 4 6 5 4 2 4 5 2 5 8 14 18 29 32 34 34 33 31 31 31 30 27 25 29 26 28 29 29 25 19 17 15 11 8 15 13 16
2 2 2 6 5 4 3 5 4 3 3 4 5 5 3 4 1 7 10 12 31 33 33 35 35 36 36 33 32 31 30 31 28 31 30 23 18 15 11 13 17 13 14 16
4 2 6 6 6 1 3 4 5 4 4 3 5 5 12 7 8 8 12 6 14 31 33 35 38 39 40 40 37 33 33 32 32 31 27 21 16 11 16 14 12 10 19 19
4 4 1 5 6 4 4 5 5 5 6 7 8 6 11 1 7 14 7 5 5 5 11 25 34 39 37 37 34 32 33 35 37 33 28 20 14 15 9 13 16 20 18 18
1 2 2 2 6 7 4 5 8 6 5 1 5 7 6 6 11 14 12 12 9 6 6 10 6 24 29 33 33 33 34 36 38 35 25 16 17 15 15 21 20 14 19 16
6 4 3 3 4 6 6 6 7 5 4 4 4 4 8 9 11 12 10 10 16 10 9 8 8 6 13 19 22 31 32 34 32 24 17 16 16 15 9 11 11 14 16 21
6 5 3 3 3 1 8 1 5 6 6 8 9 7 10 11 23 23 18 17 15 12 11 12 10 10 11 10 20 21 25 29 23 13 13 10 12 11 7 5 9 16 18 19
4 5 2 4 3 5 6 3 2 4 4 5 8 8 15 14 13 18 16 16 14 12 12 11 9 8 6 4 12 21 23 19 16 17 15 10 8 7 3 4 14 17 21 24
6 5 5 2 4 6 6 3 5 4 1 5 13 9 11 12 4 4 11 11 11 10 7 4 4 2 7 15 21 23 21 20 22 16 14 9 6 5 6 12 12 19 24 25
3 3 5 2 2 7 5 6 2 6 6 9 11 11 10 3 1 8 12 9 3 5 3 3 5 8 15 17 19 22 24 22 14 11 8 2 7 10 7 13 17 20 20 18
6 6 3 3 2 6 9 4 6 6 12 10 9 10 10 7 8 10 11 6 5 6 6 6 9 13 15 15 16 19 18 12 6 3 10 11 6 8 15 17 15 18 20 21
2 6 6 7 6 9 9 13 15 14 17 13 13 12 7 9 11 11 10 10 10 8 8 7 7 8 7 4 3 2 4 11 16 17 6 6 11 15 11 12 16 21 23 24
2 7 3 5 2 2 11 25 22 18 16 13 11 7 6 8 5 9 13 14 12 10 8 7 6 6 7 8 10 12 8 4 3 3 7 12 12 13 15 18 21 19 17 21
5 6 5 2 11 22 19 19 17 15 14 12 9 8 11 7 11 10 11 11 9 8 8 8 9 8 6 4 4 4 4 6 9 11 11 12 13 15 17 17 16 14 17 22
3 5 4 4 6 16 13 17 12 12 13 11 7 9 9 7 9 8 11 11 10 8 8 9 10 7 6 5 6 8 10 13 14 14 14 15 16 17 17 17 18 17 23 25

GFSCGP_850_spd_036.txt.gz
Wind_Speed
0 5 2 5 5 6 3 3 9 7 5 6 9 8 8 19 20 22 24 33 36 38 38 37 36 35 36 35 32 35 35 33 31 32 31 27 23 17 11 9 12 14 13 12
4 2 3 6 1 2 8 7 8 8 7 9 7 6 6 14 20 27 31 33 39 38 40 40 40 40 38 35 32 29 32 33 32 29 28 26 23 16 11 11 13 13 12 11
5 6 1 3 2 5 4 6 4 5 6 3 7 5 2 4 13 24 31 42 41 41 44 42 45 44 41 40 34 28 29 31 30 28 28 27 23 17 18 16 16 15 12 10
4 3 3 3 2 1 7 13 8 7 2 1 3 2 4 4 7 12 23 29 38 40 43 41 42 44 44 40 34 30 27 28 29 28 32 30 25 25 22 19 16 16 13 13
6 6 3 3 5 4 10 4 4 6 2 4 3 4 6 2 6 8 19 29 33 43 47 44 43 43 43 39 35 32 28 23 26 29 33 31 26 22 21 21 19 18 19 19
1 3 4 6 5 4 3 4 5 4 3 1 3 4 5 4 12 5 15 29 38 37 36 42 39 36 36 36 32 32 30 24 26 27 34 32 27 23 24 26 24 22 21 18
1 4 2 2 5 4 4 5 4 4 4 5 5 4 8 9 12 10 14 16 24 40 39 38 36 33 33 34 28 29 24 26 27 29 31 31 30 28 28 29 28 25 22 19
5 3 1 2 4 3 4 5 5 4 3 4 4 5 6 8 18 20 14 13 14 32 40 39 37 35 33 32 27 23 26 26 28 30 30 30 32 33 30 30 27 22 19 19
4 2 4 4 4 4 6 3 4 7 3 3 3 6 6 6 6 5 7 13 21 28 34 36 34 36 34 28 22 24 27 26 28 29 27 29 30 28 26 24 20 18 17 15
7 3 4 6 2 4 7 3 3 3 3 2 4 4 4 1 4 2 3 10 21 25 29 31 31 31 28 23 22 26 25 28 28 30 28 26 27 26 24 23 19 16 16 16
6 4 4 1 5 7 1 1 2 4 5 4 1 5 5 7 7 10 13 21 24 27 28 27 26 27 25 22 22 24 27 29 30 33 32 30 27 24 22 19 18 17 16 14
7 5 4 11 3 2 4 7 6 5 4 1 4 5 4 8 9 14 18 23 28 33 31 30 31 31 30 28 27 28 29 33 36 36 34 32 29 26 25 21 19 21 20 21
8 2 2 5 7 4 5 6 4 5 4 5 5 5 3 4 4 17 25 27 32 35 35 35 35 36 37 36 33 35 36 36 37 36 34 33 29 28 23 24 27 25 20 13
12 5 7 7 6 4 3 3 2 5 4 5 6 5 7 8 7 8 12 18 30 35 37 38 39 39 39 38 37 39 39 35 34 35 37 36 36 29 27 28 25 15 11 10
4 5 4 4 3 2 3 4 5 5 5 6 9 8 9 4 3 1 10 5 4 17 25 30 33 38 41 41 41 41 38 34 35 35 36 33 25 22 26 22 14 14 12 8
2 3 2 2 3 2 2 4 4 5 3 6 5 3 5 8 13 16 13 15 16 13 10 9 6 20 36 38 37 39 38 38 38 38 36 25 18 18 14 12 12 12 14 14
6 6 3 4 4 3 5 7 7 5 3 5 5 5 3 6 8 8 15 19 17 16 15 13 10 7 4 14 26 31 35 39 38 35 29 23 23 22 22 16 13 10 1 7
6 5 2 3 3 2 7 4 4 9 6 6 9 5 8 15 20 21 16 16 14 12 8 6 7 8 4 6 19 29 31 32 29 24 19 18 19 15 13 11 5 9 13 13
4 5 3 4 3 5 7 4 6 6 0 1 7 5 11 17 20 13 11 10 10 7 4 4 8 11 11 7 10 19 23 26 27 24 22 20 21 20 6 2 15 18 8 15
7 5 4 3 4 7 7 3 7 6 1 6 11 5 7 7 3 3 5 2 2 2 1 4 5 3 5 7 11 18 23 28 28 28 27 23 17 4 17 18 8 10 15 18
3 3 5 2 3 7 8 7 5 6 6 12 15 13 9 4 5 5 8 9 7 5 6 5 5 5 6 8 15 23 27 24 19 14 14 12 12 16 11 10 12 16 16 15
7 6 3 3 3 7 9 5 7 7 12 17 16 14 15 15 11 10 12 12 11 10 10 10 11 13 14 12 10 8 7 10 9 9 14 15 11 8 9 13 16 14 15 18
1 7 6 8 6 4 1 7 23 23 22 16 17 15 13 12 12 12 13 12 12 11 12 12 12 14 13 10 7 5 7 4 11 14 11 6 6 10 13 13 14 16 18 22
2 6 4 4 5 6 18 22 23 21 21 19 16 14 9 13 14 14 12 13 14 14 14 12 10 10 8 4 2 3 4 4 4 3 6 9 12 13 14 15 17 21 22 22
6 9 6 4 1 18 13 18 21 22 20 18 15 13 12 13 14 14 16 15 14 13 11 8 8 10 11 9 8 7 6 6 8 10 11 12 14 16 17 19 21 22 20 20
6 7 5 5 20 10 10 17 18 19 16 13 12 15 15 13 16 14 15 13 12 13 14 13 12 10 8 6 8 9 11 12 14 15 16 17 18 19 22 24 25 23 24 23

GFSCGP_850_spd_039.txt.gz
Wind_Speed
3 4 3 7 5 3 1 2 3 5 4 3 6 4 13 21 19 16 26 33 31 31 29 29 29 28 28 30 30 30 29 28 29 28 27 28 28 25 22 17 15 11 14 18
4 3 7 4 3 5 3 3 4 5 3 7 6 7 4 13 21 30 32 32 34 34 31 31 31 31 31 29 29 31 29 30 32 30 30 30 28 25 19 16 13 13 16 17
5 4 3 2 0 1 2 1 3 5 6 1 5 5 3 4 10 21 24 33 33 42 40 36 36 37 34 33 29 28 30 34 34 32 31 30 27 24 21 17 16 16 17 15
5 3 4 4 1 3 2 3 3 4 1 3 1 3 5 6 13 12 23 31 37 43 43 41 42 41 42 39 35 33 33 36 36 33 33 33 32 31 28 21 18 18 16 14
5 6 5 4 5 5 6 1 4 3 4 2 3 3 5 1 7 17 19 30 41 46 46 47 46 42 41 41 40 37 38 39 36 35 35 34 33 30 22 20 19 18 17 18
5 2 2 4 1 5 3 1 5 4 3 1 3 3 5 5 12 6 20 32 43 46 43 46 46 44 44 43 43 41 39 38 35 34 35 36 33 31 27 22 22 21 20 20
2 2 2 1 1 4 4 5 3 4 4 4 3 2 8 8 7 8 11 27 38 46 45 44 45 46 45 43 43 42 41 39 35 32 33 33 34 31 29 24 24 25 24 23
5 5 6 3 4 4 1 6 4 3 3 4 4 4 6 4 8 17 19 18 25 37 43 44 46 46 43 38 38 42 42 38 36 33 34 31 34 30 28 26 26 28 27 26
4 4 2 3 2 4 2 3 3 6 3 3 3 6 10 7 6 8 8 16 17 27 36 43 41 41 40 36 35 34 33 36 31 31 31 29 31 31 31 28 27 28 27 24
7 1 1 3 3 5 3 5 1 2 3 3 4 4 5 6 5 6 7 14 17 22 26 32 36 34 33 31 24 22 26 25 28 29 30 31 32 31 31 30 29 29 26 23
5 5 4 3 5 7 2 2 2 4 4 4 1 5 6 7 6 7 2 10 15 18 19 19 24 29 30 29 30 25 25 25 27 29 31 31 31 32 30 29 30 32 31 30
8 6 5 10 3 4 3 5 5 4 4 1 3 6 4 6 7 7 11 9 14 19 17 18 22 26 27 30 32 31 27 25 29 32 32 31 30 29 28 28 30 30 29 24
8 2 2 7 4 2 4 5 4 4 3 6 5 6 3 4 5 9 16 14 16 21 24 26 27 27 26 30 34 34 32 31 32 30 31 33 32 29 28 29 27 23 24 22
10 4 7 8 8 4 3 4 4 6 3 4 6 6 6 8 6 11 17 19 18 19 25 28 29 30 31 33 35 33 31 37 28 27 31 32 31 31 30 26 25 27 23 20
6 5 4 3 3 4 5 5 7 6 6 6 8 7 7 4 5 6 11 3 5 10 17 23 28 30 33 34 35 35 33 31 30 31 34 33 33 31 28 27 27 23 23 17
1 3 3 3 3 4 4 7 6 6 3 6 4 6 4 3 7 13 15 18 17 15 11 5 6 17 26 34 37 35 33 29 34 33 34 34 31 29 27 26 22 18 17 14
5 6 4 4 2 3 6 7 8 6 5 6 6 8 3 3 5 13 19 19 17 14 10 7 6 4 0 6 15 24 30 34 31 33 33 31 28 26 26 22 20 19 11 13
6 5 3 3 3 2 7 3 6 5 2 5 4 6 6 9 15 15 14 14 12 9 8 6 5 6 6 5 7 14 21 24 25 27 24 24 27 27 25 22 15 7 19 15
3 6 3 5 4 4 5 4 6 6 2 3 8 7 14 17 18 11 9 8 6 4 4 5 6 7 8 6 5 10 14 18 20 22 24 25 24 22 17 8 13 16 13 11
5 6 5 3 5 7 7 4 5 5 2 5 7 8 11 6 3 3 4 5 3 2 1 1 2 2 2 2 3 5 10 15 18 20 21 22 20 13 13 15 20 11 10 13
3 3 5 2 3 7 7 5 9 6 7 17 19 19 16 5 5 10 11 9 7 5 4 4 4 3 2 1 1 3 9 12 13 12 8 11 15 13 19 13 10 11 15 18
7 7 4 3 3 6 5 6 8 6 11 24 17 15 14 16 15 16 14 11 8 7 7 6 7 9 10 10 6 11 10 9 7 5 7 12 14 11 9 11 14 16 17 18
2 7 6 8 6 3 4 6 7 24 29 21 22 21 20 21 20 18 15 13 12 11 11 11 11 13 13 10 8 6 5 1 5 9 7 6 6 9 13 15 16 17 19 22
3 5 4 4 2 2 7 13 26 22 27 23 21 23 21 22 20 18 17 16 15 14 13 12 10 10 9 6 4 4 4 3 3 4 7 9 11 13 14 16 18 22 24 26
6 9 6 2 1 5 5 14 23 23 23 24 22 20 18 18 20 19 19 17 16 14 12 10 10 10 11 9 8 5 4 4 6 8 10 11 13 16 18 19 22 25 26 27
7 7 6 6 19 9 14 21 22 25 23 21 21 20 17 16 20 20 20 17 16 15 14 12 12 11 9 5 3 3 5 7 10 12 14 16 18 20 23 26 31 30 30 30

GFSCGP_850_spd_042.txt.gz
Wind_Speed
2 4 3 6 5 2 2 3 2 3 3 5 7 6 11 18 16 19 26 27 25 27 22 23 26 29 29 26 25 26 24 24 24 26 29 29 28 22 21 20 21 17 15 17
5 4 6 4 7 3 5 3 2 4 1 6 1 7 8 14 22 25 31 31 31 30 27 25 27 28 31 33 31 28 27 28 27 28 28 28 25 25 22 21 21 19 15 16
6 5 2 3 0 4 3 0 0 3 5 2 2 2 5 5 10 20 25 35 31 34 31 32 32 32 32 33 32 32 30 30 29 29 29 28 28 27 26 26 24 19 17 17
4 4 3 1 3 5 2 4 2 2 3 1 3 3 4 5 15 8 23 31 36 35 34 32 34 35 35 34 32 30 30 30 30 29 29 31 30 30 31 28 23 20 20 19
6 3 4 5 7 6 6 3 2 1 1 2 2 3 5 3 6 16 21 32 39 42 39 38 37 35 34 34 32 31 30 30 30 31 31 32 32 32 29 27 25 22 21 21
4 2 4 7 1 4 3 3 6 4 3 2 3 4 5 5 8 9 21 32 44 40 41 39 39 38 36 35 34 33 32 31 31 31 33 34 34 34 31 28 26 25 23 23
1 3 2 3 2 3 4 5 2 3 3 5 0 1 8 6 3 7 11 30 44 44 42 40 39 41 41 39 38 37 37 37 36 35 33 35 37 36 32 29 29 26 26 25
6 5 5 4 5 7 4 6 5 4 3 3 2 4 6 2 6 12 16 21 28 35 39 42 42 41 41 41 40 39 39 38 38 39 37 37 37 37 33 30 31 27 25 25
4 4 1 1 1 2 5 3 4 6 3 2 3 6 9 2 4 9 3 8 15 24 30 37 41 40 39 40 39 37 36 36 38 38 38 36 36 35 37 34 31 27 27 28
7 2 1 2 1 2 1 6 3 2 3 3 4 4 5 8 4 3 6 3 5 13 22 27 32 37 37 37 36 30 32 33 34 35 39 38 37 35 34 28 26 26 29 30
5 4 4 1 5 7 2 1 5 4 4 4 1 5 7 6 5 4 6 8 8 10 14 16 18 25 28 29 31 33 30 28 30 29 31 35 33 30 26 26 28 27 26 31
6 5 5 8 2 3 4 7 6 5 3 1 3 6 4 7 5 7 9 2 5 8 11 15 16 18 18 22 26 28 28 24 21 22 25 29 27 27 29 29 26 26 28 31
7 1 0 8 5 3 4 5 3 5 4 6 5 6 2 6 7 5 8 8 6 8 12 14 17 21 22 24 28 26 20 20 23 21 23 26 30 30 26 23 24 25 26 26
11 4 7 8 8 4 4 5 5 6 4 5 6 7 6 8 6 10 14 13 12 11 13 16 18 19 19 22 25 22 21 24 25 24 26 29 28 26 25 23 26 26 27 27
6 8 6 4 4 5 4 5 7 7 6 6 7 8 9 6 6 8 8 3 5 9 11 13 14 15 15 18 21 22 25 26 27 27 27 27 25 27 27 26 25 25 25 22
3 4 3 3 3 3 3 6 6 4 2 5 5 6 7 3 1 4 5 12 15 13 12 9 6 5 5 8 12 17 20 23 24 24 25 23 26 27 26 25 28 27 25 26
8 7 3 4 3 4 6 8 8 6 5 8 7 10 6 3 6 7 12 15 17 16 15 14 13 12 9 8 7 7 10 14 17 19 20 21 24 23 23 23 22 19 15 10
7 7 3 3 3 2 6 1 3 8 6 6 4 4 8 10 12 13 11 13 14 12 11 10 8 8 6 4 5 7 9 11 11 12 14 16 19 21 22 18 14 10 10 15
1 6 3 5 4 5 3 4 7 7 9 6 6 6 14 22 19 10 9 11 11 9 7 6 6 4 4 4 4 5 5 5 5 7 10 13 16 18 17 15 6 12 23 15
5 6 5 3 5 7 8 4 8 4 6 7 10 9 13 13 4 3 9 9 8 6 4 4 3 2 2 3 3 2 1 1 3 6 10 14 17 16 11 15 19 20 15 12
4 3 5 2 3 7 7 4 10 5 8 17 25 26 22 5 5 16 12 9 5 4 4 4 4 4 5 7 6 8 9 9 9 7 6 5 8 11 13 16 14 13 12 16
7 7 3 3 3 7 11 6 9 7 3 27 29 27 19 12 16 16 13 10 8 8 8 8 8 11 13 12 8 13 12 11 7 3 1 6 8 9 9 9 11 14 17 19
3 6 6 9 7 4 15 6 16 7 11 26 27 23 21 21 20 18 16 14 12 11 12 12 13 15 15 13 9 8 8 3 2 4 4 4 6 8 11 13 15 16 18 22
2 4 4 4 5 6 11 16 12 15 22 27 26 26 25 23 22 21 18 17 16 16 15 14 13 14 13 9 6 5 4 3 2 3 4 6 9 11 13 15 17 20 22 25
4 9 7 3 4 2 12 17 16 19 21 24 23 25 24 23 24 21 20 19 18 17 15 13 12 11 10 7 5 4 2 2 4 6 9 11 14 17 19 21 23 25 26 27
7 7 6 8 17 11 10 21 21 23 24 25 27 25 21 20 22 22 21 19 18 17 15 12 10 8 8 6 3 2 3 6 8 10 12 15 18 21 24 28 32 31 33 34

GFSCGP_850_spd_045.txt.gz
Wind_Speed
1 2 5 6 5 3 2 3 2 1 2 4 6 8 8 15 12 13 16 17 19 19 20 24 24 24 27 28 29 28 25 22 23 24 24 24 25 24 21 19 16 15 16 15
1 4 4 2 2 3 2 2 2 2 1 1 3 6 5 14 14 21 20 20 24 23 23 23 26 28 29 27 29 29 27 25 25 25 24 25 24 24 21 21 20 19 19 18
5 2 5 3 3 4 3 4 2 2 2 1 2 4 2 5 12 15 19 20 19 24 27 26 27 30 31 33 31 28 28 27 26 23 24 26 25 24 24 25 24 23 21 20
4 2 4 4 4 6 4 5 3 1 0 2 2 2 4 5 11 13 22 22 26 27 30 30 30 31 33 33 34 33 32 29 28 27 27 28 28 30 29 28 27 25 22 22
4 4 3 5 6 5 5 3 2 2 2 1 0 2 2 1 8 18 25 27 30 33 33 34 34 33 31 31 31 32 32 31 31 31 31 31 32 32 29 27 27 24 25 24
3 2 4 5 2 5 3 3 3 3 2 2 2 3 3 4 6 6 19 27 32 36 35 35 34 33 32 33 32 32 32 31 31 32 32 32 33 31 29 29 27 27 27 27
0 3 2 3 3 1 3 2 2 1 2 3 4 2 7 5 7 7 10 19 33 35 42 41 38 36 35 36 35 34 33 32 32 32 32 31 31 30 30 30 29 28 30 31
6 3 8 5 5 6 6 5 4 3 3 2 1 4 2 3 9 10 11 16 13 26 38 43 43 40 36 34 35 34 34 33 33 27 29 31 30 29 28 31 31 29 30 33
5 4 1 2 2 3 4 4 2 6 2 1 1 3 9 1 4 7 10 8 4 13 22 29 35 40 38 34 33 34 33 30 32 31 27 30 32 31 31 32 32 32 31 32
6 2 2 2 3 3 2 6 3 1 3 3 2 3 3 3 2 4 6 6 6 5 9 15 19 23 29 32 31 30 28 27 27 27 29 29 29 30 31 32 34 35 31 29
5 3 2 2 5 8 3 2 4 3 1 2 2 3 6 5 2 4 4 4 4 3 4 7 9 12 16 21 23 23 22 24 24 21 23 25 29 31 32 34 32 29 31 33
6 5 5 7 0 2 3 6 6 3 4 1 1 5 2 6 6 6 6 4 6 6 6 6 7 8 9 10 11 13 16 19 21 20 18 18 20 23 24 25 27 28 27 29
8 2 2 1 1 1 3 5 4 5 3 7 4 4 1 4 6 7 6 4 4 8 12 13 13 12 13 14 16 17 16 15 16 19 19 20 20 22 25 27 27 25 22 26
13 4 6 9 7 5 4 5 7 5 4 5 7 8 7 7 7 10 9 10 10 8 9 11 11 11 11 13 14 16 15 18 19 21 20 22 23 26 25 23 18 17 19 23
5 7 6 5 5 5 6 6 11 10 7 8 8 9 9 7 6 6 9 7 2 3 5 5 6 6 7 7 7 8 10 11 13 14 17 19 19 17 16 14 15 16 19 22
2 4 5 3 4 7 6 5 8 8 4 9 7 9 11 6 5 2 3 6 14 17 18 17 15 11 8 5 2 1 3 5 7 8 10 11 11 11 12 13 16 16 18 19
3 6 4 4 0 2 4 8 10 6 5 6 9 11 5 6 6 8 11 16 18 20 20 20 18 16 13 10 7 4 3 3 5 5 5 5 7 9 12 13 14 15 16 16
5 5 1 3 2 5 3 1 2 10 6 9 7 5 5 4 9 11 14 19 18 17 17 16 13 11 9 8 6 6 6 6 6 4 2 1 4 8 10 13 15 13 7 10
4 5 3 5 4 3 2 4 7 7 13 10 13 7 7 18 13 6 13 15 17 15 14 13 12 10 10 8 7 6 7 7 7 6 4 3 3 8 10 12 9 10 14 18
5 3 4 3 5 8 5 4 7 4 12 8 13 11 18 18 8 6 16 15 15 13 13 12 11 10 9 8 7 7 8 8 8 8 7 6 4 3 3 7 11 15 16 13
3 2 7 3 3 6 6 5 11 6 8 9 17 20 28 11 4 24 21 17 15 14 13 11 11 10 10 10 9 10 12 12 12 11 9 7 3 4 8 9 10 8 9 12
7 7 4 4 2 7 11 8 10 8 5 11 19 26 25 17 21 28 23 19 17 15 14 13 13 15 15 14 11 15 14 14 10 6 3 2 3 4 3 5 7 10 13 16
4 6 5 9 7 2 26 9 23 9 7 11 23 31 32 26 28 27 24 21 19 17 17 17 18 19 18 16 12 11 11 8 4 2 2 1 1 4 6 9 11 14 16 20
4 4 4 3 6 7 18 25 14 17 16 13 25 36 31 28 29 28 26 24 22 21 21 20 19 19 19 14 11 9 7 5 3 2 1 3 5 8 10 13 16 18 20 23
4 7 5 3 4 3 17 25 23 20 16 16 25 31 31 29 29 28 28 26 25 24 23 20 19 18 16 13 10 8 6 4 1 2 4 7 10 13 15 17 19 20 20 21
7 7 6 6 12 8 15 31 27 23 22 24 29 29 28 28 31 30 29 27 26 25 23 20 17 15 14 11 9 7 4 1 3 5 8 11 14 16 18 20 20 21 21 21

GFSCGP_850_spd_048.txt.gz
Wind_Speed
10 9 9 3 4 8 7 7 8 6 4 5 6 7 6 14 15 15 15 15 16 17 19 21 23 25 26 26 27 28 25 21 21 19 19 19 20 20 21 21 22 20 18 18
6 11 2 2 4 7 7 8 7 2 3 6 4 8 2 12 16 17 17 17 17 16 19 23 25 26 27 28 29 28 27 23 22 20 19 18 19 20 20 20 23 21 20 18
12 3 5 7 8 9 9 10 4 2 2 4 7 11 8 8 13 15 16 16 17 19 21 23 25 28 28 30 30 29 28 24 23 21 19 18 17 17 21 22 25 25 21 20
10 6 8 8 9 8 10 10 5 4 7 7 3 6 5 7 12 14 18 20 22 23 23 24 26 28 29 29 28 28 27 26 25 23 21 23 22 21 20 20 22 25 26 25
9 9 11 11 10 8 4 4 7 6 9 7 8 7 4 3 8 15 22 25 25 24 26 28 28 28 28 28 29 29 28 27 26 25 25 22 22 19 18 21 21 26 27 27
8 2 5 3 3 10 4 6 6 5 6 9 11 8 5 7 7 6 8 23 27 26 27 27 27 26 26 27 28 28 29 28 27 26 27 26 25 24 22 22 22 26 30 29
14 13 6 6 7 7 10 9 7 7 7 8 4 7 10 2 3 7 9 9 15 27 29 29 28 30 29 29 29 29 30 30 29 30 30 30 31 28 29 28 27 29 29 29
14 13 15 12 13 8 14 12 6 6 5 5 4 6 3 3 5 7 8 9 11 16 28 32 29 29 28 28 27 29 31 32 30 31 30 31 31 32 31 27 30 32 29 28
14 14 5 7 6 10 8 9 3 3 0 3 5 5 10 2 3 4 3 4 4 8 16 22 27 29 28 25 27 28 27 26 27 32 32 29 28 26 27 27 32 29 27 28
7 10 5 7 7 3 6 9 6 5 5 7 5 5 4 3 3 2 3 3 2 2 6 11 14 19 23 23 22 22 22 23 23 25 25 25 25 23 23 25 26 28 29 30
10 9 6 7 11 13 6 7 3 2 3 4 4 4 2 3 2 2 1 2 3 1 3 6 8 9 12 15 17 18 17 17 18 18 17 17 17 18 19 23 24 27 28 30
18 9 9 13 3 4 7 10 12 7 6 4 7 10 6 8 5 4 4 5 4 2 1 4 7 9 10 11 12 12 13 14 15 14 14 13 13 16 17 19 21 22 25 25
14 10 10 10 6 5 9 11 12 7 3 12 6 4 4 4 6 8 7 7 6 5 4 5 7 8 9 10 11 11 12 11 10 11 13 15 17 18 19 20 22 21 20 21
23 13 16 13 14 12 11 13 15 15 8 11 11 11 10 12 10 9 8 8 8 7 9 8 8 8 8 8 8 8 9 10 11 11 14 16 17 16 17 17 15 15 15 16
11 16 17 18 16 15 16 14 15 16 17 13 13 15 12 12 11 7 5 6 6 9 9 10 10 9 8 7 7 7 7 9 9 10 11 10 9 8 9 8 8 9 12 14
6 10 11 13 13 14 16 17 18 19 17 14 16 18 12 16 9 9 6 8 9 10 10 10 9 9 9 8 8 6 5 5 4 3 3 2 2 1 2 3 4 5 7 7
5 8 8 13 9 8 6 16 16 16 14 15 16 16 14 10 12 12 8 11 14 16 16 15 15 15 15 14 12 10 7 6 4 3 2 3 2 2 2 3 4 6 7 8
5 9 5 5 4 7 8 3 17 18 15 15 16 16 15 13 6 8 10 15 17 18 17 16 17 17 16 14 12 11 10 9 9 8 8 7 5 4 4 3 4 4 3 5
14 8 4 4 9 9 4 6 8 12 16 14 18 18 12 7 11 7 11 16 17 16 16 16 17 17 16 14 14 13 13 12 11 10 11 10 9 7 7 4 2 3 6 9
8 9 8 4 7 7 9 11 12 4 15 10 13 14 11 17 9 8 19 18 18 17 17 17 17 17 16 16 15 15 14 13 13 13 13 12 11 9 7 2 4 8 9 4
5 4 12 11 7 6 3 11 14 9 14 5 8 11 15 14 8 20 24 19 18 18 19 18 17 16 16 16 15 16 16 16 15 14 12 10 7 3 2 4 4 2 3 7
8 9 5 8 7 11 14 12 11 14 5 9 10 12 19 15 15 24 25 22 20 20 20 18 18 18 17 16 16 17 16 15 12 9 7 5 4 3 1 0 3 6 7 10
8 6 3 9 6 4 29 20 25 10 10 10 12 13 18 18 21 25 25 22 21 20 19 19 20 20 18 16 16 17 15 12 9 7 7 6 4 2 1 2 5 5 6 8
7 6 5 2 10 12 15 23 11 14 13 9 10 16 23 26 26 26 24 23 23 21 21 22 22 21 20 18 17 14 13 11 10 10 8 5 3 0 3 4 5 6 9 12
10 9 9 12 13 8 14 20 21 14 14 14 12 19 26 28 28 27 26 24 23 23 22 21 21 21 20 18 17 15 13 12 10 7 5 2 1 2 3 5 8 9 12 13
10 8 8 8 17 11 19 13 18 20 19 15 17 21 24 28 30 28 27 26 26 26 24 22 21 21 20 19 16 15 13 10 8 5 3 1 3 5 5 5 5 13 11 12

GFSCGP_850_spd_051.txt.gz
Wind_Speed
20 13 14 16 7 12 12 16 11 5 5 7 10 8 17 13 13 14 16 16 17 17 18 21 24 24 25 24 25 25 25 22 21 18 18 18 19 19 18 19 17 19 17 19
13 15 17 4 6 10 11 15 14 5 5 6 1 18 7 17 14 17 19 18 18 20 21 22 24 25 26 26 26 26 25 24 24 21 18 17 17 18 18 18 18 20 20 18
16 10 4 5 11 12 12 15 3 10 13 10 11 15 14 8 13 17 18 19 20 22 24 25 26 26 28 27 27 26 26 24 23 19 18 17 17 18 20 21 20 20 19 19
17 15 8 10 13 12 15 14 6 10 11 7 8 8 12 11 14 14 19 20 22 23 24 26 27 29 29 29 28 27 27 26 24 23 21 21 20 21 20 21 21 22 25 26
17 14 11 14 15 10 8 3 8 12 13 14 14 12 12 11 13 15 19 23 23 25 26 28 30 31 31 30 32 31 29 29 27 26 26 23 24 21 19 20 21 21 21 25
19 13 13 15 12 8 7 5 9 12 12 11 15 11 4 13 14 15 20 25 25 26 27 28 28 27 29 30 31 31 30 31 30 30 28 28 25 23 20 22 23 22 22 21
20 15 15 5 10 10 13 12 9 9 9 11 10 9 6 8 4 1 2 11 25 28 28 29 30 31 30 31 32 33 31 33 32 30 29 28 27 25 24 23 24 22 25 26
18 19 21 14 16 11 17 16 7 8 8 6 5 6 9 8 5 3 6 8 10 15 28 31 31 31 31 32 32 32 31 32 29 26 26 27 29 29 28 29 29 26 27 29
19 21 18 19 16 16 14 17 16 13 8 7 9 6 17 13 5 4 7 5 10 13 19 27 33 32 31 31 31 32 30 29 28 34 33 30 26 26 30 30 29 27 31 32
9 14 13 13 13 15 12 12 12 9 6 10 12 10 3 7 5 3 4 1 1 3 7 14 22 30 28 28 28 28 27 27 24 26 31 31 25 30 28 26 25 30 31 30
16 13 11 12 14 17 12 10 11 7 10 5 8 8 4 5 5 4 2 2 1 1 4 8 12 17 22 25 26 26 25 24 23 23 22 23 25 20 19 17 21 25 23 24
22 11 12 17 18 20 16 19 18 10 12 8 7 12 2 7 7 6 9 5 3 2 5 6 9 10 15 20 21 22 21 21 20 18 18 17 17 17 17 19 22 25 19 19
20 12 12 15 11 10 14 16 15 17 11 12 8 7 5 4 6 8 10 9 9 7 7 8 10 11 13 15 17 18 17 16 16 16 15 15 20 18 20 20 21 19 19 20
19 17 20 15 17 15 18 17 17 15 10 12 14 17 8 12 15 14 13 9 11 11 10 11 12 12 13 14 15 15 15 14 15 13 12 18 19 17 14 13 13 13 13 15
9 22 20 23 20 17 23 23 22 22 19 17 16 18 13 11 11 11 9 9 10 13 13 14 14 14 15 15 15 14 14 16 16 19 18 14 10 7 7 7 8 9 8 8
16 16 21 21 20 18 19 18 18 20 21 20 19 20 13 14 12 13 6 8 12 13 14 15 16 15 15 15 15 14 13 13 12 11 9 8 8 9 8 7 7 6 4 3
9 13 16 17 18 20 17 17 19 20 19 17 18 17 16 13 12 13 16 13 14 12 13 13 15 16 15 16 16 15 15 15 15 14 13 11 9 7 7 7 8 8 7 5
8 14 12 8 3 16 10 15 20 22 20 17 17 17 16 17 18 10 8 10 12 13 16 18 18 18 18 18 18 18 17 16 15 14 13 11 10 11 11 10 8 6 5 4
12 10 7 8 12 13 18 10 13 15 16 17 16 16 17 18 3 6 8 12 17 17 17 18 19 19 19 19 18 18 17 16 16 15 14 14 13 13 12 10 9 7 4 3
14 14 10 7 14 19 12 14 14 13 13 14 15 12 6 6 7 11 19 18 19 19 19 19 18 18 17 17 18 18 17 16 16 16 15 14 13 12 12 8 3 1 2 2
8 7 12 13 10 8 10 14 15 13 14 9 6 8 9 9 13 3 22 22 21 20 20 19 18 17 17 17 17 17 17 17 17 17 15 12 11 9 5 1 3 4 2 1
9 7 6 9 11 14 4 11 14 16 23 7 11 12 11 9 9 20 24 24 24 23 21 19 19 18 17 17 18 18 18 17 16 13 11 9 6 5 6 6 4 2 0 2
13 9 8 8 5 10 18 19 22 23 16 11 13 13 13 17 20 23 26 27 25 23 21 19 19 19 18 17 17 18 18 16 14 12 11 10 9 8 7 5 2 1 1 3
15 11 11 12 11 14 12 20 19 11 17 14 12 13 16 22 23 26 27 28 26 25 23 21 21 21 20 19 18 18 17 15 14 13 12 11 9 7 5 3 2 2 4 4
11 9 12 16 17 24 19 13 15 17 15 12 10 12 16 21 25 28 28 28 27 25 24 23 22 22 20 19 18 16 15 14 14 13 12 10 8 7 4 3 3 4 8 8
14 13 9 8 14 12 17 15 9 13 18 15 16 16 18 21 25 27 27 27 26 26 24 23 22 22 20 19 17 15 14 13 13 12 11 10 7 6 5 3 5 8 10 10

GFSCGP_850_spd_054.txt.gz
Wind_Speed
21 12 15 19 18 22 14 14 15 4 8 5 9 7 15 17 17 19 18 21 20 21 24 24 24 23 28 27 26 25 29 35 31 29 34 24 23 23 24 25 24 26 24 23
16 18 19 20 12 9 11 14 15 8 7 3 8 7 17 17 11 20 19 23 23 21 28 27 29 29 27 24 24 29 30 33 30 29 27 27 28 29 27 25 24 27 25 23
20 20 20 20 8 11 13 15 13 12 4 16 13 12 12 17 28 22 19 22 24 26 29 31 32 30 33 31 27 25 26 26 26 25 20 19 22 19 22 25 28 19 23 22
21 22 9 10 11 14 13 14 13 7 9 7 9 8 7 8 14 13 20 21 26 29 31 32 34 36 34 38 34 30 29 28 27 27 29 28 26 28 28 26 27 26 30 28
21 19 19 15 15 14 12 3 10 12 12 12 8 5 13 11 12 16 16 23 26 30 34 37 38 38 39 38 38 33 34 34 32 28 27 29 28 25 24 25 27 26 30 30
22 22 18 17 15 15 12 6 9 9 10 10 14 7 8 8 7 6 18 23 24 27 33 37 37 37 38 39 39 38 37 37 34 31 27 28 29 28 26 26 28 30 31 29
21 22 19 15 19 16 9 9 8 6 8 9 9 9 10 9 4 12 20 24 26 27 28 33 38 40 40 40 40 40 40 39 36 35 31 29 28 25 28 28 29 32 34 31
18 18 24 13 14 13 14 15 8 6 4 7 9 7 9 13 15 9 1 3 15 31 34 33 34 41 42 42 42 42 42 40 36 35 33 30 33 31 29 31 29 28 30 34
19 22 19 18 15 19 11 16 17 14 3 3 5 7 16 16 13 7 10 12 10 10 24 36 36 37 42 44 42 43 40 38 37 40 39 33 25 34 32 34 27 30 26 29
18 13 23 23 22 17 16 12 12 10 6 5 9 15 9 11 11 8 6 7 5 3 6 16 26 36 34 41 43 42 39 36 37 40 43 45 30 34 30 25 27 30 27 32
21 16 12 14 15 17 13 13 11 12 10 7 4 5 9 9 9 9 5 8 7 3 6 8 12 15 36 34 38 38 38 34 33 38 36 41 39 27 30 28 31 28 31 31
22 6 13 16 16 16 18 16 16 9 9 5 3 3 9 4 4 9 8 6 4 7 9 6 8 10 12 27 31 37 36 33 31 30 31 27 25 28 29 29 26 25 23 22
19 16 11 16 15 16 18 16 17 16 10 14 4 7 4 3 4 5 6 9 11 7 11 9 8 9 11 17 16 23 26 22 23 24 19 23 25 26 26 22 19 19 20 21
23 15 16 12 14 11 18 18 19 18 8 5 8 13 15 6 7 7 13 17 14 18 12 14 12 11 12 13 16 17 16 17 20 22 20 22 23 21 21 19 19 19 20 19
5 20 21 18 18 17 20 21 20 21 14 13 19 19 14 13 6 10 11 18 17 11 14 14 17 16 16 17 17 18 22 25 25 26 27 25 22 19 17 16 17 17 17 16
10 14 18 20 19 21 19 18 20 21 20 18 18 17 15 12 14 12 20 25 9 7 10 15 17 22 20 19 21 26 25 24 22 20 16 13 12 13 14 13 12 12 11 10
12 12 14 17 18 18 19 18 17 14 16 14 16 14 12 13 8 12 12 13 12 14 11 10 14 19 25 23 23 20 19 18 19 19 14 14 15 14 11 11 8 9 8 8
5 10 10 6 5 24 9 14 14 15 16 15 16 14 13 15 15 13 8 1 8 11 13 14 14 19 20 22 21 23 22 23 19 19 19 18 15 14 14 14 13 12 10 8
3 4 5 6 12 12 15 12 11 12 16 18 19 18 14 22 2 0 3 4 7 15 17 18 18 18 19 24 22 24 23 23 22 20 18 18 17 18 16 14 15 13 11 7
7 6 7 3 10 12 4 12 17 11 12 12 14 12 11 8 2 3 7 9 14 19 19 19 21 22 22 23 25 26 24 22 22 20 20 18 17 19 17 15 13 8 7 9
3 7 11 10 7 6 6 13 21 16 7 11 16 18 6 3 1 2 12 17 20 21 23 23 23 23 24 25 25 25 25 23 22 21 22 23 21 17 13 11 9 12 13 11
10 8 5 7 5 13 9 10 18 9 21 11 16 8 5 4 6 10 20 24 25 25 25 25 25 24 24 24 26 25 25 25 26 25 22 19 15 13 11 12 14 13 9 8
7 7 5 6 4 12 14 14 12 15 15 17 12 16 11 10 14 20 25 25 25 26 27 26 27 27 25 25 24 25 25 24 23 21 17 15 14 15 14 12 12 10 9 11
2 13 10 10 11 12 19 24 21 18 15 16 12 11 7 16 20 22 23 25 27 27 27 26 27 27 25 23 23 25 25 22 19 19 18 16 17 16 15 12 12 14 13 9
7 7 14 11 12 13 21 21 24 9 12 14 10 7 11 14 24 27 26 27 27 27 26 25 25 25 24 24 24 21 20 20 20 18 18 18 18 14 15 14 11 9 7 7
11 11 8 5 7 1 7 6 13 24 24 24 14 9 14 16 20 22 25 26 26 27 26 25 24 25 24 23 22 20 19 19 21 20 19 17 19 16 7 5 6 6 7 8

GFSCGP_850_spd_057.txt.gz
Wind_Speed
14 4 11 11 14 18 16 12 7 5 2 5 10 7 12 19 18 21 24 31 29 26 20 16 20 23 24 21 22 29 33 30 35 32 38 44 35 40 37 32 24 24 23 23
8 17 13 15 17 17 13 6 8 6 8 2 3 14 16 8 9 22 24 29 32 30 26 22 21 27 28 27 26 32 33 32 33 34 35 36 42 39 34 26 26 26 25 24
14 13 17 18 18 16 6 6 7 7 1 3 4 3 6 6 3 6 16 28 35 38 35 30 28 29 30 29 31 35 34 34 36 33 31 30 26 31 30 30 30 29 32 28
11 21 19 18 17 5 6 10 11 7 1 4 5 4 5 11 6 17 32 33 34 41 38 34 33 33 34 31 30 32 33 35 33 31 32 29 31 33 32 31 33 32 28 29
16 9 20 19 6 7 9 7 4 4 5 2 5 2 7 14 12 21 23 33 38 43 43 40 37 36 36 35 35 32 33 35 34 32 32 32 31 29 25 26 26 30 30 32
14 22 14 16 8 10 7 3 4 4 1 4 6 5 5 4 10 17 24 32 41 41 47 43 37 34 36 37 37 37 35 35 34 34 34 35 35 33 30 29 30 30 30 32
19 21 17 13 8 5 7 4 1 4 2 6 1 5 8 9 8 7 17 28 40 45 47 46 44 41 39 42 42 41 39 38 38 37 36 35 37 36 36 33 31 31 33 33
15 16 18 9 13 8 10 7 5 6 4 6 3 4 4 5 12 20 25 36 35 42 50 50 49 46 43 43 47 47 47 43 44 43 40 36 33 37 35 39 32 30 32 35
12 21 7 15 6 9 4 6 7 5 2 4 4 5 5 8 8 7 12 15 30 38 45 50 50 47 46 46 47 50 50 50 49 49 45 43 42 39 43 39 30 32 27 27
8 8 22 12 11 9 9 4 5 3 5 5 6 7 5 12 10 8 4 6 12 24 40 41 49 49 48 47 45 47 49 49 48 50 48 47 47 45 42 36 36 31 28 32
23 12 9 14 14 13 4 9 4 3 4 6 3 5 3 3 9 7 5 14 12 9 9 9 26 42 49 50 50 49 50 51 49 47 46 48 47 45 39 33 32 25 29 28
15 8 15 15 9 19 16 12 9 5 5 4 5 5 6 4 9 13 11 14 16 17 16 12 10 7 17 53 54 52 51 52 49 46 49 47 44 41 41 30 30 32 32 29
9 14 6 7 8 9 19 8 9 9 5 8 5 5 5 6 12 18 19 13 15 20 18 13 10 10 8 21 43 46 47 40 35 31 31 34 38 31 38 41 36 31 26 23
24 9 18 17 4 6 6 12 13 10 4 6 6 4 9 11 7 7 7 7 18 22 23 18 13 9 9 9 16 32 32 31 27 22 23 20 23 25 24 28 28 24 21 20
10 15 14 11 11 14 16 12 16 14 14 10 6 7 10 9 9 11 9 5 5 24 26 23 20 16 13 11 13 17 28 29 27 26 23 23 27 27 23 21 22 22 21 19
10 3 9 16 18 15 10 15 15 17 16 12 11 13 18 19 15 17 15 15 17 19 25 28 27 26 22 20 20 20 21 21 20 22 23 25 28 27 21 20 20 19 18 18
10 3 5 17 19 18 16 16 21 15 12 11 13 9 8 12 9 16 13 21 25 25 19 16 29 30 29 26 24 26 21 20 21 22 23 24 25 23 20 19 20 18 18 18
10 14 3 4 4 14 7 11 10 16 14 6 4 4 6 7 15 14 24 33 26 27 20 21 22 32 33 31 27 25 24 24 20 21 23 23 22 21 21 20 19 19 17 15
13 14 3 7 9 5 12 8 4 7 8 7 6 6 8 18 4 6 11 11 15 22 22 22 22 32 35 33 32 32 28 25 22 20 21 21 20 21 20 19 19 16 15 13
11 16 5 3 3 17 2 8 11 3 9 4 3 8 5 9 4 4 13 10 14 18 22 24 23 27 28 30 32 31 28 25 23 23 23 22 23 22 21 18 16 16 12 10
2 8 4 3 1 6 5 8 8 7 4 6 14 7 4 5 7 14 15 13 15 18 21 24 24 24 24 28 28 28 27 27 27 27 26 26 23 21 19 17 16 13 17 17
6 4 1 0 3 5 8 8 6 4 20 19 21 18 6 15 16 20 19 20 20 21 23 23 24 24 24 26 27 27 26 27 28 29 27 25 23 22 18 16 18 19 20 18
5 7 6 7 5 5 19 8 9 15 22 14 10 3 12 11 19 21 22 24 23 25 26 25 25 26 26 26 26 28 31 31 30 28 27 25 22 20 19 20 22 22 20 18
5 7 4 4 6 9 26 18 15 20 22 25 21 5 5 9 1 17 22 27 29 28 27 27 27 28 27 26 28 30 32 31 29 28 25 23 22 22 23 23 23 21 19 18
5 7 7 2 3 14 25 16 15 24 29 32 22 21 2 9 19 32 27 28 28 27 28 27 28 28 26 26 27 29 30 29 27 25 25 26 28 29 28 26 22 20 17 15
5 7 4 5 14 13 15 3 1 10 10 21 34 28 21 10 24 23 23 23 26 27 27 26 27 27 25 25 26 26 23 22 25 27 27 27 26 24 22 20 19 15 13 13

GFSCGP_850_spd_063.txt.gz
Wind_Speed
7 4 12 14 8 3 3 3 5 8 12 3 10 6 9 13 16 14 21 23 22 20 12 11 10 13 16 15 16 17 20 24 26 32 39 36 38 42 35 34 35 31 32 27
3 17 6 7 7 5 5 5 13 11 11 6 8 11 3 9 16 23 23 25 27 24 19 19 14 16 19 19 19 20 22 25 27 30 37 42 40 42 35 36 37 39 32 29
11 5 16 15 6 7 8 6 10 11 6 3 4 6 4 6 7 19 24 28 29 30 27 24 21 21 21 22 23 23 25 24 25 32 38 37 36 38 38 38 35 40 39 27
8 14 1 4 10 8 9 9 12 14 3 5 5 5 5 6 8 8 18 29 33 34 32 28 25 25 25 21 22 25 26 26 28 31 36 40 41 40 40 41 38 40 39 31
9 8 12 13 14 9 9 7 10 8 6 1 3 2 7 3 6 10 13 28 35 39 36 36 32 27 25 23 23 26 28 29 31 34 35 36 44 44 41 44 43 48 49 38
12 5 9 10 8 13 8 3 4 1 2 5 6 6 5 5 8 7 13 26 35 38 41 39 34 30 30 28 26 28 33 34 35 37 39 41 37 43 47 45 43 45 48 44
6 13 2 4 5 5 5 3 2 3 2 8 6 3 9 8 9 11 14 28 37 40 42 43 41 38 36 35 33 32 36 38 39 39 41 43 41 43 46 47 48 49 46 44
9 6 14 6 13 4 7 10 5 6 4 6 2 5 5 8 12 19 24 31 37 38 43 45 46 44 42 40 40 38 39 40 42 42 42 43 43 46 46 44 46 46 45 43
6 6 4 9 9 11 5 6 10 6 1 1 5 6 7 6 5 7 12 16 28 35 42 46 48 48 47 44 46 46 45 44 44 45 45 45 45 46 48 47 47 48 45 42
3 2 4 4 5 6 9 4 2 2 5 7 4 4 6 8 11 3 6 13 26 35 42 45 45 48 51 50 49 49 49 49 48 48 49 48 47 46 46 46 46 46 43 41
7 4 7 7 5 6 2 4 4 2 5 8 9 6 7 9 10 9 9 17 23 32 41 46 47 47 49 50 52 52 53 52 52 53 51 50 50 48 46 46 46 44 42 41
2 2 9 23 14 3 5 7 10 7 4 4 3 12 4 8 9 7 10 17 20 29 37 43 48 46 47 50 50 54 56 56 56 53 52 48 45 42 40 45 44 45 45 44
5 4 4 8 6 3 9 6 5 2 2 12 7 7 2 5 7 16 12 5 7 11 23 34 37 40 44 44 47 50 51 54 54 51 50 47 44 37 35 45 42 42 41 44
2 1 4 4 8 5 4 9 15 10 8 7 15 8 6 6 8 10 18 13 12 13 16 24 33 34 36 36 38 41 44 47 47 49 51 50 49 43 44 38 38 49 47 41
3 2 7 13 15 16 19 10 12 18 12 11 8 12 13 10 11 16 27 20 17 16 17 25 30 30 31 30 29 31 35 40 43 44 46 49 46 46 50 47 46 43 43 42
4 3 2 4 12 20 18 18 23 11 5 7 9 8 7 14 22 13 23 25 24 18 18 31 34 32 31 28 24 21 24 29 36 39 43 44 46 46 49 47 43 45 44 42
4 3 0 6 10 18 7 14 15 17 19 6 10 8 7 7 9 16 28 32 32 29 27 30 34 34 35 32 26 24 22 22 27 31 34 40 44 44 44 42 41 40 42 41
6 5 4 3 2 5 7 25 17 18 19 13 6 6 9 11 21 28 38 32 30 33 35 37 33 32 38 35 32 30 27 27 30 33 34 37 40 42 42 40 38 34 33 30
6 4 3 2 2 8 12 6 13 10 17 13 15 11 10 24 13 15 22 26 26 28 29 35 32 28 33 39 37 31 29 28 31 32 32 35 36 38 37 33 29 29 30 28
5 3 3 3 3 6 2 5 22 15 16 6 11 20 15 12 4 5 22 21 21 19 27 33 28 29 31 39 34 30 28 26 28 26 25 27 28 28 30 30 32 29 27 27
3 1 5 4 4 7 7 6 12 2 5 7 13 10 6 5 12 26 26 23 23 19 21 23 25 25 28 30 33 31 29 28 27 25 24 23 26 28 28 30 30 29 28 26
7 7 4 2 3 8 5 8 7 16 25 8 12 13 12 11 13 16 12 23 22 14 12 12 13 13 15 20 24 28 29 27 24 21 21 23 27 27 29 28 27 26 26 26
6 7 5 9 6 4 11 7 9 14 22 33 20 12 12 17 20 12 16 15 16 17 14 13 15 15 16 20 25 27 26 21 20 21 24 23 25 25 25 24 26 26 24 23
5 4 4 2 5 14 24 24 22 27 28 17 28 19 15 18 21 26 14 10 14 15 17 18 18 17 18 19 20 19 18 18 19 21 22 23 23 24 24 22 20 21 23 22
6 5 9 14 9 15 18 22 29 27 24 22 15 21 17 19 22 23 26 19 16 17 19 16 18 19 19 19 17 17 17 18 19 20 21 23 24 24 24 22 21 19 18 18
4 1 2 4 6 6 17 18 18 15 5 10 10 12 10 10 28 23 25 23 19 18 18 20 19 19 18 18 18 18 19 19 18 20 23 24 25 25 24 24 23 22 21 21

GFSCGP_850_spd_066.txt.gz
Wind_Speed
10 4 10 12 6 5 5 4 3 5 6 2 8 9 15 8 14 17 20 22 21 19 14 12 11 11 10 11 10 14 16 21 29 30 36 36 36 37 34 37 39 35 36 30
4 14 8 9 8 7 4 4 6 9 8 6 9 12 7 6 8 19 21 23 24 20 17 16 16 15 14 13 17 15 15 18 25 32 30 36 37 34 37 37 38 36 33 34
12 3 13 9 6 9 6 9 5 8 5 3 2 7 8 4 7 9 23 26 25 25 23 21 20 17 15 15 15 20 20 21 20 24 33 34 33 33 38 38 36 32 34 33
8 14 4 6 13 11 11 10 8 6 3 4 4 5 7 6 8 6 16 25 29 27 26 25 22 21 18 17 16 19 22 23 24 27 33 38 38 42 40 42 35 35 36 32
8 6 14 5 6 7 9 7 9 5 5 0 1 2 7 3 7 9 10 28 30 30 28 30 28 23 18 18 18 17 21 25 26 28 32 39 40 41 44 40 40 44 39 40
8 3 8 14 11 10 2 3 4 2 3 4 7 6 5 5 8 7 7 25 31 32 30 29 30 26 23 21 22 21 22 25 27 29 32 38 41 40 48 44 43 44 41 46
3 7 3 4 5 5 4 5 2 1 2 5 6 3 10 8 12 10 10 22 28 31 32 31 32 33 30 27 27 25 25 27 30 32 35 38 41 43 43 47 48 47 45 44
7 5 12 5 9 5 7 8 5 6 4 4 3 5 6 7 13 18 18 24 22 25 32 33 31 35 34 31 30 30 30 30 32 34 36 38 39 40 41 44 46 47 43 45
6 5 4 8 7 13 4 5 7 1 1 1 5 5 8 6 8 6 12 13 23 27 29 34 34 33 38 36 35 35 35 33 34 35 36 38 39 40 41 39 40 45 46 44
2 1 3 1 4 3 7 5 3 1 3 5 3 3 5 1 8 9 9 10 19 22 24 26 31 34 36 40 38 36 36 36 35 36 38 39 39 39 39 39 38 39 39 41
4 2 5 5 2 7 2 5 2 4 5 4 3 5 8 11 10 7 9 20 17 22 23 23 24 30 34 38 42 41 40 40 39 39 39 40 40 38 37 38 39 40 40 41
1 2 3 13 12 5 2 5 7 4 6 4 3 9 5 9 8 7 10 20 14 19 22 23 25 28 32 36 40 43 44 45 45 44 39 41 42 41 39 36 35 38 40 40
5 3 3 4 1 4 0 5 7 3 2 9 8 4 3 5 6 14 12 14 16 14 20 22 24 27 28 33 37 39 41 44 45 47 47 45 46 46 45 40 34 43 44 45
3 3 1 1 1 5 7 13 11 10 8 4 16 8 6 7 6 8 11 15 15 14 11 12 19 26 27 28 29 33 37 38 38 41 45 49 51 49 46 43 45 35 41 37
3 5 4 6 8 4 7 10 17 16 13 11 2 10 8 10 11 15 26 23 18 17 15 16 19 22 26 28 28 28 30 33 34 35 38 43 47 49 48 47 48 44 40 37
2 1 3 5 12 7 7 8 8 12 11 12 9 14 8 13 16 15 27 28 27 30 27 23 22 24 29 29 29 29 29 27 30 32 31 35 37 40 42 45 49 52 49 45
4 2 2 3 2 4 6 7 3 7 6 11 16 9 7 7 8 12 26 26 30 32 35 34 27 24 27 34 33 33 30 31 32 32 33 34 33 34 36 40 44 46 48 50
6 2 1 2 2 3 5 4 6 7 9 14 18 15 10 10 22 26 25 27 29 33 33 32 35 33 28 28 36 35 32 32 31 32 32 31 31 33 35 36 40 40 42 41
11 4 1 2 2 7 6 6 5 5 19 10 11 14 14 25 23 21 24 26 28 29 29 33 34 37 35 37 33 36 35 33 29 31 32 30 29 31 34 36 38 37 34 32
5 3 4 2 2 5 4 2 5 3 9 7 9 12 12 21 12 13 28 28 17 18 21 27 25 25 32 37 33 37 39 33 30 30 30 29 27 28 30 31 33 32 29 27
4 2 11 5 4 8 6 5 2 2 6 16 12 11 19 10 11 27 20 22 27 28 29 30 25 20 22 24 26 31 34 30 27 26 27 26 24 23 23 24 24 25 27 28
5 6 4 3 3 8 7 2 1 6 7 13 16 20 22 29 35 31 23 18 15 16 20 17 14 12 12 14 19 25 25 26 25 22 20 19 15 15 18 19 22 24 28 31
4 6 5 8 7 6 9 11 18 16 15 23 14 17 30 34 34 27 29 24 16 10 9 8 9 9 8 10 14 18 18 18 17 15 13 13 16 19 21 22 25 24 24 26
3 3 5 2 7 12 20 25 30 24 29 31 21 16 17 35 35 26 20 24 27 14 6 5 4 5 6 7 8 9 10 11 11 12 13 16 16 17 17 18 19 20 21 21
4 5 6 10 11 13 23 9 20 27 22 28 31 20 6 27 28 21 21 19 22 22 9 3 3 5 6 6 7 9 11 12 12 12 12 15 16 17 18 17 16 13 11 11
2 3 3 9 5 5 11 23 19 16 14 13 10 22 23 17 23 14 9 8 14 16 11 5 2 7 8 4 6 8 10 11 11 10 14 16 17 17 17 17 16 15 14 15

GFSCGP_850_spd_069.txt.gz
Wind_Speed
8 8 13 19 16 3 6 6 6 4 4 3 6 8 14 7 9 13 15 16 17 17 16 13 11 11 11 12 16 18 20 24 20 25 29 29 35 34 37 41 41 39 39 38
5 17 11 10 10 11 6 7 8 11 4 7 11 10 13 5 7 12 16 20 19 17 18 19 15 12 14 13 15 21 21 21 24 29 25 32 39 40 36 38 38 40 40 39
18 6 14 14 10 12 14 18 13 11 5 5 7 7 6 4 5 9 14 15 19 22 24 23 20 15 14 17 17 19 24 22 24 24 27 34 35 38 38 36 35 43 44 38
13 13 10 11 18 17 15 12 12 9 3 6 3 8 4 10 10 8 13 17 20 23 25 25 24 20 16 16 18 18 22 23 23 25 29 31 35 36 35 38 36 41 42 36
9 10 17 8 15 13 12 9 12 9 7 4 7 7 4 4 7 10 9 15 19 23 28 30 30 23 17 16 19 20 21 26 27 26 26 29 34 33 35 38 36 38 31 40
8 4 8 15 8 17 7 3 2 2 2 6 9 6 5 7 11 9 10 15 17 19 26 28 27 26 23 20 19 20 22 24 26 28 30 32 35 34 35 38 38 36 40 40
9 9 3 3 12 8 6 4 2 2 4 7 5 9 14 9 14 13 13 15 16 13 19 27 31 32 30 26 23 24 24 26 27 29 30 33 37 38 41 41 42 44 42 41
10 8 11 6 6 8 14 14 5 7 5 3 6 6 6 8 11 12 14 17 16 14 16 24 31 33 32 29 28 27 27 28 30 30 31 32 34 41 42 45 44 47 46 47
7 8 3 9 8 10 6 9 10 1 1 2 3 4 9 6 8 7 9 11 15 14 17 21 26 34 32 31 31 30 30 30 31 32 32 34 36 39 43 47 45 51 49 48
3 2 3 4 6 6 8 9 4 2 5 10 4 4 6 2 6 7 6 10 16 16 14 17 23 30 34 32 31 31 31 31 29 32 34 34 35 37 40 42 46 51 51 51
1 1 1 2 4 9 5 8 3 4 3 7 9 6 8 12 11 9 9 12 13 17 13 15 18 23 30 31 32 34 34 34 34 33 35 36 37 38 39 42 43 46 47 48
4 2 3 5 7 4 2 3 7 6 8 3 3 10 3 10 8 7 12 20 18 15 12 13 14 17 24 30 32 34 37 39 38 37 36 36 39 39 40 40 39 38 39 38
6 2 1 0 1 5 6 5 7 6 3 13 7 4 5 6 7 15 13 19 17 12 10 11 13 18 21 24 28 32 34 36 38 40 41 40 38 43 44 44 43 42 43 43
3 3 2 2 2 1 2 4 3 2 3 6 12 13 12 13 13 13 19 25 32 24 13 9 9 14 20 22 23 25 26 29 31 33 37 41 43 46 42 42 43 42 41 41
2 4 6 7 9 8 7 10 9 9 9 8 8 13 11 12 14 19 23 27 27 31 21 18 16 15 16 19 22 24 23 26 27 28 30 33 33 38 44 47 43 40 44 44
8 1 1 2 9 11 12 11 13 9 3 2 6 10 8 18 21 14 24 25 23 27 30 27 25 23 21 24 25 25 27 26 27 26 26 28 28 29 32 35 41 44 44 44
4 1 3 3 3 4 7 12 16 8 7 6 5 6 5 11 15 19 24 26 23 21 23 23 25 29 28 28 28 29 28 28 29 29 29 28 28 28 28 28 30 33 39 42
3 2 1 1 2 6 3 6 6 10 11 11 9 5 7 10 19 26 23 27 30 26 24 27 29 32 28 26 29 29 33 32 31 34 31 30 30 28 27 27 29 30 32 35
12 5 3 3 5 8 11 6 2 5 6 6 7 8 12 20 16 9 21 25 28 33 34 33 28 26 30 31 31 32 37 36 34 36 35 33 32 29 29 29 29 27 27 25
12 10 6 3 2 4 4 2 1 2 6 4 2 5 9 16 8 6 28 35 28 28 31 25 24 23 22 27 30 32 34 31 34 36 33 32 30 29 30 29 25 25 25 25
6 6 11 6 5 7 9 4 2 1 4 5 5 8 9 7 7 22 28 30 30 22 23 26 25 25 23 21 21 25 29 29 31 32 29 28 26 26 25 21 21 23 25 25
8 7 4 4 5 9 4 2 2 6 16 13 18 19 12 19 23 23 28 26 29 32 19 15 17 15 12 12 13 17 23 27 27 25 22 20 19 18 17 18 19 20 21 23
4 6 5 8 6 2 2 4 15 14 18 22 21 29 22 20 26 26 26 22 25 23 19 12 7 9 10 3 6 10 15 17 18 15 15 17 18 16 13 15 19 21 21 24
4 4 4 4 3 12 24 13 10 18 18 23 23 23 25 24 19 21 28 21 19 16 20 13 8 4 7 5 5 6 8 11 11 14 16 18 17 14 15 16 17 18 20 23
4 3 5 10 11 13 17 9 21 22 20 21 22 19 10 15 14 17 22 21 14 10 13 14 8 7 8 8 8 10 11 11 12 16 16 13 11 12 14 15 14 14 14 14
3 4 4 7 2 5 8 18 19 17 19 18 18 17 11 12 13 13 19 20 14 6 7 11 13 8 4 6 13 13 11 12 13 14 15 14 15 16 17 18 22 21 18 16

GFSCGP_850_spd_072.txt.gz
Wind_Speed
25 15 19 25 22 20 15 14 15 10 2 8 14 15 15 15 8 10 12 16 19 19 16 15 14 12 12 13 17 19 18 20 24 28 28 34 37 43 44 43 39 42 37 39
11 21 21 18 16 20 19 16 17 12 6 9 13 17 15 15 12 13 11 16 18 18 20 19 17 15 14 15 17 19 20 22 19 26 24 27 36 38 44 48 48 44 39 40
21 11 19 17 17 18 21 20 17 16 6 12 14 19 20 16 16 13 12 13 16 22 23 23 21 19 17 17 17 18 24 26 30 25 23 29 35 34 36 43 50 48 37 40
15 20 11 19 23 20 21 19 17 17 9 10 2 10 10 8 16 14 15 15 15 20 23 24 24 22 21 19 18 19 23 26 29 29 30 29 32 38 37 41 41 47 41 41
10 13 20 20 20 20 20 15 11 17 16 15 16 9 12 6 12 12 13 16 15 19 23 26 27 25 22 21 20 21 23 24 29 30 29 31 25 36 37 38 41 47 45 39
15 8 10 19 14 15 4 8 8 7 9 12 17 12 8 10 10 7 6 9 8 15 20 22 23 24 23 22 22 23 23 25 27 28 29 29 29 33 36 42 43 42 50 50
14 17 12 12 17 15 16 11 6 8 7 8 7 11 13 4 10 12 11 11 5 10 18 23 27 29 28 28 27 26 25 26 28 29 28 30 30 32 35 33 39 45 42 51
11 12 20 13 14 10 21 19 7 9 9 7 6 8 10 5 3 4 5 7 6 6 14 22 28 30 31 31 31 30 29 28 30 30 30 30 29 30 28 32 38 45 43 45
12 15 14 15 14 13 15 20 16 15 5 5 8 5 7 9 9 9 10 6 8 7 11 21 26 30 31 33 34 33 31 30 31 31 31 31 32 33 33 32 34 40 42 44
4 6 13 18 16 19 13 10 7 10 10 15 9 12 7 6 6 8 5 8 8 6 5 16 22 28 30 30 31 32 32 32 31 32 32 33 35 37 36 36 38 42 41 38
8 4 5 6 14 18 14 12 10 7 12 10 9 7 6 10 10 7 1 8 5 11 6 10 17 24 28 29 30 32 33 33 35 35 34 34 35 37 39 43 44 44 42 42
4 3 5 7 6 3 13 18 17 11 12 8 11 10 1 7 11 8 11 15 8 9 10 4 13 19 24 29 31 33 33 34 35 36 37 37 36 37 40 44 46 47 51 46
7 2 6 10 6 2 8 2 5 6 8 14 10 6 4 7 9 10 13 15 12 12 16 6 9 17 21 26 29 31 34 35 34 35 38 39 39 41 43 45 46 43 43 41
4 4 4 3 2 3 4 3 2 5 7 11 13 14 11 14 16 16 22 24 25 24 18 15 9 14 19 22 26 29 32 34 34 34 37 40 43 44 44 44 44 46 45 43
4 6 7 6 4 4 6 7 6 8 8 9 11 13 12 13 14 16 21 23 23 24 21 16 15 13 13 18 22 26 28 31 33 34 35 38 40 41 41 41 41 42 43 44
5 5 5 9 8 10 13 13 12 12 11 11 11 12 9 8 14 17 20 23 22 23 22 18 15 16 18 17 19 23 27 30 31 33 31 30 32 33 37 39 40 37 38 38
4 3 5 9 3 7 10 17 18 16 11 11 10 7 6 12 13 18 23 26 25 26 26 25 23 19 18 19 24 25 25 26 30 32 30 31 31 32 32 32 32 34 35 34
6 5 2 2 4 6 2 1 4 8 11 10 10 9 9 10 16 21 10 15 21 23 25 26 23 20 20 19 19 24 23 26 30 31 32 32 32 31 29 28 29 29 29 30
14 8 3 4 9 13 16 10 8 7 2 3 6 7 8 11 15 10 10 19 21 25 26 25 27 24 25 18 17 20 22 25 27 32 35 34 32 31 29 28 26 26 27 29
14 13 8 5 5 5 3 3 3 2 4 7 6 9 12 16 8 8 22 24 25 25 26 24 23 25 25 25 24 20 23 24 29 34 33 31 30 29 29 27 29 29 25 21
8 10 13 11 7 4 8 6 4 5 4 13 14 15 16 10 11 18 24 23 23 24 28 25 20 17 19 21 23 21 17 21 23 22 24 24 26 26 28 32 28 24 19 19
8 9 7 9 8 9 3 3 7 8 12 14 17 19 20 20 18 16 18 21 21 22 25 23 18 19 17 14 10 11 11 19 21 25 28 28 28 27 28 25 22 20 21 20
6 7 5 8 8 4 3 3 10 9 11 14 15 18 21 20 17 16 13 14 15 17 21 20 18 16 14 9 3 9 9 9 11 15 18 20 20 19 21 21 23 23 23 24
11 11 7 9 8 12 6 6 10 14 13 14 14 15 18 18 16 10 10 14 16 20 22 20 17 14 12 7 1 4 5 4 6 13 16 18 18 21 20 20 18 20 20 23
8 4 10 13 12 12 16 6 12 14 12 13 14 14 15 15 13 12 10 12 15 14 21 16 13 13 11 7 2 4 6 6 11 15 16 18 18 20 21 20 19 20 18 17
10 11 8 8 8 5 11 12 14 16 15 15 15 16 13 13 12 9 7 8 11 16 15 12 6 9 11 10 8 5 2 4 9 12 14 15 16 16 16 17 19 15 12 12

GFSCGP_850_spd_075.txt.gz
Wind_Speed
22 16 23 26 28 25 22 21 16 11 8 9 15 17 17 16 16 14 14 14 17 18 16 17 16 14 13 13 14 15 18 15 20 21 29 27 33 34 36 40 40 40 33 33
18 26 25 24 24 23 24 23 21 17 10 6 15 18 16 17 17 21 16 19 17 18 18 19 18 17 16 16 15 17 22 18 18 25 24 24 29 36 34 39 35 37 39 35
21 26 26 24 22 23 21 23 20 18 16 11 15 19 20 20 20 21 23 18 17 20 21 23 22 21 17 18 17 18 22 21 21 23 27 27 29 34 36 40 40 44 40 34
12 27 27 23 27 20 22 20 20 18 14 15 14 15 15 13 16 16 18 20 19 19 21 23 24 23 21 19 18 18 20 24 26 27 28 30 34 36 42 46 46 45 44 43
13 20 23 24 19 23 22 16 19 16 15 18 21 10 13 19 16 13 13 17 19 20 20 24 25 24 22 20 21 20 23 25 31 27 28 30 31 34 36 38 51 45 47 43
13 26 16 17 20 18 21 17 14 13 14 16 20 16 12 14 14 12 6 9 16 20 19 22 24 24 24 22 22 23 23 26 29 36 32 29 25 29 36 38 39 55 55 47
15 23 26 19 12 18 23 17 10 11 13 14 13 13 15 6 3 3 5 9 11 12 17 21 25 29 27 27 25 24 25 25 30 32 35 35 33 30 32 38 38 43 57 57
17 18 27 18 19 13 17 17 9 13 10 14 19 8 12 16 12 5 4 6 11 8 12 20 25 28 30 30 28 26 26 26 28 31 33 34 33 34 31 33 39 40 49 53
12 22 11 20 20 15 13 19 21 19 11 6 8 11 3 7 9 8 6 7 10 10 10 15 23 28 30 31 31 30 28 27 28 29 28 29 32 31 31 31 35 35 44 51
10 10 15 13 18 22 22 15 15 12 11 13 12 14 6 10 7 6 10 8 10 12 3 8 20 26 29 30 30 30 30 29 28 29 29 29 29 31 31 32 35 40 39 48
14 11 2 13 14 20 15 17 15 16 13 5 7 5 3 9 5 2 5 7 1 5 2 2 13 20 25 28 30 31 30 31 31 32 30 29 31 31 33 33 35 35 35 39
10 5 8 15 18 23 18 19 18 9 13 11 12 9 3 6 6 5 7 9 10 5 7 1 5 15 23 28 30 33 31 32 34 35 35 34 32 32 35 38 38 38 41 39
8 8 8 11 8 11 14 18 21 18 15 13 3 2 4 5 4 5 8 11 16 19 19 9 3 9 17 24 29 32 32 34 34 34 36 39 39 39 41 42 42 40 39 41
6 9 12 8 6 3 12 8 13 10 9 11 13 14 13 8 9 10 13 14 14 18 19 19 15 8 13 19 25 30 33 34 34 34 35 37 43 44 43 40 39 40 42 42
3 6 11 7 8 3 6 7 10 13 14 12 14 13 10 10 10 11 16 16 16 18 19 19 18 14 11 15 21 25 29 32 34 35 37 41 43 42 37 39 40 40 43 44
3 9 7 13 6 7 10 12 11 12 11 12 12 15 13 7 6 8 13 17 19 22 22 20 19 21 14 14 17 22 26 33 34 37 43 38 35 38 40 41 42 41 42 45
6 7 9 11 9 7 10 15 16 14 15 13 13 6 8 7 8 10 13 12 14 16 18 20 22 21 19 14 13 19 24 24 32 37 38 36 36 38 41 40 38 42 44 42
9 10 7 7 1 10 6 1 4 10 13 13 11 5 7 8 12 15 14 8 15 18 20 23 23 22 22 21 19 17 20 25 31 35 36 35 36 37 35 37 39 41 40 42
15 12 5 5 9 13 15 11 10 9 8 3 0 3 7 10 13 14 6 13 18 19 20 23 25 26 23 22 22 20 18 23 28 33 37 39 38 38 35 37 39 38 38 38
16 15 9 6 11 10 6 4 4 3 7 8 5 5 7 12 7 7 20 20 21 22 21 22 24 24 21 19 18 20 22 22 25 32 36 33 34 35 35 35 34 36 36 34
11 10 14 12 9 7 3 5 1 11 5 3 6 8 11 9 12 20 20 19 19 20 20 19 19 20 23 26 23 21 21 21 21 24 27 29 32 35 35 33 31 30 36 38
11 9 7 9 6 15 9 6 7 8 5 8 9 11 13 15 18 19 18 17 18 18 19 19 20 24 25 25 23 18 14 13 17 18 19 23 26 31 31 31 39 39 36 35
7 8 8 10 8 4 3 8 8 8 9 12 14 14 14 14 16 18 17 14 15 16 16 18 20 24 24 22 20 19 18 17 13 15 22 26 29 29 30 31 32 31 32 34
10 6 4 1 5 1 11 1 11 11 12 12 13 14 15 16 16 16 15 13 14 16 16 16 19 23 21 21 20 20 19 13 11 9 13 19 23 26 25 26 26 28 31 31
8 6 12 10 11 11 2 12 12 13 13 14 15 14 14 15 15 15 13 13 13 13 15 16 16 17 16 17 19 22 21 20 10 4 5 10 16 19 22 19 17 18 20 22
10 8 6 4 11 7 9 14 11 11 14 15 16 15 13 14 14 15 11 12 13 13 14 13 13 10 12 15 15 13 19 21 18 7 3 6 8 11 16 18 18 14 8 5

GFSCGP_850_spd_078.txt.gz
Wind_Speed
19 14 20 21 22 24 21 20 25 23 20 20 18 15 16 17 20 16 20 16 19 22 19 18 17 16 16 16 15 14 14 16 15 19 17 20 22 25 32 35 36 38 38 33
14 21 19 22 23 26 26 25 26 26 21 6 13 14 15 15 14 18 18 21 22 23 21 22 21 19 20 19 16 13 15 17 17 20 22 22 24 25 38 38 36 42 40 37
16 17 16 18 24 25 24 21 21 26 22 18 16 16 17 19 19 21 24 24 16 24 26 27 24 23 22 22 20 20 18 20 20 24 23 25 25 28 35 39 37 43 41 36
14 12 16 13 21 24 24 22 25 22 17 14 17 14 17 16 21 22 22 20 22 16 26 29 28 25 24 23 21 16 15 23 22 24 28 26 32 36 34 39 43 45 42 38
14 11 15 16 22 25 27 21 18 22 20 18 21 13 13 10 13 14 15 23 24 23 20 28 30 27 25 23 24 22 20 25 25 25 30 32 33 33 37 37 47 46 45 40
18 12 9 13 20 21 25 23 17 24 16 16 19 16 13 14 15 10 7 14 19 25 21 24 27 26 26 26 25 22 22 23 30 31 32 31 33 33 35 41 47 47 45 46
18 18 10 13 17 21 24 13 4 6 12 13 16 14 14 13 18 4 6 3 9 20 25 23 26 28 28 30 29 27 26 26 29 33 33 33 32 33 34 38 43 49 50 52
11 14 20 13 19 16 16 16 5 6 7 13 19 11 15 14 16 4 2 2 7 15 19 20 25 28 30 32 32 29 30 26 29 33 36 31 31 31 34 36 42 44 54 58
5 14 11 11 17 17 11 16 22 17 9 6 8 18 3 10 9 6 7 7 12 14 14 18 22 31 32 34 35 32 32 26 29 31 36 38 35 34 34 32 36 43 44 51
7 12 8 13 17 21 23 12 11 4 5 6 5 6 6 10 11 8 7 8 8 10 7 11 21 28 33 33 34 33 30 30 31 31 28 36 40 40 41 32 34 36 37 43
12 11 7 1 11 16 15 16 5 4 8 3 1 6 1 2 7 5 8 17 15 12 8 4 3 17 29 29 33 35 33 31 33 34 32 29 34 36 41 42 41 39 39 41
10 5 10 14 13 15 18 18 19 7 4 7 5 4 8 11 4 7 6 9 15 19 20 8 4 7 23 27 30 34 35 34 34 35 35 33 30 31 33 39 39 38 39 42
9 4 7 5 8 11 11 15 14 14 11 4 2 2 8 9 11 7 5 10 9 12 14 9 17 5 11 22 27 30 33 34 35 34 36 37 37 38 38 38 38 37 38 39
4 7 10 9 3 3 10 14 14 13 13 10 9 11 12 11 14 15 4 8 11 12 13 15 16 21 6 16 21 26 30 33 33 34 36 40 43 43 41 40 40 38 38 40
7 7 11 13 10 11 4 12 11 13 14 9 9 14 6 6 9 15 9 10 15 20 22 24 26 25 23 22 16 22 27 30 34 33 37 42 42 42 41 42 42 42 43 42
9 8 9 14 10 10 16 11 13 12 18 9 7 12 14 21 6 9 11 11 17 17 19 22 23 25 26 28 26 15 21 27 30 35 38 40 39 41 42 43 42 42 45 46
11 5 8 12 8 13 9 11 11 10 9 9 9 10 4 5 8 9 8 10 13 13 16 18 20 22 25 23 23 27 23 18 28 34 39 40 40 41 44 44 43 46 47 45
12 11 8 8 8 7 10 10 4 8 14 15 15 7 3 3 7 13 12 18 15 14 14 14 18 21 20 19 21 21 17 22 20 33 37 39 40 43 42 41 45 46 46 46
15 12 7 8 7 12 15 6 3 7 8 11 15 3 8 8 5 21 20 17 13 15 17 18 18 15 18 20 19 20 21 18 19 23 30 38 39 39 39 40 44 45 42 43
17 13 10 5 7 6 7 15 3 5 7 11 9 9 7 6 5 8 19 17 13 14 17 16 16 18 25 28 27 22 17 17 17 21 21 20 38 39 41 42 41 39 39 40
14 11 12 10 7 5 6 11 9 11 4 9 8 12 13 8 9 18 20 16 12 16 19 18 17 19 24 28 28 26 23 20 19 20 22 23 17 36 38 38 37 35 34 35
11 9 6 7 6 12 7 7 8 12 14 11 12 14 14 11 12 14 15 18 17 17 18 17 16 19 21 21 24 26 24 24 24 24 23 22 17 21 30 33 35 36 37 43
5 8 6 9 7 8 8 17 11 11 13 16 15 15 14 12 12 13 14 16 17 17 16 15 16 18 19 19 19 20 25 29 26 23 20 21 20 14 18 28 34 37 38 38
4 4 2 2 6 5 12 20 14 14 14 16 13 11 11 11 13 13 14 15 15 15 16 17 16 18 19 16 16 16 17 19 25 32 28 19 13 12 11 16 21 25 30 32
3 4 5 5 10 6 16 17 10 17 15 14 13 12 12 13 13 15 14 14 15 15 16 17 18 18 19 18 17 17 16 16 17 20 23 23 16 9 4 7 10 15 18 22
9 4 2 2 10 13 13 10 16 15 13 13 13 11 11 12 11 11 9 9 10 11 13 14 15 15 16 16 15 15 14 13 13 14 16 16 13 9 7 14 14 13 9 9

GFSCGP_850_spd_081.txt.gz
Wind_Speed
9 4 6 7 9 12 13 16 17 15 17 17 17 10 14 12 13 14 24 23 30 30 29 28 26 23 21 20 20 15 14 21 21 20 20 20 18 19 24 31 35 44 42 39
5 11 9 8 12 13 10 17 20 18 23 17 19 16 10 8 8 18 26 29 29 35 33 33 31 29 26 23 22 16 14 17 21 22 23 23 25 24 25 29 38 39 40 38
9 3 8 3 9 12 14 17 18 20 27 20 20 11 18 7 7 19 19 37 35 39 38 39 36 33 29 26 24 20 15 17 19 24 22 20 26 27 34 35 40 44 44 44
8 8 6 4 8 6 16 13 16 20 19 8 10 15 20 8 14 16 24 24 28 31 42 43 39 35 32 27 24 21 16 18 19 24 25 25 28 32 36 38 37 41 40 39
5 5 2 5 10 9 11 7 12 12 15 13 20 11 15 12 7 16 19 29 30 25 42 45 42 35 33 27 24 22 18 20 24 27 29 29 26 27 32 37 39 40 42 42
5 5 6 3 1 2 6 9 8 10 8 6 19 13 9 12 13 11 7 23 36 31 41 44 42 36 31 25 23 24 22 22 26 30 31 28 29 28 32 38 41 41 45 44
4 6 5 5 3 2 3 9 3 5 5 7 11 12 15 8 15 15 14 19 34 35 35 43 43 37 32 29 25 25 25 24 28 30 33 34 32 30 32 35 37 42 47 48
5 5 11 9 9 7 5 3 3 4 3 2 12 8 9 14 22 9 11 12 10 26 34 45 43 37 33 29 27 26 27 27 28 32 33 35 34 33 35 35 35 42 50 51
2 6 2 10 7 11 3 7 6 6 3 2 4 8 9 12 20 10 8 9 10 25 32 39 38 37 34 30 29 28 28 28 28 30 34 35 36 34 34 33 34 37 45 50
2 5 6 7 7 12 11 1 2 3 3 3 4 5 4 2 6 7 7 6 16 24 28 32 36 36 34 33 30 30 27 27 28 30 33 36 35 34 35 34 35 37 39 45
5 7 5 7 6 11 6 9 4 4 4 2 1 4 14 19 12 14 11 22 28 25 14 11 14 34 36 35 32 31 30 27 28 29 30 32 36 36 36 37 35 35 34 39
4 4 4 9 10 11 13 13 13 2 2 4 2 4 15 15 15 14 10 20 25 23 29 28 22 16 33 34 32 31 31 29 26 29 30 31 29 35 39 40 39 36 37 38
3 3 4 5 3 5 5 12 16 7 7 3 2 1 8 15 17 23 20 24 31 31 31 31 30 31 6 26 30 31 31 30 28 29 32 33 34 34 36 40 42 41 39 40
4 2 2 6 4 1 4 9 12 12 3 4 6 10 3 9 17 18 27 27 28 28 28 29 31 24 23 20 11 28 29 30 29 28 32 35 37 37 36 35 36 40 42 43
6 5 4 9 12 8 7 8 6 11 12 6 2 10 9 4 11 6 21 17 26 25 27 25 26 27 23 22 18 7 10 32 28 29 31 36 38 38 38 38 38 38 41 43
6 5 5 8 10 13 7 9 8 3 2 8 6 9 10 13 6 6 18 17 20 21 21 23 23 24 25 24 22 16 16 9 24 31 32 33 36 39 42 43 43 42 43 44
4 4 3 4 8 6 5 9 10 12 16 14 9 8 12 7 9 4 18 19 19 17 23 24 23 23 24 26 27 23 16 11 9 8 35 36 37 39 41 44 44 46 47 47
4 6 3 3 7 5 6 6 10 12 8 9 3 6 11 17 25 21 18 18 21 23 22 22 20 21 22 22 21 23 23 19 13 11 9 11 27 41 43 44 46 46 47 48
8 4 2 2 3 9 14 2 3 1 3 7 5 11 12 18 20 19 23 22 23 21 20 18 18 18 20 22 22 21 22 24 23 18 17 17 11 17 31 47 46 46 47 48
14 6 5 2 4 5 10 5 11 2 3 11 16 14 15 20 8 5 30 27 27 22 19 16 16 15 16 20 21 22 23 25 25 26 24 24 24 23 22 32 48 47 46 46
10 6 12 7 4 7 4 4 8 4 2 14 21 19 20 12 9 21 24 25 20 17 16 15 17 17 17 17 18 19 20 21 21 24 28 29 28 26 24 25 36 43 46 44
7 7 5 4 4 7 10 3 3 4 17 21 24 23 23 23 23 25 23 21 17 16 16 17 18 19 19 18 16 16 17 19 21 22 23 26 29 28 25 23 24 32 38 41
3 4 4 7 6 4 20 19 19 19 21 22 22 20 19 19 21 20 15 13 14 15 17 18 18 18 19 19 19 18 19 18 20 22 23 22 23 24 25 22 17 18 21 32
4 7 2 2 11 13 23 21 26 21 26 23 13 13 11 10 10 11 10 11 13 16 19 20 20 21 22 21 20 20 19 18 18 20 21 21 21 21 20 19 14 10 10 12
4 3 3 3 10 17 15 17 15 20 21 16 11 9 9 4 9 6 7 10 12 15 17 18 18 18 18 18 17 17 16 15 15 17 18 18 20 20 20 18 14 13 11 9
7 5 3 4 13 14 9 12 11 14 13 12 14 8 9 8 8 5 7 8 9 12 12 13 12 11 13 13 13 12 12 12 11 11 14 15 15 16 17 19 20 21 16 17

GFSCGP_850_spd_084.txt.gz
Wind_Speed
3 3 6 10 7 5 4 8 9 5 7 12 10 19 14 20 26 23 26 30 27 33 37 36 33 29 26 24 21 19 16 21 21 20 21 19 15 16 24 33 37 48 44 40
3 7 6 6 6 7 8 7 7 7 2 7 17 23 15 18 13 20 27 30 30 33 35 40 37 32 29 26 24 20 17 20 24 23 21 22 17 17 24 29 32 44 39 39
5 7 10 8 8 10 8 7 5 8 7 4 10 19 19 22 19 25 26 28 34 34 40 44 41 36 32 30 26 22 19 18 26 24 23 22 18 19 22 29 30 42 40 40
6 14 8 6 6 5 4 3 3 6 5 3 9 8 13 14 18 17 21 24 27 35 42 48 45 39 36 33 27 23 20 17 22 28 26 28 27 28 26 29 36 38 38 37
6 4 5 4 5 3 2 5 3 1 3 7 8 6 15 9 17 19 12 24 26 30 40 47 49 44 39 35 30 26 21 18 21 27 29 27 28 28 22 26 34 36 37 38
6 4 3 7 3 4 6 4 4 4 2 8 14 9 14 14 15 16 11 19 21 31 40 50 52 47 42 36 31 27 24 20 23 26 29 31 30 29 29 31 33 37 40 42
2 5 3 4 6 3 5 5 3 5 6 11 14 13 19 8 13 14 16 21 33 27 43 44 49 49 44 40 34 29 27 24 24 27 31 32 31 30 30 32 39 40 44 46
6 3 9 5 7 6 5 8 3 5 5 2 10 9 6 22 23 30 31 32 37 26 43 49 54 52 46 41 36 31 29 26 25 26 31 33 34 33 29 31 34 42 42 43
4 4 1 5 5 10 6 5 5 5 3 1 4 6 6 14 19 18 22 19 12 35 41 47 50 50 45 41 35 32 29 27 25 25 29 34 35 34 34 32 34 34 40 44
1 2 3 4 6 1 4 6 2 4 2 3 4 3 4 14 17 21 16 7 9 21 37 43 45 46 42 38 35 33 28 25 24 24 26 30 34 37 36 34 35 37 34 36
3 3 6 2 4 9 5 2 5 3 4 2 2 1 4 9 12 18 18 23 23 19 14 25 38 42 40 37 35 33 30 27 26 25 25 28 33 36 38 37 36 36 36 36
1 1 3 8 7 8 11 6 6 3 2 3 1 3 7 10 14 13 16 18 22 30 31 16 24 19 23 29 32 32 30 28 26 23 24 26 28 33 35 37 36 34 36 36
1 1 3 6 4 7 5 4 4 9 3 6 3 1 7 13 15 21 16 18 19 30 43 41 28 21 12 7 19 24 26 29 28 24 23 25 29 29 32 35 37 37 37 38
3 3 4 3 2 3 5 6 10 8 3 2 5 5 4 4 6 15 23 11 15 28 37 39 35 34 30 18 11 7 12 22 26 29 29 26 27 29 31 31 34 35 39 41
3 2 3 5 7 8 11 12 8 8 10 5 6 7 4 3 8 10 18 13 21 27 30 35 32 29 28 24 19 15 7 3 15 27 32 33 31 29 30 33 33 34 36 38
4 2 5 5 6 10 10 16 9 10 5 4 6 5 5 4 10 11 9 15 20 28 30 31 25 27 26 22 21 17 14 14 8 13 24 31 32 36 38 37 36 37 37 39
2 3 5 4 4 7 5 12 13 10 8 10 7 6 11 6 5 10 14 9 18 24 29 25 24 24 24 22 18 16 17 13 6 9 1 15 24 22 28 37 40 41 43 43
4 4 3 4 5 4 5 18 12 14 8 16 7 7 19 18 10 10 16 23 22 25 23 21 18 20 21 19 19 19 17 14 13 10 6 4 5 11 19 27 34 42 47 48
8 4 2 3 3 7 18 6 5 3 1 12 11 16 22 23 29 23 24 25 23 22 21 18 18 17 15 16 17 18 19 20 19 17 17 15 13 13 14 16 22 31 39 48
8 5 4 2 3 3 7 9 10 9 2 12 9 15 11 19 10 7 15 19 20 18 18 18 16 14 14 16 16 16 17 18 20 23 24 23 21 17 16 18 22 23 28 39
2 1 11 4 4 6 9 13 18 4 3 8 18 17 20 11 11 19 16 18 17 16 16 15 16 17 18 16 15 14 16 19 20 19 20 22 24 24 21 19 20 24 26 28
4 5 4 4 4 9 15 13 4 6 16 18 20 21 25 25 23 17 14 14 14 15 16 17 17 18 18 17 17 17 16 16 16 18 21 23 23 23 24 22 19 18 24 26
4 5 3 5 5 7 16 17 16 17 19 18 21 14 18 18 15 13 12 11 14 15 17 16 16 14 15 16 17 15 15 15 14 17 19 21 22 22 22 21 20 17 16 20
4 5 2 2 7 13 18 22 21 17 18 13 12 9 12 15 11 9 8 12 12 14 15 15 15 15 16 16 15 14 14 14 14 14 15 17 20 21 21 22 20 20 18 18
5 0 4 3 8 14 17 17 15 15 13 8 7 10 7 7 10 10 9 8 10 11 12 12 14 14 15 16 16 15 13 12 11 12 12 14 16 18 20 23 24 25 24 19
9 5 3 1 10 12 10 12 9 4 9 8 5 3 9 9 8 6 7 7 8 9 10 11 12 13 15 14 14 15 15 13 11 10 10 11 12 14 17 21 24 23 24 25

GFSCGP_850_spd_087.txt.gz
Wind_Speed
4 4 7 11 7 4 3 3 3 4 5 4 6 16 12 12 11 13 23 26 31 33 34 32 43 38 34 31 29 24 22 19 19 19 18 18 18 17 19 24 31 37 36 38
1 7 8 7 6 6 7 6 4 5 2 4 8 23 19 10 15 17 22 27 33 28 30 34 41 40 37 34 31 27 24 20 18 18 19 21 18 17 18 21 25 38 41 40
6 5 5 8 6 5 4 4 3 6 4 4 7 22 23 22 11 20 21 23 28 26 32 38 42 42 41 38 34 29 25 20 19 18 18 17 19 16 19 21 26 26 37 43
5 7 5 5 5 6 4 2 2 2 2 4 3 13 20 18 15 11 15 18 25 24 31 39 46 46 44 40 35 29 25 21 20 21 23 23 23 23 24 24 27 30 38 42
6 2 5 4 4 6 3 3 4 3 1 2 4 4 14 6 11 15 9 17 23 25 28 44 49 49 47 42 36 31 26 23 21 23 23 23 25 24 22 23 25 22 38 35
5 1 1 3 5 2 6 4 3 2 3 7 9 11 21 9 18 17 15 20 24 23 26 39 49 51 48 43 36 32 28 24 22 25 25 26 27 27 25 24 27 28 32 35
2 2 2 4 5 5 6 5 3 3 4 6 4 12 18 22 20 15 15 17 21 20 21 34 42 48 49 45 40 35 31 28 24 25 27 29 29 28 28 23 24 32 34 36
5 2 8 4 5 5 3 6 4 4 2 3 5 8 6 6 11 9 13 21 21 24 25 28 43 51 55 48 43 38 33 30 26 25 26 27 30 28 27 25 23 27 31 34
4 2 2 3 5 9 4 4 1 1 6 5 5 6 6 13 18 19 16 19 22 23 31 30 42 49 54 50 44 40 34 30 27 26 27 28 31 31 31 29 26 27 31 35
1 2 1 3 5 4 6 6 2 3 3 4 5 5 3 12 18 18 18 15 24 19 15 27 41 46 49 50 43 37 33 29 26 26 26 26 29 31 30 27 29 30 30 34
2 3 2 3 4 8 3 3 2 2 3 3 3 3 7 12 15 17 17 22 27 25 4 18 26 30 37 43 41 39 34 29 26 25 25 26 26 29 30 30 30 28 31 31
3 3 1 6 3 4 5 4 5 3 2 3 5 3 8 7 15 16 22 25 29 28 18 16 16 18 26 31 33 35 31 29 25 23 24 25 24 26 30 34 33 32 31 32
1 2 2 4 2 6 5 2 2 7 2 7 3 4 7 8 15 24 23 27 25 28 30 30 27 21 16 12 13 18 21 25 25 22 22 24 25 27 27 29 32 33 32 33
4 2 2 2 5 3 3 5 4 5 3 2 6 5 5 4 4 15 19 24 21 25 28 33 35 30 25 20 15 12 11 15 18 21 23 24 24 25 26 25 27 29 33 35
4 1 1 4 6 6 9 11 11 8 9 6 7 10 5 3 7 4 18 18 18 25 28 28 32 33 30 27 22 14 7 8 15 16 16 19 19 22 24 26 25 27 30 32
3 2 4 3 7 8 9 11 12 8 9 9 11 13 7 5 6 9 7 10 18 19 23 20 24 31 28 25 23 17 15 13 6 11 14 15 16 18 21 26 30 31 33 35
2 2 3 3 7 9 5 4 7 4 5 3 4 5 1 0 4 10 10 14 16 16 17 21 24 27 24 25 22 17 15 10 9 9 9 10 10 12 17 22 25 26 29 34
3 4 3 3 4 3 6 12 11 5 7 5 13 8 8 10 20 17 12 18 15 15 18 18 19 20 19 20 20 17 16 14 12 10 7 3 1 5 8 11 17 25 27 32
6 4 1 2 3 6 10 4 5 8 11 4 9 5 14 18 25 19 19 20 14 16 15 14 12 13 12 15 15 13 12 13 13 14 14 13 11 8 7 8 12 15 17 21
5 3 3 1 3 5 5 4 15 9 6 9 7 21 18 16 5 4 12 14 14 13 13 12 11 9 12 14 12 10 11 11 12 14 15 15 14 13 13 13 13 13 15 19
2 1 7 5 5 6 4 9 13 1 4 12 16 8 9 5 10 18 13 14 11 11 10 9 9 10 12 11 10 9 10 10 12 14 15 17 17 16 15 14 14 15 16 16
4 4 3 2 5 8 11 7 3 3 18 16 20 18 24 23 20 16 13 12 10 9 7 8 9 10 11 10 9 9 8 10 10 12 14 15 16 18 18 17 15 13 13 14
2 3 2 4 3 9 16 17 17 18 17 16 20 16 16 15 12 9 8 9 9 9 9 10 9 9 10 10 9 8 9 7 9 9 11 13 15 16 14 14 14 15 14 14
3 3 3 4 8 10 11 16 21 19 20 16 15 14 11 11 7 5 7 8 7 8 10 11 10 10 12 13 13 11 8 6 5 6 6 8 12 14 13 13 15 15 16 16
3 9 6 3 5 5 15 14 13 16 14 14 13 12 12 8 8 4 3 5 5 7 8 9 11 13 14 14 14 13 11 10 8 7 8 9 12 14 17 19 21 22 22 18
7 4 4 3 8 7 7 11 8 10 10 10 7 8 8 6 6 2 3 2 5 8 9 11 13 13 14 14 14 15 14 12 9 9 9 10 12 13 16 19 21 20 20 21

GFSCGP_850_spd_090.txt.gz
Wind_Speed
9 4 8 8 10 5 2 3 4 3 6 4 9 16 6 12 11 11 20 29 31 33 30 26 21 26 38 39 35 33 29 25 22 21 20 19 18 20 21 18 23 21 21 26
3 12 8 8 6 5 5 5 5 5 5 3 8 22 9 9 10 17 21 26 28 31 29 25 21 25 34 41 38 35 31 26 22 21 20 17 17 17 15 15 20 25 28 25
7 3 9 12 6 7 5 5 4 5 4 4 6 25 11 5 10 20 21 27 28 32 27 23 22 26 37 43 41 37 32 27 23 19 19 17 18 16 16 18 18 21 33 28
4 5 4 5 6 7 6 7 6 3 2 4 4 12 15 15 21 9 19 26 32 35 30 23 20 27 41 44 42 37 32 27 24 21 20 19 21 24 19 19 21 21 23 31
6 3 5 4 6 8 5 5 6 3 3 2 2 4 5 10 20 22 16 27 34 34 29 25 22 25 38 42 44 39 32 27 24 22 20 19 18 20 20 19 20 18 19 24
7 1 4 4 4 4 9 5 4 3 2 2 6 6 8 4 3 17 20 27 29 34 28 24 24 31 39 43 41 39 34 30 25 23 22 22 19 21 20 20 22 22 22 31
2 2 2 5 7 4 3 5 3 5 2 4 5 6 17 17 17 13 18 23 25 24 28 27 27 32 37 46 45 41 36 33 26 23 23 22 21 21 21 21 23 23 27 29
6 2 8 4 4 6 2 4 4 4 3 3 4 6 6 2 8 20 26 26 26 17 20 23 28 30 35 46 48 43 38 35 28 24 23 23 22 23 24 22 23 23 27 29
5 1 2 3 4 5 2 3 2 3 3 1 4 7 6 11 17 19 26 33 31 30 18 23 28 32 36 45 49 46 41 37 29 24 24 24 22 23 24 23 21 18 22 26
4 5 4 2 6 9 3 7 4 2 3 4 5 5 3 12 15 18 22 28 34 35 17 18 30 31 36 40 42 44 43 36 28 23 22 22 21 22 22 20 20 19 18 21
2 3 1 4 2 6 2 3 5 3 2 3 3 4 2 6 8 12 18 31 28 31 12 12 17 21 27 32 33 39 39 34 27 21 19 18 19 20 22 20 20 20 20 20
3 3 3 4 4 4 4 4 4 3 3 4 4 6 3 6 6 8 20 30 23 24 27 18 12 13 18 24 28 30 31 29 23 17 16 17 17 17 21 22 22 21 20 20
2 3 3 3 3 7 6 2 4 3 1 4 3 5 1 6 3 5 17 30 21 21 30 32 28 22 17 17 20 20 20 22 18 14 14 15 16 16 18 19 22 23 23 23
6 4 5 3 3 1 2 3 2 4 3 4 7 10 6 8 5 5 9 22 21 23 33 30 31 32 27 23 20 19 18 17 15 14 15 16 15 14 14 17 17 20 24 25
4 4 4 4 2 2 2 5 8 8 10 8 8 12 15 17 8 2 12 14 23 29 31 30 32 31 27 26 19 13 10 13 13 9 9 10 10 13 14 17 20 19 18 21
5 2 2 1 3 4 3 10 6 9 11 11 14 17 6 16 11 8 9 13 18 18 21 27 30 31 29 28 22 19 16 13 11 15 14 14 14 11 13 16 19 20 20 20
2 3 2 2 1 4 4 3 5 7 5 4 6 4 2 12 9 9 19 17 15 18 20 25 28 29 31 29 21 18 15 16 10 11 9 10 10 13 15 18 20 22 26 23
3 3 2 1 3 2 4 7 3 5 5 8 6 4 7 9 16 26 18 21 15 15 17 20 21 22 24 18 13 15 19 17 13 13 9 6 4 6 8 11 12 15 19 21
3 3 2 1 1 5 11 2 3 3 11 6 6 1 16 16 17 16 16 16 16 15 16 17 15 15 13 10 13 11 15 13 13 14 12 11 9 6 3 3 9 12 14 16
6 4 2 0 1 2 5 2 8 3 8 11 12 9 14 15 2 2 9 12 15 15 14 15 14 13 9 12 10 11 11 11 14 13 13 12 10 9 7 5 4 4 4 5
3 2 3 3 4 5 5 12 11 3 4 11 15 12 10 6 10 12 11 14 11 11 11 11 10 10 11 9 9 11 11 12 12 11 11 10 10 10 10 9 7 6 6 5
3 3 3 2 3 7 14 4 3 3 11 13 16 19 24 22 20 17 13 14 12 12 12 11 11 11 10 9 9 10 11 12 10 10 11 13 13 11 8 6 6 5 5 5
3 1 1 4 3 7 11 13 14 12 15 16 19 16 19 17 15 14 12 10 12 12 12 11 11 10 11 11 10 10 10 10 10 9 10 12 16 16 12 10 9 7 8 8
4 6 2 2 8 12 16 14 14 14 15 15 16 14 14 15 12 11 11 10 10 11 12 11 10 11 12 12 11 10 8 8 8 8 8 8 9 12 12 12 12 12 13 13
4 8 6 2 4 7 18 17 11 13 14 16 15 13 12 9 10 8 10 10 10 11 11 11 12 13 14 14 13 11 9 8 6 5 6 7 8 11 13 16 19 19 19 18
4 3 2 2 9 4 8 12 11 15 17 14 11 11 10 8 8 7 9 8 9 11 11 11 12 12 12 13 13 13 12 9 6 7 9 9 9 12 13 15 17 18 19 20

GFSCGP_850_spd_093.txt.gz
Wind_Speed
12 10 17 17 15 11 8 9 12 3 4 4 13 18 15 14 16 14 19 21 24 29 28 29 28 26 26 30 33 38 37 33 30 27 25 25 22 22 22 23 19 16 17 25
5 20 12 13 11 13 11 14 14 7 8 5 13 20 15 13 20 24 23 22 24 27 29 28 26 26 27 30 33 39 39 35 32 28 24 23 18 21 21 17 15 18 21 13
14 3 14 12 9 12 11 15 9 11 3 4 10 22 17 13 16 18 15 20 25 27 30 32 27 26 25 28 34 40 39 36 33 28 25 21 18 17 19 19 17 18 17 17
9 9 7 13 17 14 15 10 9 6 4 7 2 9 9 12 7 6 7 16 23 27 29 32 30 28 27 28 33 39 40 36 33 29 26 22 19 22 23 19 19 20 21 27
8 7 10 5 8 13 9 9 9 5 4 2 4 5 3 7 1 7 11 16 23 24 24 26 28 32 29 29 34 40 40 37 34 30 26 21 20 20 20 16 18 22 15 30
4 2 6 7 3 10 10 8 6 4 2 4 7 4 2 3 3 17 17 25 28 29 26 23 25 28 29 28 34 40 39 38 35 31 27 22 19 18 21 20 18 20 20 22
3 3 3 6 8 7 3 6 2 3 4 4 4 6 7 11 10 11 15 25 29 28 27 23 18 26 28 31 37 39 39 38 35 31 28 21 17 16 19 20 21 21 20 24
9 5 8 4 4 9 5 5 4 4 3 1 4 4 0 4 7 12 19 24 32 33 31 25 19 22 30 32 38 41 41 39 36 30 28 22 18 18 18 15 20 21 24 22
6 2 2 3 4 6 4 4 2 3 1 1 2 4 6 2 9 14 20 29 35 35 35 30 19 21 28 33 38 41 42 40 37 30 26 22 20 21 21 18 17 18 20 24
6 6 3 6 5 11 3 8 4 2 2 2 4 4 6 9 13 12 14 22 35 33 34 29 18 22 25 27 30 33 37 39 36 29 25 20 19 19 21 20 20 19 17 21
2 3 4 4 1 7 4 3 4 4 2 1 3 3 1 7 7 12 13 19 22 31 35 23 10 8 16 19 27 28 33 36 34 28 22 21 18 18 21 18 16 16 14 16
1 4 5 3 2 7 3 4 3 2 4 1 1 6 3 6 7 10 13 16 21 29 31 22 13 5 9 16 21 24 30 32 32 26 21 18 16 15 17 17 15 14 14 14
0 2 6 8 5 7 6 3 6 7 3 4 3 4 1 8 12 11 12 19 25 28 26 20 24 23 13 15 16 20 25 25 26 21 17 15 14 13 14 15 16 16 15 14
5 5 5 5 6 3 4 2 3 3 2 1 7 18 17 16 15 17 10 19 26 27 20 22 26 26 23 24 20 21 18 16 15 13 13 11 10 9 10 13 12 15 16 16
3 6 6 8 6 3 2 4 3 5 6 5 8 16 18 16 13 16 9 17 21 20 15 30 29 28 33 22 18 19 20 19 13 13 11 8 8 8 10 13 14 14 13 16
5 2 2 3 5 4 1 6 4 7 8 11 14 14 8 11 19 9 14 19 17 20 24 29 24 37 31 29 26 22 21 21 18 14 13 13 11 11 14 16 16 15 16 20
2 3 1 2 2 4 4 2 3 2 3 3 6 6 4 12 16 20 14 18 18 18 22 24 30 31 31 30 27 27 25 20 16 16 11 12 11 10 12 13 14 14 17 18
1 2 2 2 1 1 1 6 2 2 4 8 8 7 4 12 17 17 18 19 19 19 19 23 26 27 26 24 23 25 23 22 18 13 12 9 8 7 8 9 10 12 13 16
0 2 3 2 1 5 2 6 6 6 9 10 9 8 11 17 20 15 14 16 15 15 15 18 19 19 18 18 18 18 18 20 15 12 10 9 9 9 5 5 6 8 8 9
4 4 3 2 2 1 4 9 13 4 8 14 13 11 10 13 3 3 9 11 12 12 14 14 15 14 12 14 13 11 13 16 14 13 13 9 11 10 6 4 3 2 3 4
3 4 4 2 1 5 6 16 13 2 5 13 11 13 10 5 9 16 11 12 12 12 13 13 13 12 12 11 10 12 13 12 11 10 9 9 11 10 7 6 4 3 2 2
2 1 1 2 3 3 16 6 4 2 12 10 11 12 20 20 18 17 15 12 11 12 13 13 13 12 12 12 10 12 13 11 9 8 9 11 12 11 8 6 5 4 4 5
2 4 2 3 3 9 14 10 12 14 12 14 14 12 16 18 15 13 13 13 11 13 12 13 13 12 13 13 13 13 13 9 9 8 10 13 14 12 10 9 10 9 9 9
3 7 2 2 5 8 14 14 16 17 15 15 14 13 12 13 10 11 10 10 10 12 14 13 13 14 16 15 14 13 11 11 9 10 12 14 16 16 15 15 15 14 15 15
2 6 4 1 4 4 15 14 11 13 14 14 13 12 12 9 9 9 9 8 10 11 12 13 15 16 17 16 15 14 13 11 10 10 12 13 15 16 18 20 20 21 21 19
3 3 2 3 7 5 5 9 11 13 14 13 10 11 12 10 9 8 10 10 10 11 12 13 15 15 16 15 15 15 15 13 11 10 12 13 13 15 16 18 19 20 18 17

GFSCGP_850_spd_096.txt.gz
Wind_Speed
27 17 24 29 23 19 17 13 17 11 9 11 16 17 15 14 16 17 19 22 24 26 26 27 27 24 22 21 22 26 29 34 35 33 30 28 27 26 27 25 23 23 23 28
15 25 21 20 20 16 9 16 20 14 9 13 16 20 18 16 14 22 24 25 26 27 26 27 27 26 22 22 25 26 32 37 38 35 32 29 26 27 24 24 23 24 23 20
22 11 19 16 15 17 21 22 18 15 12 13 16 20 23 19 21 23 17 13 13 16 21 25 27 26 24 23 26 27 32 38 38 34 32 28 21 22 21 22 21 23 17 18
18 16 14 17 21 20 20 18 14 12 10 12 2 5 3 7 9 7 2 5 10 13 16 19 24 25 26 25 22 25 33 38 38 37 32 29 23 20 20 20 20 21 14 15
12 15 12 16 20 19 18 11 12 15 13 13 14 6 3 3 4 6 3 8 11 15 16 17 18 22 23 22 22 23 33 35 38 37 32 27 19 15 15 16 20 21 17 19
7 10 13 18 8 15 9 11 9 7 7 9 15 11 5 5 2 4 5 8 13 17 19 19 18 16 20 22 23 26 34 35 38 37 34 27 21 16 17 20 20 22 21 22
9 11 8 15 11 9 15 16 7 7 6 8 7 6 6 2 2 3 7 10 14 19 21 21 20 17 16 22 25 28 34 36 39 38 34 29 22 19 17 19 22 24 25 22
13 9 11 12 12 10 18 17 5 8 6 6 8 6 6 4 2 6 10 12 17 23 22 23 23 20 16 22 25 30 34 35 38 38 34 29 21 20 17 18 20 21 23 21
13 8 12 12 9 15 14 12 2 0 2 2 6 5 10 5 5 10 14 18 20 26 27 24 26 21 17 21 26 29 30 28 34 34 34 29 25 20 17 18 17 19 21 23
7 6 12 5 10 3 12 12 6 4 5 6 6 2 4 5 10 14 18 21 24 26 27 26 25 23 12 17 22 26 30 30 31 33 31 28 24 23 19 18 20 20 18 20
10 7 10 10 11 14 9 9 3 3 3 1 1 5 6 8 11 15 16 18 23 26 25 25 24 17 3 11 19 24 28 31 31 31 29 26 24 25 22 18 20 19 18 19
1 6 13 9 2 6 5 6 6 4 4 2 2 1 6 8 12 17 16 15 18 20 24 23 25 20 2 9 15 18 22 29 28 28 26 22 21 23 25 23 22 19 20 17
0 8 10 9 9 7 6 7 6 7 2 4 2 4 1 12 14 16 9 14 18 23 25 25 29 25 11 13 12 13 22 22 23 23 22 21 19 20 22 21 18 18 17 16
4 3 2 5 9 10 9 8 5 2 2 2 5 11 13 14 14 17 10 13 20 28 28 28 30 29 17 16 16 20 20 20 22 22 18 21 20 18 20 17 16 18 18 17
6 12 13 14 12 10 9 6 4 4 3 4 6 12 13 15 17 9 14 16 22 26 32 34 30 28 24 19 20 20 19 20 21 22 20 18 15 15 15 15 13 12 15 16
8 4 5 10 8 6 4 2 2 3 3 5 6 6 11 10 17 20 18 17 21 20 23 30 30 29 28 23 22 24 23 19 20 23 23 22 20 17 17 19 19 19 17 16
3 1 2 4 3 2 5 7 3 4 5 6 7 11 9 8 13 14 12 15 17 17 20 24 24 28 23 25 27 30 26 19 19 19 18 18 19 18 15 13 14 15 17 18
3 3 3 2 2 3 6 5 8 5 8 11 11 12 10 12 16 16 14 15 15 14 16 20 22 22 28 29 29 26 24 25 22 22 20 15 13 14 13 12 12 11 13 14
6 2 3 1 2 6 7 9 8 6 6 14 14 15 16 16 16 17 15 13 13 14 15 15 16 18 21 23 17 23 23 22 21 23 22 17 14 10 9 7 8 8 9 10
4 4 1 1 2 2 6 11 11 7 3 14 15 16 8 11 2 4 10 11 13 13 14 15 15 12 11 14 18 18 18 17 17 19 18 15 12 9 6 6 1 2 4 4
3 3 4 3 3 5 11 17 19 4 6 12 14 15 14 5 7 11 8 12 14 13 13 13 14 16 14 10 8 7 10 12 15 12 13 11 9 7 4 4 6 7 7 7
4 3 2 1 1 2 22 8 6 7 13 11 12 11 14 15 13 12 11 12 12 12 13 13 13 13 13 11 10 11 12 12 11 12 11 12 11 10 8 7 8 8 8 7
2 4 4 5 3 6 13 11 8 10 12 13 11 9 10 11 11 10 11 11 12 14 14 13 13 12 13 12 12 12 12 10 10 11 13 14 12 11 12 10 10 11 11 10
3 5 1 3 5 8 12 11 13 12 12 10 10 9 9 10 8 9 9 10 12 13 14 12 13 13 14 14 12 12 11 10 10 11 12 14 14 15 15 15 13 14 14 14
4 7 4 5 8 5 13 13 10 11 10 10 10 10 8 7 8 7 9 10 11 12 12 12 12 13 14 13 13 12 12 10 11 11 12 14 15 17 18 18 19 18 18 15
5 3 3 3 3 6 6 7 8 10 10 9 7 8 9 7 8 7 8 8 9 10 10 11 12 13 14 14 14 14 13 11 9 10 11 12 12 11 13 16 18 18 16 16

GFSCGP_850_spd_102.txt.gz
Wind_Speed
25 19 24 32 26 27 26 27 26 20 12 15 14 28 25 25 25 21 17 22 18 20 21 20 21 28 28 25 25 20 29 31 32 28 36 34 35 32 27 25 22 25 22 19
22 22 26 28 28 29 30 26 24 16 19 17 11 20 25 18 21 23 19 16 22 13 11 14 18 21 22 22 28 21 22 31 29 33 30 36 33 32 28 25 24 24 20 18
27 24 27 25 29 29 27 28 19 17 9 11 9 15 27 22 17 21 28 27 25 18 20 23 16 11 10 16 21 31 30 28 30 36 31 31 27 26 26 24 22 23 23 23
27 27 27 26 28 29 24 26 15 17 5 3 4 6 16 18 15 18 16 14 15 13 0 3 7 12 15 19 19 18 31 27 33 37 36 32 30 32 31 28 24 24 25 27
27 25 20 22 24 27 21 17 19 13 9 7 16 4 10 19 23 18 17 11 13 7 6 6 9 12 16 17 20 23 25 30 33 40 39 30 30 27 24 23 19 23 26 24
27 24 18 28 24 24 10 12 3 9 7 6 18 15 11 9 10 13 13 13 10 9 7 8 11 15 16 19 19 22 24 32 34 41 38 31 33 26 23 21 25 29 23 23
15 21 22 17 19 12 10 13 5 5 7 8 14 14 12 5 9 16 13 9 19 18 15 13 16 20 24 22 25 19 21 31 33 39 36 33 34 29 24 26 29 27 24 22
15 6 19 14 15 12 17 15 6 7 9 11 16 9 9 4 14 16 18 22 17 15 16 16 17 19 22 22 23 26 17 30 34 37 34 33 32 31 26 29 25 26 19 20
3 5 12 14 8 11 17 13 8 3 7 2 8 8 13 18 11 18 19 18 17 17 20 21 20 21 21 21 23 26 25 23 35 35 30 32 30 30 29 24 24 23 20 21
6 2 5 8 7 9 10 13 3 3 2 0 9 13 8 8 11 17 16 18 22 23 22 20 21 24 22 21 20 21 24 30 33 33 24 37 31 30 27 24 27 22 17 21
7 10 10 9 2 13 12 5 4 5 8 0 3 4 4 3 11 16 17 25 21 20 19 20 22 26 22 19 17 10 10 22 22 21 21 36 29 30 26 26 22 20 16 18
10 3 2 12 19 15 7 7 13 4 1 5 3 5 8 13 15 19 19 20 20 19 21 22 23 27 24 20 16 11 5 11 15 15 27 34 22 28 26 22 22 20 18 16
10 3 1 4 3 8 6 11 12 8 5 2 1 3 11 18 18 21 18 18 17 19 21 24 30 35 30 23 19 13 5 9 16 16 22 31 23 24 24 20 19 20 20 18
9 4 6 4 3 10 1 4 2 2 3 5 6 6 12 16 14 14 16 15 16 18 20 23 32 34 37 29 23 17 10 8 12 14 18 27 31 25 22 21 23 19 20 17
6 4 6 8 13 10 7 12 5 10 8 3 9 12 14 13 12 15 13 15 17 19 21 26 30 33 37 41 31 24 16 9 9 17 24 23 22 23 21 21 18 19 18 17
10 4 11 5 19 16 18 8 10 6 14 14 19 14 16 18 15 17 17 16 16 16 20 26 29 31 34 38 40 33 27 18 12 17 21 24 23 22 23 26 19 22 24 25
9 5 6 9 14 9 13 15 16 20 21 19 14 9 12 12 13 17 15 13 13 15 17 24 26 27 29 30 31 34 33 27 23 18 16 18 20 22 21 24 23 25 25 23
6 9 2 3 4 5 7 19 16 21 20 20 17 16 14 15 16 15 14 12 14 16 19 23 22 23 25 24 25 26 25 29 31 31 26 19 14 16 16 17 20 23 24 25
5 5 4 3 4 12 9 16 14 7 14 20 16 13 8 14 13 15 15 14 15 18 15 16 17 18 19 20 21 22 23 23 27 31 31 27 24 21 18 14 11 14 19 23
7 7 3 2 4 0 7 20 24 14 6 17 16 13 9 3 1 4 13 14 14 15 15 15 15 15 16 19 18 20 22 23 25 26 25 22 22 21 23 23 20 14 17 16
8 5 7 5 4 5 15 23 20 4 5 14 16 16 19 7 7 5 9 12 14 16 15 14 16 18 18 17 17 17 18 23 20 19 18 17 16 19 17 15 14 12 13 13
8 6 5 6 6 4 29 8 7 3 9 11 13 13 14 12 10 10 12 13 18 16 15 16 17 19 19 18 17 20 20 18 18 16 16 15 16 14 14 12 10 7 11 13
4 5 3 5 3 4 12 11 9 8 8 11 11 10 9 10 11 13 16 18 16 14 14 15 16 16 18 19 19 22 22 17 17 18 17 17 15 15 13 11 11 12 12 15
4 10 3 5 6 8 9 10 10 9 9 9 9 10 9 10 10 13 14 13 12 13 14 13 15 17 17 16 13 15 17 18 17 18 21 21 19 16 14 14 15 14 16 13
6 6 4 5 9 11 9 8 8 9 9 9 9 10 10 9 10 10 10 11 11 11 13 14 14 14 15 15 14 11 12 13 12 13 16 19 20 22 19 18 19 18 16 12
7 3 2 2 3 4 5 4 7 10 10 10 9 9 11 11 10 9 11 10 10 12 12 12 13 13 13 14 16 15 10 9 10 13 13 14 14 14 16 18 20 19 15 13

GFSCGP_850_spd_105.txt.gz
Wind_Speed
22 13 15 19 17 20 18 21 19 15 24 5 5 10 8 16 28 20 26 33 36 39 40 41 38 34 34 32 32 33 36 38 37 32 33 32 33 29 25 27 23 21 19 20
14 19 24 19 18 19 23 23 23 18 16 3 9 12 12 12 11 22 30 26 26 35 26 43 35 23 33 30 24 31 34 37 37 32 30 29 32 32 28 30 28 26 25 22
21 23 20 21 22 17 24 21 18 20 3 5 4 7 7 13 18 27 31 30 22 16 14 8 10 11 10 7 4 23 31 35 34 31 28 28 32 29 29 33 36 33 28 24
17 21 23 22 15 20 19 19 22 23 5 3 2 4 7 8 11 15 18 16 24 15 21 18 15 12 8 7 2 9 28 33 34 34 33 31 34 34 38 37 34 31 28 29
14 16 13 19 21 17 21 18 21 21 5 6 6 2 6 6 10 8 12 26 29 33 27 22 16 11 8 4 4 2 6 17 32 32 32 31 32 30 31 31 30 27 27 28
16 21 10 5 7 15 22 1 6 4 2 3 11 11 5 2 15 7 23 30 24 27 23 21 18 11 9 8 9 10 11 11 7 36 36 35 34 30 28 29 27 30 30 32
11 14 14 9 8 15 12 9 1 3 4 4 13 11 7 8 16 17 22 27 30 28 25 23 22 19 18 20 20 21 21 18 12 31 38 37 35 32 30 29 27 32 33 32
4 6 3 6 16 6 5 7 5 5 3 3 9 6 3 13 16 31 30 30 31 30 27 24 23 23 23 23 24 27 33 29 14 24 38 36 34 31 30 28 28 29 29 29
5 5 20 18 15 19 6 6 1 3 2 2 3 2 2 17 18 17 25 30 30 30 27 26 27 24 23 21 22 24 27 38 29 24 38 34 31 29 33 29 28 29 27 26
3 6 10 11 4 3 7 2 4 3 1 4 5 6 3 13 14 12 19 24 27 31 35 33 29 25 22 20 21 16 15 27 24 25 36 33 31 31 32 33 33 32 27 23
2 3 3 1 5 2 4 3 5 2 2 4 4 3 3 7 14 15 18 26 30 31 31 30 29 27 25 22 21 15 14 7 13 20 30 32 30 33 31 33 33 29 25 22
5 4 3 2 5 5 7 5 1 2 3 2 2 4 16 16 17 20 23 25 24 24 28 32 32 31 32 30 27 21 13 7 13 17 20 21 21 34 30 31 31 26 22 20
5 2 3 2 2 4 2 6 9 2 3 3 2 3 12 17 18 21 20 21 23 23 23 29 35 38 37 38 34 28 17 6 5 13 14 20 26 27 27 30 26 21 18 16
9 4 4 5 5 2 4 4 3 7 1 2 6 9 13 14 13 15 19 23 24 23 23 29 32 34 37 38 39 36 24 13 3 5 14 16 24 24 23 21 17 18 20 20
4 7 9 7 11 15 9 13 8 7 9 2 10 16 12 12 11 16 20 21 20 20 23 29 32 33 34 36 37 39 34 21 13 8 10 15 18 18 22 19 19 19 19 19
8 4 5 15 14 12 13 18 23 20 13 15 16 12 13 17 16 20 20 18 19 20 22 25 28 30 31 32 32 34 37 32 17 13 11 7 14 19 21 24 24 21 21 18
2 5 6 3 6 10 13 18 21 21 21 14 11 6 10 12 14 19 19 19 18 17 17 25 24 25 27 28 27 30 30 32 29 23 21 16 10 20 24 23 26 27 28 23
3 2 3 1 5 5 8 14 19 23 22 19 13 10 12 14 16 21 19 17 17 18 19 21 20 21 22 23 24 23 25 27 30 30 28 26 21 14 16 17 18 20 26 24
4 2 3 2 3 7 12 13 10 5 13 18 14 8 14 14 12 21 20 17 17 19 15 18 19 18 21 19 19 22 23 24 26 28 26 27 28 26 21 18 15 18 17 18
7 6 3 1 3 5 6 20 20 5 8 16 17 13 10 3 5 3 14 14 16 18 17 19 20 14 15 21 19 19 21 23 24 21 22 21 20 24 26 28 26 24 20 19
5 5 6 6 4 2 14 22 20 3 3 10 14 17 20 7 7 4 10 14 17 18 15 16 16 19 18 19 21 21 22 24 21 19 16 16 14 19 19 21 18 21 18 18
4 4 4 4 4 3 28 8 6 2 9 13 14 13 14 12 11 15 17 18 17 14 14 13 15 16 16 16 20 24 25 21 20 16 14 14 13 14 14 12 14 15 14 14
4 3 2 5 4 5 12 13 13 11 10 10 9 10 13 14 15 17 17 17 14 12 13 13 15 14 13 14 17 20 20 19 19 20 19 17 14 12 11 11 12 11 13 12
4 6 4 2 5 9 11 11 12 12 12 11 11 10 10 10 9 13 12 10 14 14 12 11 12 15 17 13 14 16 15 14 15 18 21 21 18 16 15 15 15 14 16 14
5 5 4 4 9 11 9 9 9 12 11 9 10 12 11 10 10 10 12 11 9 9 10 11 13 14 16 16 12 11 11 11 12 14 15 17 19 20 18 18 20 18 18 15
6 3 1 2 5 6 4 5 11 12 11 9 11 9 10 11 11 4 5 5 5 7 8 10 12 13 14 14 15 15 12 10 10 10 11 12 13 14 17 18 18 19 16 15

GFSCGP_850_spd_108.txt.gz
Wind_Speed
4 6 11 15 13 18 16 20 18 19 23 18 16 22 16 7 17 23 23 22 27 35 37 33 37 37 35 37 38 40 37 38 48 45 41 39 37 34 32 29 27 24 22 26
4 13 16 18 16 20 20 22 22 20 24 16 13 11 11 9 8 9 12 18 19 22 35 40 40 43 41 38 39 42 44 39 46 48 43 40 39 35 31 29 28 26 25 25
12 13 14 17 18 19 22 21 19 17 22 17 8 13 13 14 10 15 18 21 24 21 4 3 7 9 12 9 19 35 41 41 46 48 46 42 38 32 30 30 32 31 29 27
14 12 17 15 19 17 19 12 14 21 19 11 3 7 5 5 8 10 13 5 16 21 26 26 20 17 18 19 15 18 27 34 40 43 45 44 40 38 35 32 32 34 32 30
15 15 14 14 16 16 21 15 21 18 15 6 6 3 6 6 3 6 2 25 25 18 23 23 22 18 18 15 16 15 13 20 26 36 41 41 40 37 33 31 32 33 34 34
19 18 4 10 16 10 5 3 13 12 6 9 12 7 5 2 3 11 14 22 27 25 19 17 16 15 16 15 11 7 8 10 9 25 32 37 38 38 34 30 29 32 32 37
4 7 7 8 5 3 5 2 3 2 2 4 7 8 8 5 8 16 14 25 26 26 28 23 20 17 17 15 14 12 8 9 11 14 32 36 39 39 34 33 29 29 28 34
4 6 1 3 4 6 2 9 4 4 3 3 7 6 1 17 21 26 26 26 29 32 32 30 25 21 19 18 18 19 19 16 19 18 24 40 41 43 41 35 31 28 26 28
5 5 9 15 15 5 4 6 6 3 4 3 4 5 14 17 20 19 22 31 31 29 32 33 27 24 23 20 19 21 23 24 21 22 24 35 42 43 42 36 33 28 24 25
4 7 4 6 1 7 10 1 2 2 1 2 4 3 4 7 16 18 16 23 29 31 36 38 32 27 24 22 20 19 18 20 21 13 24 25 37 38 37 36 32 31 26 23
4 4 7 5 6 6 4 2 3 1 3 1 3 4 9 12 10 16 13 21 24 24 32 36 35 30 26 22 22 23 18 15 9 6 12 15 27 30 30 31 31 33 30 24
6 3 4 5 6 3 3 3 1 3 0 3 3 3 5 10 10 19 19 17 19 26 27 31 35 38 38 31 26 27 22 20 11 3 8 18 17 26 30 32 33 36 33 27
5 3 4 2 5 5 3 2 2 4 2 3 3 3 3 11 17 23 19 14 20 26 35 37 37 37 37 37 33 29 26 24 19 4 6 11 13 15 20 31 35 32 31 25
6 1 2 5 9 3 7 2 3 4 2 8 6 9 11 14 15 15 16 20 26 29 30 34 35 34 34 34 35 33 29 28 22 14 3 7 10 13 19 27 30 31 29 23
3 2 5 3 8 7 17 8 9 5 7 8 10 13 12 12 14 16 18 21 24 27 27 25 30 33 32 33 33 34 33 30 27 23 10 2 4 11 16 22 34 27 23 22
2 5 6 15 16 21 21 21 22 16 14 13 13 11 10 15 17 17 16 17 20 19 22 23 25 27 29 29 31 31 32 31 29 28 24 14 1 5 9 24 31 34 30 25
6 3 5 2 6 9 14 15 19 20 21 8 9 7 9 12 14 16 17 20 19 18 22 25 23 25 25 27 27 28 29 28 29 31 29 25 16 6 5 7 15 30 25 24
8 5 2 2 5 6 3 10 16 22 18 16 12 10 13 15 16 16 17 18 17 17 21 20 18 20 24 23 24 24 23 26 27 29 32 31 28 20 14 6 9 16 24 27
7 2 2 2 4 7 5 9 6 6 13 15 12 9 11 13 10 18 17 16 15 14 19 20 18 20 21 22 22 21 23 24 24 28 27 28 29 29 24 22 19 17 11 15
7 7 1 1 4 4 4 18 14 6 7 11 12 10 8 9 4 3 12 16 17 13 19 21 18 16 18 22 20 23 26 24 25 23 22 21 22 21 24 23 25 25 21 19
4 3 6 5 4 3 14 21 7 2 2 10 10 11 16 6 6 7 14 14 14 12 16 18 16 17 19 18 21 26 28 29 23 18 16 15 15 16 17 16 16 16 19 17
4 4 4 3 4 3 26 6 5 4 8 8 10 10 13 15 15 13 14 14 12 14 16 18 17 15 17 18 19 24 27 24 22 18 15 14 13 13 13 11 11 14 14 15
4 3 3 5 3 4 12 14 13 10 11 10 10 10 13 16 16 15 13 12 13 14 16 17 17 15 14 16 18 19 17 16 18 20 19 17 15 14 12 11 12 13 12 12
5 5 3 3 4 8 10 11 12 11 12 11 11 9 9 12 12 11 9 10 11 13 16 15 15 17 16 14 13 12 12 13 13 15 19 20 18 17 15 14 15 15 14 14
2 5 3 4 7 9 8 7 10 11 9 8 9 12 11 8 8 6 8 9 10 11 13 14 15 14 15 14 11 10 11 12 12 13 13 15 17 18 17 16 16 17 18 16
5 2 1 2 6 5 5 8 9 8 8 9 6 7 7 4 5 5 6 7 8 10 11 12 13 11 11 11 11 11 11 11 10 10 11 12 13 13 15 15 13 12 12 11

GFSCGP_850_spd_111.txt.gz
Wind_Speed
4 1 7 10 6 11 11 14 21 20 18 23 21 22 20 26 23 23 22 29 28 35 36 27 21 30 39 43 43 41 40 38 39 40 39 37 37 35 33 32 29 26 25 25
5 16 13 12 12 12 16 21 26 24 17 12 19 19 23 25 14 25 25 26 25 18 6 6 14 22 31 32 38 41 42 40 40 41 40 42 42 39 36 34 31 28 27 27
12 15 11 9 13 16 20 18 19 21 20 13 14 21 19 22 17 27 22 26 13 5 7 11 11 14 16 16 23 31 37 40 43 45 46 47 43 40 37 34 33 33 31 31
10 12 16 17 19 15 20 14 17 12 8 12 1 11 14 15 16 10 7 15 19 20 19 18 18 19 15 10 10 19 24 30 36 39 42 45 47 45 43 40 37 34 35 34
10 11 11 13 19 13 18 13 16 19 15 8 11 7 6 6 6 7 11 20 20 23 23 23 20 18 22 16 12 14 18 21 25 30 34 38 44 42 40 40 36 33 31 33
16 4 5 11 17 13 11 5 12 14 5 7 13 9 5 3 2 12 13 21 18 17 19 23 18 16 20 15 13 14 15 17 21 28 32 34 37 38 37 35 36 33 32 32
11 3 5 8 6 5 3 2 3 3 1 5 7 9 7 15 15 15 12 16 16 16 21 24 22 20 18 14 11 9 8 9 10 16 26 32 36 38 36 37 37 35 34 34
5 9 4 4 5 5 5 6 4 3 1 3 9 4 4 15 16 20 20 15 16 22 26 23 24 22 22 17 12 8 5 1 5 10 13 25 35 39 40 42 42 41 36 33
6 6 3 11 16 6 2 4 6 7 5 2 2 4 11 11 12 15 18 11 20 25 25 29 27 26 25 22 18 14 9 8 9 12 17 22 24 35 40 41 42 40 38 34
4 7 4 7 0 3 4 3 3 1 3 4 1 6 6 11 11 8 13 14 17 26 28 31 37 34 30 25 21 17 14 12 9 11 15 25 31 32 37 41 43 42 39 35
10 5 7 3 3 2 4 4 4 4 3 2 2 3 6 7 6 9 7 19 30 31 37 39 38 37 35 30 26 20 19 17 9 7 6 12 22 26 26 35 38 36 36 34
5 4 5 8 4 4 2 8 4 2 1 2 3 4 7 8 8 12 17 26 35 30 34 37 37 35 38 36 32 27 22 20 17 11 5 3 10 14 22 26 30 29 32 32
5 4 6 6 1 1 2 6 6 4 2 4 1 3 5 5 10 17 15 22 25 22 30 33 33 37 37 35 36 34 30 25 21 17 11 7 5 11 15 14 23 27 29 31
4 4 3 7 12 10 7 6 2 3 2 8 7 10 7 9 12 14 20 24 28 26 23 30 34 34 33 34 34 35 34 30 24 20 16 12 8 5 10 18 19 21 28 32
2 3 4 11 14 15 20 17 5 10 11 7 9 11 9 10 12 14 18 22 22 21 23 28 32 32 33 32 33 33 33 35 32 24 19 16 14 9 8 13 17 22 28 29
4 4 2 4 16 20 18 22 22 17 11 10 12 9 8 13 14 18 18 17 18 20 20 21 26 28 31 32 32 30 31 33 34 34 28 23 20 17 11 8 8 20 29 29
3 3 3 2 7 5 11 16 17 14 20 7 7 5 6 10 15 18 18 20 21 23 25 26 26 26 26 29 28 29 29 29 31 34 35 31 26 23 20 15 8 11 12 23
4 5 2 2 1 5 2 11 8 18 16 14 11 9 10 13 16 18 19 17 19 23 22 21 22 22 23 22 26 22 24 26 28 30 30 31 32 30 27 23 17 13 6 4
4 2 2 2 5 5 3 7 6 6 9 14 5 5 5 5 5 18 21 18 17 20 20 19 19 19 23 22 24 24 24 24 26 28 27 27 27 28 28 30 27 24 20 15
4 9 2 3 3 2 4 15 12 5 4 12 11 9 7 7 3 3 15 11 13 18 19 17 16 17 19 21 24 27 30 28 28 25 23 21 21 22 24 24 24 23 23 21
4 3 6 4 3 4 11 13 4 2 2 7 10 10 15 6 6 8 11 11 13 17 18 17 15 19 19 19 23 27 29 33 28 23 20 19 19 20 20 18 18 19 19 18
4 3 3 2 3 2 20 4 3 4 8 8 9 10 15 12 10 10 9 10 13 16 18 18 15 16 17 18 20 23 25 24 24 23 22 22 22 20 18 16 15 15 16 17
3 3 2 4 3 5 13 15 13 11 11 9 10 9 9 11 11 7 8 11 14 17 18 17 15 14 15 17 19 21 20 19 19 21 24 24 22 22 20 17 17 16 15 16
3 6 3 2 4 8 8 11 11 12 11 10 9 8 8 9 6 6 8 11 14 16 17 16 14 16 17 18 17 17 16 17 18 19 20 22 23 22 20 18 18 17 18 17
2 5 3 4 7 8 7 9 10 12 10 9 8 8 8 3 4 5 7 9 11 13 14 13 14 15 16 16 16 17 17 16 17 17 18 19 19 20 19 17 16 16 16 15
5 3 1 1 8 5 5 8 6 8 8 8 6 6 4 4 4 5 6 8 9 11 12 12 13 11 13 14 15 15 16 17 17 16 16 16 16 17 16 15 14 13 13 10

GFSCGP_850_spd_117.txt.gz
Wind_Speed
2 2 8 12 12 15 15 17 24 28 25 23 23 23 28 32 38 33 38 37 37 38 39 33 34 38 37 33 34 35 40 47 50 49 45 41 40 38 36 34 32 30 28 26
0 7 7 6 11 12 14 17 24 25 16 13 25 29 26 27 29 38 36 36 37 40 41 30 31 32 33 30 31 30 36 41 50 48 47 42 35 36 36 36 35 33 30 28
5 4 2 7 12 10 14 14 18 19 24 19 22 24 21 21 26 33 27 23 24 15 19 11 13 17 20 21 28 35 36 39 45 47 43 37 34 36 37 38 37 35 32 31
8 4 4 6 13 7 6 9 13 16 12 11 9 13 22 18 16 14 15 14 12 9 8 4 1 1 7 11 19 33 35 32 36 42 39 38 37 37 36 38 38 38 35 33
4 5 5 12 7 9 10 6 13 16 15 14 13 6 5 16 17 13 13 16 14 13 13 12 10 8 8 9 12 17 30 31 32 32 36 37 36 37 36 36 37 39 37 36
9 8 5 5 5 12 8 7 14 8 4 5 5 3 3 10 13 15 15 18 18 17 16 13 13 11 12 12 13 14 17 25 27 31 29 31 33 36 36 38 37 35 37 38
10 3 3 6 5 2 3 5 5 3 1 6 7 1 4 12 14 14 15 25 22 19 20 20 20 19 17 16 15 13 15 16 19 25 27 29 31 32 33 37 37 37 35 37
4 6 2 4 4 6 8 4 3 5 6 10 6 5 4 8 19 22 22 27 31 25 23 22 22 22 21 20 15 12 13 12 11 16 20 25 27 31 32 32 35 35 35 35
3 6 5 14 8 3 2 3 2 5 7 4 2 3 1 16 17 23 26 27 32 32 27 26 24 23 23 22 22 15 13 11 8 8 14 19 27 29 31 32 31 32 35 36
1 8 8 5 6 7 6 1 4 2 4 5 3 4 7 14 16 17 19 27 31 34 32 29 29 26 25 24 22 20 18 13 9 6 7 12 17 24 29 31 29 26 31 33
5 5 7 11 3 7 6 5 5 3 4 4 3 4 6 11 12 14 16 26 28 33 33 29 28 29 28 28 26 23 21 17 13 9 7 2 4 8 14 18 25 31 24 31
0 4 6 14 17 6 6 11 7 4 2 1 3 3 5 9 10 18 20 24 28 32 33 30 28 29 36 37 33 30 24 20 17 13 10 7 4 1 5 8 13 21 24 19
0 2 7 6 2 9 5 8 11 7 3 3 2 4 7 14 14 19 21 23 27 29 34 33 32 31 40 37 38 35 32 27 22 17 14 11 9 4 3 5 7 12 16 20
4 3 1 1 4 6 11 17 11 4 2 5 7 6 10 12 13 18 21 23 24 26 30 32 33 41 38 37 38 34 36 33 28 23 20 18 16 13 10 5 4 6 7 13
1 2 5 6 9 12 15 17 17 11 4 4 6 6 9 11 11 15 15 18 24 31 34 35 40 38 35 36 34 33 35 32 33 32 28 26 21 18 15 10 8 5 1 7
1 1 2 3 6 0 8 16 13 10 13 12 11 8 7 11 12 15 18 21 22 23 24 27 26 31 36 33 32 32 31 31 29 32 34 31 29 25 22 19 16 10 9 6
1 2 2 2 3 4 2 8 9 11 14 5 6 5 7 9 13 16 17 19 20 20 22 26 28 29 34 36 32 30 29 30 30 30 30 31 32 31 30 25 21 20 18 13
3 4 2 3 3 2 4 3 10 15 11 8 8 7 9 15 17 16 18 18 18 18 19 23 24 25 26 29 33 31 30 30 28 28 29 28 29 30 29 29 28 26 24 22
9 2 3 3 2 4 4 3 2 4 6 9 4 4 10 10 5 17 17 17 16 16 18 21 23 23 22 24 24 30 32 32 32 32 29 27 26 26 26 27 28 28 26 25
6 3 2 2 3 4 3 5 5 5 3 10 8 5 8 7 3 4 14 17 16 15 16 18 19 21 23 24 24 27 31 33 34 31 29 27 25 23 24 24 25 25 25 25
1 1 2 3 1 3 7 9 3 3 3 5 7 11 10 6 7 5 10 15 16 15 17 18 20 23 24 24 24 27 28 31 29 27 26 25 24 23 22 20 20 20 20 20
1 1 1 1 0 2 16 2 1 7 7 7 7 8 14 13 10 9 10 13 14 15 16 18 20 22 23 24 24 25 27 23 23 24 23 23 22 21 20 19 19 19 19 20
1 2 1 3 3 5 10 12 10 9 10 8 9 8 9 9 8 8 9 10 13 14 14 16 18 20 21 22 22 22 21 20 19 19 22 22 21 21 21 20 20 20 21 22
2 1 2 4 4 8 7 11 13 11 12 9 8 9 8 8 6 6 7 10 13 13 15 14 15 18 20 21 21 21 18 18 18 19 19 22 22 23 22 21 21 21 21 21
2 2 3 3 7 9 8 9 11 12 11 9 8 7 7 5 7 6 8 9 12 13 14 15 17 17 18 18 18 19 19 19 17 18 20 20 20 20 20 21 21 19 18 18
2 1 1 1 9 6 6 9 8 8 9 7 5 6 7 6 6 6 8 10 12 14 15 15 16 16 17 17 17 16 17 20 20 20 20 20 19 17 17 16 16 15 14 14

GFSCGP_850_spd_120.txt.gz
Wind_Speed
2 6 7 6 5 10 13 16 20 19 20 16 14 20 23 32 30 24 27 31 34 38 37 34 38 35 32 33 32 30 29 35 34 36 36 34 32 33 30 27 26 30 33 32
5 8 1 3 5 9 13 17 18 18 6 18 21 23 19 14 19 26 27 27 29 31 31 29 29 34 24 26 27 27 27 34 35 36 38 36 36 32 29 26 26 30 33 34
8 2 2 7 10 11 14 14 16 20 21 20 15 15 13 11 17 25 25 26 26 26 26 23 18 18 17 19 20 20 24 34 36 36 37 32 28 24 26 28 30 36 35 35
8 1 5 9 12 11 14 7 13 17 16 11 14 12 20 13 18 22 29 30 31 25 22 16 14 15 14 14 18 15 21 35 36 40 39 43 40 39 35 33 33 37 35 33
3 6 9 11 7 5 7 14 15 20 18 15 12 7 4 17 22 24 24 28 31 30 23 18 16 14 15 9 7 11 12 34 37 39 43 48 33 28 22 24 29 34 34 36
16 10 9 5 6 8 14 16 19 13 8 7 6 4 3 12 17 19 20 27 28 32 28 22 18 14 15 10 2 6 3 26 35 39 39 37 40 25 22 25 26 28 30 35
7 11 5 7 6 3 5 12 6 4 7 7 8 4 9 11 15 16 17 25 25 33 33 29 27 24 20 17 12 11 7 13 24 30 27 36 27 31 25 23 22 24 31 32
5 5 9 7 2 6 13 5 5 6 9 15 2 3 4 8 14 20 23 26 25 31 37 34 30 27 22 20 18 16 15 11 11 12 15 26 31 34 29 27 21 21 31 32
3 5 2 7 11 7 3 7 5 7 16 7 2 3 7 17 17 21 24 28 29 30 36 37 33 30 27 24 23 20 16 14 11 10 10 15 17 21 26 26 29 31 28 30
1 6 3 2 7 13 12 5 6 3 5 5 4 4 8 15 17 15 19 26 32 34 38 40 36 31 29 26 27 25 18 20 17 13 9 9 10 14 19 22 25 23 28 26
2 3 2 9 2 10 6 6 6 4 7 5 6 5 5 10 12 15 17 23 28 29 35 37 36 33 29 30 27 27 29 27 24 19 15 9 6 6 9 16 20 26 26 27
2 3 5 10 6 5 8 9 10 6 5 3 3 3 6 10 13 17 18 21 26 28 34 36 38 37 37 38 38 32 31 30 25 22 20 17 11 7 2 2 7 12 20 23
3 3 5 5 7 3 4 14 15 13 3 5 5 4 7 12 14 18 19 21 24 28 34 38 40 41 39 39 38 37 34 30 26 23 20 17 15 11 8 4 1 2 6 12
1 3 4 4 3 4 7 14 14 4 4 4 5 7 8 11 13 17 20 20 21 25 31 33 37 39 38 37 35 36 35 33 29 27 25 23 20 16 13 10 7 4 2 5
3 4 4 5 10 1 11 12 14 11 2 5 7 6 8 10 10 15 17 19 21 26 28 29 32 34 38 37 37 35 34 34 34 33 32 32 27 22 19 15 12 9 6 5
4 1 2 7 13 7 5 11 7 8 11 12 11 7 6 9 10 14 18 19 21 23 24 27 27 30 35 35 32 32 33 33 31 31 33 32 30 28 26 24 21 17 15 13
1 1 2 2 8 6 4 5 6 10 13 3 3 6 6 7 11 15 17 18 19 20 21 23 23 25 28 29 33 33 30 28 27 29 31 31 30 30 31 28 26 26 24 20
3 2 2 4 6 6 6 6 10 12 8 7 8 7 8 12 12 12 13 14 16 18 20 21 22 23 25 26 27 28 29 32 32 31 29 27 28 28 27 27 28 28 27 26
9 1 3 3 2 6 5 4 3 1 5 6 2 7 9 11 9 15 13 12 13 13 14 16 18 21 22 24 25 28 32 32 32 31 29 28 25 25 24 25 25 25 23 23
7 9 4 3 5 6 5 1 2 3 4 4 3 3 5 12 1 4 9 10 11 13 14 16 17 17 19 20 20 23 26 29 30 28 27 26 25 24 23 22 21 21 21 22
5 5 8 5 5 4 5 6 3 5 5 7 7 9 4 6 9 6 5 9 10 11 13 14 15 17 18 18 19 22 23 26 26 25 24 24 23 22 21 21 20 19 19 18
3 3 3 3 4 4 9 3 3 9 12 11 10 11 15 13 10 7 8 9 10 10 12 14 14 15 17 19 18 20 22 21 19 19 21 22 21 20 20 19 19 19 19 20
3 2 0 3 3 6 9 11 12 12 13 11 11 9 10 9 8 7 7 9 10 11 11 11 12 13 15 17 18 18 18 16 16 16 17 18 20 21 21 21 21 21 21 21
3 2 2 5 5 7 9 12 13 12 13 12 10 9 8 8 6 7 7 9 10 10 11 10 11 13 14 16 17 17 18 17 16 17 18 18 19 19 20 20 20 21 22 20
1 4 5 5 8 9 8 11 12 13 12 12 10 9 8 8 7 6 7 8 9 9 10 10 12 12 14 15 16 17 17 17 17 17 18 19 18 18 18 18 22 20 19 18
1 3 2 2 14 5 12 12 12 13 12 10 10 10 8 7 7 6 7 7 8 8 9 10 11 12 14 15 16 16 16 16 17 15 15 16 15 15 14 13 11 18 16 16

GFSCGP_850_spd_123.txt.gz
Wind_Speed
10 9 11 10 6 9 12 16 17 15 13 11 16 22 20 22 14 14 20 23 26 29 31 30 31 31 31 31 33 35 35 32 30 30 37 38 38 34 33 30 30 32 37 39
8 13 2 1 5 10 14 17 19 15 5 14 19 22 21 2 8 11 18 23 26 30 31 31 30 28 27 25 23 23 27 27 32 36 42 40 38 36 36 34 34 31 33 38
13 6 3 6 10 13 15 15 18 18 18 18 19 18 13 6 7 20 22 24 26 28 30 30 29 27 28 27 20 21 26 28 34 33 40 40 37 36 37 36 35 36 33 35
11 4 7 9 12 12 15 11 13 18 15 14 16 15 16 5 11 17 25 28 28 29 29 28 27 28 26 26 27 32 28 28 36 41 32 46 44 43 40 37 36 34 35 35
2 8 10 12 11 4 10 11 16 19 19 18 20 11 5 8 16 22 24 27 29 27 28 29 28 28 26 25 28 27 26 24 37 46 37 45 48 41 39 37 35 35 35 31
19 10 7 11 3 9 12 14 19 20 13 12 17 5 4 8 13 17 21 27 29 27 26 26 26 26 26 23 22 18 12 22 33 36 38 42 48 40 37 36 34 35 33 32
12 16 10 8 10 10 9 12 8 8 6 14 6 9 7 12 14 14 18 24 28 28 27 27 30 30 29 26 20 12 9 10 21 13 31 34 41 41 38 35 32 34 32 28
6 5 13 11 8 6 10 9 7 8 11 18 22 5 5 12 16 19 21 24 28 30 29 29 30 29 28 27 20 14 10 2 13 8 13 23 37 40 33 33 5 23 20 19
3 4 6 6 8 7 3 9 6 11 19 14 6 4 3 15 16 21 22 25 29 30 30 33 34 30 29 28 23 19 15 15 15 14 14 16 21 20 23 26 29 16 13 14
1 4 6 4 6 13 11 6 5 4 5 9 5 4 5 15 16 15 17 24 27 29 32 36 38 37 32 30 31 25 22 28 23 18 18 15 15 14 25 28 26 20 22 20
3 2 6 6 11 4 7 5 4 10 9 6 9 4 6 9 11 14 17 22 27 30 33 36 40 39 35 34 38 37 31 35 34 29 23 21 20 16 17 17 22 23 20 20
2 4 6 7 6 3 5 6 10 5 8 6 5 3 4 8 12 16 18 21 27 28 33 33 37 40 42 42 44 43 40 39 37 30 29 27 21 11 16 7 11 11 11 15
6 5 6 11 9 5 3 7 10 13 12 15 9 4 5 10 13 16 17 20 24 29 32 34 39 41 46 42 42 41 40 37 32 31 28 27 28 26 22 17 13 10 5 5
1 6 8 7 6 2 3 8 9 7 4 3 4 7 6 10 11 15 18 18 20 24 29 33 36 39 41 43 43 40 40 40 33 27 29 32 33 30 28 22 19 16 13 9
4 4 7 11 3 3 3 2 6 6 8 4 7 5 6 8 9 13 14 16 20 24 28 30 32 35 38 39 40 38 37 35 31 34 36 40 38 35 31 25 24 22 19 17
4 1 2 5 13 11 2 1 5 2 5 8 9 6 3 5 7 11 14 16 19 22 24 25 27 31 37 35 34 33 35 34 31 34 37 37 38 35 34 32 30 25 21 20
6 3 3 4 7 6 9 7 5 5 4 3 3 6 6 4 8 11 12 14 15 17 20 22 24 26 28 30 31 32 32 34 35 35 35 36 36 34 33 28 28 29 27 23
5 3 3 5 3 5 5 7 7 9 5 7 9 8 6 8 8 9 11 11 13 14 16 19 24 26 28 25 26 29 33 35 36 37 36 32 29 27 26 27 29 29 26 26
10 4 3 4 7 5 6 9 6 4 4 2 6 9 9 7 5 11 11 10 12 13 14 16 17 19 21 26 24 27 32 33 31 33 31 31 28 27 27 28 27 25 24 25
9 8 4 4 6 4 6 5 3 1 6 4 6 8 11 9 4 4 7 8 10 12 13 15 16 17 20 21 21 24 31 32 33 29 30 28 27 27 27 26 24 22 22 22
7 8 11 9 8 6 3 3 4 6 5 8 6 8 10 6 5 7 4 7 8 10 13 13 15 18 20 20 21 23 25 30 29 28 27 26 26 25 24 22 21 20 19 19
10 7 5 6 6 10 5 5 3 9 14 12 12 12 16 15 10 7 6 6 8 9 11 13 14 17 18 19 20 21 23 21 20 20 21 22 21 24 24 22 20 19 19 20
4 3 2 5 4 6 5 11 11 12 14 12 14 13 13 13 9 7 6 7 8 8 9 11 12 13 15 17 18 18 20 19 19 18 19 19 20 19 19 21 22 22 21 20
2 2 3 6 5 7 9 11 14 13 12 12 11 12 11 12 9 8 7 7 7 8 10 10 11 14 16 17 18 18 19 19 18 18 19 18 19 20 19 17 19 20 23 21
1 7 6 4 8 11 8 11 13 14 11 11 10 10 11 11 10 8 8 7 8 8 9 10 11 12 14 14 16 17 18 18 17 16 17 18 17 18 17 17 21 20 23 23
3 4 3 1 16 3 15 12 13 14 11 10 10 11 10 9 9 8 8 8 7 8 8 9 11 11 12 14 16 17 17 17 17 16 17 17 17 17 16 15 14 20 23 26

GFSCGP_850_spd_126.txt.gz
Wind_Speed
17 10 11 17 4 7 10 12 15 16 15 12 13 19 20 23 8 9 11 16 21 24 26 28 33 35 35 31 30 27 22 21 26 36 29 32 41 41 40 40 41 39 41 41
11 14 16 7 3 7 12 15 17 16 13 13 16 22 20 17 18 16 17 20 23 27 29 30 32 35 35 35 34 32 26 22 21 22 25 23 33 43 47 39 40 38 37 42
16 17 5 5 12 13 15 16 15 17 14 16 19 21 14 21 18 17 19 21 24 29 32 33 34 33 35 37 36 37 36 31 27 25 28 31 28 38 46 42 41 42 43 37
15 16 18 13 14 14 15 14 12 14 14 12 13 15 18 9 12 15 22 26 27 29 31 34 35 34 34 35 36 37 37 36 36 35 30 34 38 34 46 44 42 42 46 43
10 8 7 12 14 14 13 11 14 17 17 18 20 10 7 16 14 17 20 23 27 29 30 33 34 36 34 31 32 31 36 32 33 38 40 50 50 50 33 46 42 44 45 45
20 23 9 10 13 6 11 14 17 19 16 13 18 3 4 2 8 13 19 22 27 28 30 31 32 34 32 30 29 29 26 27 27 35 40 44 49 58 46 51 46 49 45 44
17 21 18 13 13 14 16 13 7 5 6 10 5 12 6 9 11 12 13 18 24 27 29 32 36 34 32 29 27 23 20 20 20 23 26 32 44 47 51 52 52 50 47 44
11 7 17 14 14 9 7 6 6 8 9 15 18 5 6 10 14 15 18 20 23 27 30 35 37 36 30 29 28 23 22 17 11 10 13 24 29 25 32 55 18 50 45 37
8 6 4 9 9 5 2 6 4 9 14 11 7 7 6 11 13 19 21 22 23 27 31 35 37 36 34 34 35 30 24 20 11 4 3 14 16 15 18 7 3 32 39 37
5 6 10 9 6 15 13 9 5 1 4 8 9 5 3 13 14 12 14 19 23 29 33 35 38 39 36 34 34 32 27 22 17 13 10 12 10 9 15 17 10 3 12 19
6 1 6 8 10 15 8 11 3 2 6 5 9 2 4 6 7 11 13 17 22 28 32 34 37 40 39 35 38 35 31 26 27 24 27 32 24 9 7 10 17 12 9 14
6 3 7 15 5 5 3 3 3 3 5 4 5 1 3 6 8 10 12 16 20 25 28 31 35 38 39 39 38 37 37 38 31 40 38 36 34 31 26 20 17 14 20 14
2 5 7 10 9 2 5 5 3 6 6 9 5 2 5 6 8 10 12 15 20 25 29 32 37 40 41 41 41 40 41 39 46 48 45 39 38 38 31 26 17 11 8 4
2 7 12 9 6 3 4 2 4 4 3 5 5 6 3 4 7 10 12 14 17 23 27 30 35 38 40 42 44 45 41 43 47 45 46 41 41 38 33 31 29 24 18 13
5 4 10 17 16 8 3 3 5 4 7 5 3 5 1 3 6 8 11 14 17 22 25 29 33 36 37 40 41 45 42 43 44 46 45 43 35 37 36 37 32 25 23 20
10 2 2 12 16 13 7 6 9 6 2 2 6 5 4 4 7 9 13 14 17 18 21 25 28 32 32 33 36 37 40 41 39 41 40 37 39 32 33 34 35 30 30 28
10 3 3 11 7 10 9 14 9 6 6 6 6 6 10 5 8 9 10 12 14 16 18 22 27 27 30 30 36 37 32 39 40 40 42 41 37 32 34 34 33 34 35 30
5 5 3 7 3 5 2 5 10 8 5 6 9 10 9 10 11 9 8 10 12 13 15 18 22 25 27 26 29 36 38 38 41 44 40 37 34 34 31 30 33 32 30 29
9 5 3 4 8 2 4 8 9 8 7 6 9 10 12 13 12 11 6 7 9 10 12 14 16 19 22 28 28 34 37 39 40 40 40 35 33 30 27 30 30 29 29 29
14 12 6 5 10 7 4 7 5 5 5 10 11 13 14 12 3 4 4 7 9 9 11 12 14 17 20 22 25 28 33 36 37 37 35 34 33 32 32 30 29 27 26 25
6 6 10 9 8 3 5 4 3 5 3 7 10 11 13 7 8 10 6 9 8 8 10 10 13 16 17 17 19 25 26 28 26 25 27 28 31 31 30 27 26 24 24 22
10 8 7 9 9 10 3 3 3 5 10 9 12 13 19 18 13 9 7 12 8 8 10 11 13 16 18 19 20 23 27 24 22 22 22 24 23 24 24 26 26 26 24 24
4 2 2 4 3 4 2 6 8 9 12 11 13 12 14 14 11 8 9 12 9 9 10 11 13 15 18 20 21 23 23 21 21 21 23 24 24 25 26 28 29 30 30 29
3 5 4 5 6 9 8 9 11 12 14 13 12 13 11 11 9 8 8 8 9 9 10 10 12 14 16 17 19 19 20 19 20 22 22 23 24 25 26 28 30 32 33 32
2 7 8 5 9 10 8 11 14 14 13 11 10 11 11 11 10 9 9 9 9 9 10 11 12 13 14 15 18 19 20 19 19 18 19 20 21 20 19 22 24 27 29 30
2 4 4 1 19 6 15 15 13 14 12 11 11 10 9 9 10 9 9 9 9 9 9 10 11 11 12 15 19 20 20 20 19 17 18 17 17 18 18 17 16 20 23 26